[[{"header":{"parameterUnit":"m.s-1","parameterCategory":1,"la1":30.6,"la2":29.2853,"lo1":-89.7004,"lo2":-87.6739,"dy":0.0162,"dx":0.0183,"nx":112,"ny":82,"refTime":"2026-04-13T12:00:00:Z","depth":0,"parameterNumber":2,"parameterNumberName":"U-component_of_WINDS"},"data":[0.0,0.0,0.0,0.0,0.0,0.0,0.0,0.0,0.0,0.0,0.0,0.0,0.0,0.0,0.0,0.0,0.0,0.0,0.0,0.0,0.0,0.0,0.0,0.0,0.0,0.0,0.0,0.0,0.0,0.0,0.0,0.0,0.0,0.0,0.0,0.0,0.0,0.0,0.0,0.0,0.0,0.0,0.0,0.0,0.0,0.0,0.0,0.0,0.0,0.0,0.0,0.0,0.0,0.0,0.0,0.0,0.0,0.0,0.0,0.0,0.0,0.0,0.0,0.0,0.0,0.0,0.0,0.0,0.0,0.0,0.0,0.0,0.0,0.0,0.0,0.0,0.0,0.0,0.0,0.0,0.0,0.0,0.0,0.0,0.0,0.0,0.0,0.0,0.0,0.0,0.0,-1.3124,-1.4344,-1.5018,-1.4826,-1.3193,-1.1343,-0.9329,0.0,0.0,0.0,0.0,0.0,0.0,0.0,0.0,0.0,0.0,0.0,0.0,0.0,0.0,0.0,0.0,0.0,0.0,0.0,0.0,0.0,0.0,0.0,0.0,0.0,0.0,0.0,0.0,0.0,0.0,0.0,0.0,0.0,0.0,0.0,0.0,0.0,0.0,0.0,0.0,0.0,0.0,0.0,0.0,0.0,0.0,0.0,0.0,0.0,0.0,0.0,0.0,0.0,0.0,0.0,0.0,0.0,0.0,0.0,0.0,0.0,0.0,0.0,0.0,0.0,0.0,0.0,0.0,0.0,0.0,0.0,0.0,0.0,0.0,0.0,0.0,0.0,0.0,0.0,0.0,0.0,0.0,0.0,0.0,0.0,0.0,0.0,0.0,0.0,0.0,0.0,0.0,0.0,0.0,0.0,0.0,0.0,0.0,0.0,0.0,0.0,0.0,0.0,0.0,-1.338,-1.5821,-1.6575,-1.6329,-1.4917,-1.4011,-1.229,-0.9387,0.0,0.0,0.0,0.0,0.0,0.0,0.0,0.0,0.0,0.0,0.0,0.0,0.0,0.0,0.0,0.0,0.0,0.0,0.0,0.0,0.0,0.0,0.0,0.0,0.0,0.0,0.0,0.0,0.0,0.0,0.0,0.0,0.0,0.0,0.0,0.0,0.0,0.0,0.0,0.0,0.0,0.0,0.0,0.0,0.0,0.0,0.0,0.0,0.0,0.0,0.0,0.0,0.0,0.0,0.0,0.0,0.0,0.0,0.0,0.0,0.0,0.0,0.0,0.0,0.0,0.0,0.0,0.0,0.0,0.0,0.0,0.0,0.0,0.0,0.0,0.0,0.0,0.0,0.0,0.0,0.0,0.0,0.0,0.0,0.0,0.0,0.0,0.0,0.0,0.0,0.0,0.0,0.0,0.0,0.0,0.0,0.0,0.0,0.0,0.0,0.0,0.0,0.0,-1.2867,-1.4056,-1.6448,-1.7064,-1.6769,-1.5443,-1.4388,-1.2633,-0.9917,-0.8977,0.0,0.0,0.0,0.0,0.0,0.0,0.0,0.0,0.0,0.0,0.0,0.0,0.0,0.0,0.0,0.0,0.0,0.0,0.0,0.0,0.0,0.0,0.0,0.0,0.0,0.0,0.0,0.0,0.0,0.0,0.0,0.0,0.0,0.0,0.0,0.0,0.0,0.0,0.0,0.0,0.0,0.0,0.0,0.0,0.0,0.0,0.0,0.0,0.0,0.0,0.0,0.0,0.0,0.0,0.0,0.0,0.0,0.0,0.0,0.0,0.0,0.0,0.0,0.0,0.0,0.0,0.0,0.0,0.0,0.0,0.0,0.0,0.0,0.0,0.0,0.0,0.0,0.0,0.0,0.0,0.0,0.0,0.0,0.0,0.0,0.0,0.0,0.0,0.0,0.0,0.0,0.0,0.0,0.0,0.0,0.0,0.0,0.0,0.0,0.0,0.0,0.0,-1.3987,-1.4881,-1.676,-1.7238,-1.6988,-1.5899,-1.4566,-1.2776,-1.0346,-0.9182,0.0,0.0,0.0,0.0,0.0,0.0,0.0,0.0,0.0,0.0,0.0,0.0,0.0,0.0,0.0,0.0,0.0,0.0,0.0,0.0,0.0,0.0,0.0,0.0,0.0,0.0,0.0,0.0,0.0,0.0,0.0,0.0,0.0,0.0,0.0,0.0,0.0,0.0,0.0,0.0,0.0,0.0,0.0,0.0,0.0,0.0,0.0,0.0,0.0,0.0,0.0,0.0,0.0,0.0,0.0,0.0,0.0,0.0,0.0,0.0,0.0,0.0,0.0,0.0,0.0,0.0,0.0,0.0,0.0,0.0,0.0,0.0,0.0,0.0,0.0,0.0,0.0,0.0,0.0,0.0,0.0,0.0,0.0,0.0,0.0,0.0,0.0,0.0,0.0,0.0,0.0,0.0,0.0,0.0,0.0,0.0,0.0,0.0,0.0,0.0,0.0,0.0,-1.489,-1.6255,-1.7579,-1.7755,-1.7226,-1.5923,-1.4578,-1.2765,-1.0349,-0.8958,0.0,0.0,0.0,0.0,0.0,0.0,0.0,0.0,0.0,0.0,0.0,0.0,0.0,0.0,0.0,0.0,0.0,0.0,0.0,0.0,0.0,0.0,0.0,0.0,0.0,0.0,0.0,0.0,0.0,0.0,0.0,0.0,0.0,0.0,0.0,0.0,0.0,0.0,0.0,0.0,0.0,0.0,0.0,0.0,0.0,0.0,0.0,0.0,0.0,0.0,0.0,0.0,0.0,0.0,0.0,0.0,0.0,0.0,0.0,0.0,0.0,0.0,0.0,0.0,0.0,0.0,0.0,0.0,0.0,0.0,0.0,0.0,0.0,0.0,0.0,0.0,0.0,0.0,0.0,0.0,0.0,0.0,0.0,0.0,0.0,0.0,0.0,0.0,0.0,0.0,0.0,0.0,0.0,0.0,0.0,0.0,0.0,0.0,0.0,0.0,0.0,0.0,-1.4486,-1.5734,0.0,-1.78,-1.7426,-1.6506,-1.5195,-1.3397,-1.0985,0.0,0.0,0.0,0.0,0.0,0.0,0.0,0.0,0.0,0.0,0.0,0.0,0.0,0.0,0.0,0.0,0.0,0.0,0.0,0.0,0.0,0.0,0.0,0.0,0.0,0.0,0.0,0.0,0.0,0.0,0.0,0.0,0.0,0.0,0.0,0.0,0.0,0.0,0.0,0.0,0.0,0.0,0.0,0.0,0.0,0.0,0.0,0.0,0.0,0.0,0.0,0.0,0.0,0.0,0.0,0.0,0.0,0.0,0.0,0.0,0.0,0.0,0.0,0.0,0.0,0.0,0.0,0.0,0.0,0.0,0.0,0.0,0.0,0.0,0.0,0.0,0.0,0.0,0.0,0.0,0.0,0.0,0.0,0.0,0.0,0.0,0.0,0.0,0.0,0.0,0.0,0.0,0.0,0.0,0.0,0.0,0.0,0.0,0.0,0.0,0.0,0.0,-1.3454,-1.4367,-1.5602,0.0,-1.78,-1.7531,-1.6853,-1.5376,-1.3543,-1.1342,0.0,0.0,0.0,0.0,0.0,0.0,0.0,0.0,0.0,0.0,0.0,0.0,0.0,0.0,0.0,0.0,0.0,0.0,0.0,0.0,0.0,0.0,0.0,0.0,0.0,0.0,0.0,0.0,0.0,0.0,0.0,0.0,0.0,0.0,0.0,0.0,0.0,0.0,0.0,0.0,0.0,0.0,0.0,0.0,0.0,0.0,0.0,0.0,0.0,0.0,0.0,0.0,0.0,0.0,0.0,0.0,0.0,0.0,0.0,0.0,0.0,0.0,0.0,0.0,0.0,0.0,0.0,0.0,0.0,0.0,0.0,0.0,0.0,0.0,0.0,0.0,0.0,0.0,0.0,0.0,0.0,0.0,0.0,0.0,0.0,0.0,0.0,0.0,0.0,0.0,0.0,0.0,0.0,0.0,0.0,0.0,0.0,0.0,0.0,0.0,0.0,0.0,-1.3507,-1.4812,-1.617,-1.7648,-1.78,-1.7542,-1.6853,-1.4965,-1.3078,0.0,0.0,0.0,0.0,0.0,0.0,0.0,0.0,0.0,0.0,0.0,0.0,0.0,0.0,0.0,0.0,0.0,0.0,0.0,0.0,0.0,0.0,0.0,0.0,0.0,0.0,0.0,0.0,0.0,0.0,0.0,0.0,0.0,0.0,0.0,0.0,0.0,0.0,0.0,0.0,0.0,0.0,0.0,0.0,0.0,0.0,0.0,0.0,0.0,0.0,0.0,0.0,0.0,0.0,0.0,0.0,0.0,0.0,0.0,0.0,0.0,0.0,0.0,0.0,0.0,0.0,0.0,0.0,0.0,0.0,0.0,0.0,0.0,0.0,0.0,0.0,0.0,0.0,0.0,0.0,0.0,0.0,0.0,0.0,0.0,0.0,0.0,0.0,0.0,0.0,0.0,0.0,0.0,0.0,0.0,0.0,0.0,0.0,0.0,0.0,0.0,0.0,0.0,-1.3507,-1.4812,-1.617,-1.7648,-1.78,-1.7607,-1.7187,-1.553,-1.3722,-1.1869,0.0,0.0,0.0,0.0,0.0,0.0,0.0,0.0,0.0,0.0,0.0,0.0,0.0,0.0,0.0,0.0,0.0,0.0,0.0,0.0,0.0,0.0,0.0,0.0,0.0,0.0,0.0,0.0,0.0,0.0,0.0,0.0,0.0,0.0,0.0,0.0,0.0,0.0,0.0,0.0,0.0,0.0,0.0,0.0,0.0,0.0,0.0,0.0,0.0,0.0,0.0,0.0,0.0,0.0,0.0,0.0,0.0,0.0,0.0,0.0,0.0,0.0,0.0,0.0,0.0,0.0,0.0,0.0,0.0,0.0,0.0,0.0,0.0,0.0,0.0,0.0,0.0,0.0,0.0,0.0,0.0,0.0,0.0,0.0,0.0,0.0,0.0,0.0,0.0,0.0,0.0,0.0,0.0,0.0,0.0,0.0,0.0,0.0,0.0,0.0,0.0,0.0,-1.3521,-1.4882,-1.6254,-1.7642,-1.78,-1.767,-1.7332,-1.5754,-1.4009,-1.2112,0.0,0.0,0.0,0.0,0.0,0.0,0.0,0.0,0.0,0.0,0.0,0.0,0.0,0.0,0.0,0.0,0.0,0.0,0.0,0.0,0.0,0.0,0.0,0.0,0.0,0.0,0.0,0.0,0.0,0.0,0.0,0.0,0.0,0.0,0.0,0.0,0.0,0.0,0.0,0.0,0.0,0.0,0.0,0.0,0.0,0.0,0.0,0.0,0.0,0.0,0.0,0.0,0.0,0.0,0.0,0.0,0.0,0.0,0.0,0.0,0.0,0.0,0.0,0.0,0.0,0.0,0.0,0.0,0.0,0.0,0.0,0.0,0.0,0.0,0.0,0.0,0.0,0.0,0.0,0.0,0.0,0.0,0.0,0.0,0.0,0.0,0.0,0.0,0.0,0.0,0.0,0.0,0.0,0.0,0.0,0.0,0.0,0.0,0.0,0.0,0.0,0.0,-1.3583,-1.5072,-1.648,-1.7714,-1.7811,-1.7681,-1.7368,-1.58,-1.4074,-1.2277,0.0,0.0,0.0,0.0,0.0,0.0,0.0,0.0,0.0,0.0,0.0,0.0,0.0,0.0,0.0,0.0,0.0,0.0,0.0,0.0,0.0,0.0,0.0,0.0,0.0,0.0,0.0,0.0,0.0,0.0,0.0,0.0,0.0,0.0,0.0,0.0,0.0,0.0,0.0,0.0,0.0,0.0,0.0,0.0,0.0,0.0,0.0,0.0,0.0,0.0,0.0,0.0,0.0,0.0,0.0,0.0,0.0,0.0,0.0,0.0,-1.5901,0.0,0.0,0.0,0.0,0.0,0.0,0.0,0.0,0.0,0.0,0.0,0.0,0.0,0.0,0.0,0.0,0.0,0.0,0.0,0.0,0.0,0.0,0.0,0.0,0.0,0.0,0.0,0.0,0.0,0.0,0.0,0.0,0.0,0.0,0.0,0.0,0.0,0.0,0.0,0.0,0.0,-1.3899,-1.5669,-1.7176,-1.8011,-1.7927,-1.7777,-1.7692,-1.6116,-1.4635,-1.3496,-1.1147,0.0,0.0,0.0,0.0,0.0,0.0,0.0,0.0,0.0,0.0,0.0,0.0,0.0,0.0,0.0,0.0,0.0,0.0,0.0,0.0,0.0,0.0,0.0,0.0,0.0,0.0,0.0,0.0,0.0,0.0,0.0,0.0,0.0,0.0,0.0,0.0,0.0,0.0,0.0,0.0,0.0,0.0,0.0,0.0,0.0,0.0,0.0,0.0,0.0,0.0,0.0,0.0,0.0,0.0,0.0,0.0,0.0,0.0,0.0,0.0,-1.7512,0.0,0.0,0.0,0.0,0.0,0.0,0.0,0.0,0.0,0.0,0.0,0.0,0.0,0.0,0.0,0.0,0.0,0.0,0.0,0.0,0.0,0.0,0.0,0.0,0.0,0.0,0.0,0.0,0.0,0.0,0.0,0.0,0.0,0.0,0.0,0.0,0.0,0.0,0.0,0.0,-1.4538,-1.626,-1.7592,-1.8142,-1.8089,-1.7938,-1.7811,-1.652,-1.5236,-1.4078,-1.2142,0.0,0.0,0.0,0.0,0.0,0.0,0.0,0.0,0.0,0.0,0.0,0.0,0.0,0.0,0.0,0.0,0.0,0.0,0.0,0.0,0.0,0.0,0.0,0.0,0.0,0.0,0.0,0.0,0.0,0.0,0.0,0.0,0.0,0.0,0.0,0.0,0.0,0.0,0.0,0.0,0.0,0.0,0.0,0.0,0.0,0.0,0.0,0.0,0.0,0.0,0.0,0.0,0.0,-2.3657,-2.4382,-2.5034,-2.5034,-2.5401,-2.5833,-2.2455,-2.1051,-2.1016,-1.9385,0.0,0.0,0.0,0.0,0.0,0.0,0.0,0.0,0.0,0.0,0.0,0.0,0.0,0.0,0.0,0.0,0.0,0.0,0.0,0.0,0.0,0.0,0.0,0.0,-1.8487,-1.7678,0.0,0.0,0.0,0.0,0.0,0.0,0.0,0.0,0.0,0.0,0.0,0.0,-1.5413,-1.6946,-1.8003,-1.8251,-1.8229,-1.8082,-1.7822,-1.6926,-1.5849,-1.4635,-1.3232,-1.1546,0.0,0.0,0.0,0.0,0.0,0.0,0.0,0.0,0.0,0.0,0.0,0.0,0.0,0.0,0.0,0.0,0.0,0.0,0.0,0.0,0.0,0.0,0.0,0.0,0.0,0.0,0.0,0.0,0.0,0.0,0.0,0.0,-1.4906,-1.5836,0.0,0.0,0.0,0.0,0.0,0.0,0.0,0.0,0.0,0.0,0.0,0.0,0.0,-2.2253,-2.4566,-2.5383,-2.6209,-2.7027,-2.7813,-2.8271,-2.8363,-2.8363,-2.8436,-2.8491,-2.7959,0.0,-2.3639,-2.2694,0.0,0.0,0.0,0.0,0.0,0.0,0.0,0.0,0.0,0.0,0.0,0.0,0.0,0.0,0.0,0.0,0.0,0.0,0.0,0.0,0.0,0.0,-2.1136,-2.1272,-2.1264,-2.0937,0.0,-1.7229,-1.4977,-1.4691,-1.3691,0.0,0.0,0.0,0.0,0.0,0.0,0.0,-1.6581,-1.7933,-1.8762,-1.8576,-1.8341,-1.8082,-1.7822,-1.7096,-1.6477,-1.6055,-1.4116,-1.2651,-1.189,-1.0379,0.0,0.0,0.0,0.0,0.0,0.0,0.0,0.0,0.0,0.0,0.0,0.0,0.0,0.0,0.0,0.0,0.0,0.0,0.0,0.0,0.0,0.0,0.0,0.0,0.0,0.0,0.0,0.0,0.0,-1.5022,-1.7151,-1.8004,-1.8397,-1.8312,0.0,0.0,0.0,0.0,0.0,0.0,0.0,0.0,0.0,-2.4447,-2.4952,-2.5907,-2.742,-2.8227,-2.8796,-2.9163,-2.9953,-3.0356,-3.0356,-3.0356,-3.0356,-3.0356,-3.0356,-2.9292,-2.7438,-2.5721,-2.4318,-2.3162,0.0,0.0,0.0,0.0,-2.2437,-2.2171,-2.3088,-2.2868,0.0,-2.1161,0.0,0.0,0.0,0.0,0.0,0.0,0.0,0.0,0.0,0.0,-2.1904,-2.2373,-2.2125,-2.1812,-2.1887,-2.0337,-1.8328,0.0,-1.6262,-1.5748,-1.3413,0.0,0.0,0.0,0.0,-1.6677,-1.7465,-1.8509,-1.9016,-1.8632,-1.8489,-1.8259,-1.7845,-1.7507,-1.7091,-1.6556,-1.5504,-1.4249,-1.2811,-1.1671,-1.017,0.0,0.0,0.0,0.0,0.0,0.0,0.0,0.0,0.0,0.0,0.0,0.0,0.0,0.0,0.0,0.0,0.0,0.0,0.0,0.0,0.0,0.0,0.0,0.0,0.0,0.0,0.0,0.0,-1.7292,-1.9344,-2.0152,-2.104,-2.126,0.0,0.0,0.0,0.0,0.0,0.0,-2.3281,-2.4667,-2.6172,-2.7787,-2.8411,-2.931,-3.0528,-3.1133,-3.1549,-3.177,-3.2375,-3.2664,-3.2664,-3.2664,-3.2664,-3.2632,-3.2412,-3.1861,-3.0925,-2.8521,-2.7053,-2.6256,-2.5658,-2.5438,-2.5493,-2.6098,-2.5815,-2.5291,-2.6484,-2.6374,-2.5521,-2.4318,0.0,-2.3272,-2.1427,0.0,0.0,0.0,0.0,-2.2217,-2.285,-2.3024,-2.3134,-2.3529,-2.3171,-2.2767,-2.2951,-2.2685,-2.1512,0.0,-1.8586,-1.8117,-1.4833,0.0,0.0,0.0,0.0,-1.7502,-1.8298,-1.893,-1.9113,-1.8651,-1.8595,-1.8381,-1.7856,-1.78,-1.7574,-1.7027,-1.6629,-1.5566,-1.3717,-1.2937,-1.1557,-0.9456,0.0,0.0,0.0,0.0,0.0,0.0,0.0,0.0,0.0,0.0,0.0,0.0,0.0,0.0,0.0,0.0,0.0,0.0,0.0,0.0,0.0,0.0,0.0,0.0,0.0,0.0,0.0,0.0,0.0,-2.2712,-2.419,0.0,0.0,0.0,0.0,-2.3951,-2.5419,-2.6649,-2.7467,-2.829,-2.95,-3.1121,-3.1213,-3.2339,-3.4692,-3.4747,-3.5169,-3.5991,-3.6028,-3.6046,-3.6046,-3.6046,-3.6046,-3.6009,-3.5169,-3.4362,-3.344,-3.1017,-2.9537,-2.8822,-2.8767,-2.8767,-2.8767,-2.8803,-2.8319,-2.7622,-2.7714,-2.7218,-2.6539,-2.6447,-2.5897,-2.5264,-2.5117,-2.5081,0.0,0.0,-2.5658,-2.629,-2.6355,-2.6374,-2.619,-2.5448,-2.5246,-2.4805,-2.3318,-2.3566,-2.3491,0.0,-2.0149,-1.8898,-1.7689,0.0,-1.7085,-1.7814,-1.7979,-1.8335,-1.9132,-1.9279,-1.9113,-1.8651,-1.8595,-1.8381,-1.7856,-1.78,-1.7783,-1.7749,-1.7067,-1.6202,-1.5141,-1.439,-1.2993,-1.0833,-1.0103,0.0,0.0,0.0,0.0,0.0,0.0,0.0,0.0,0.0,0.0,0.0,0.0,0.0,0.0,0.0,0.0,0.0,0.0,0.0,0.0,0.0,0.0,0.0,0.0,0.0,0.0,0.0,0.0,-2.5805,-2.6605,0.0,-2.6877,-2.7115,-2.7281,-2.7281,-2.8778,-2.9806,-3.0111,-3.1849,-3.3115,-3.3702,-3.4266,-3.4963,-3.5826,-3.5844,-3.5991,-3.6303,-3.6303,-3.6303,-3.6303,-3.6303,-3.6303,-3.6266,-3.5973,-3.5679,-3.533,-3.4486,-3.2706,-3.054,-3.054,-3.054,-3.054,-3.054,-3.0356,-3.013,-3.013,-2.9928,-2.9604,-2.909,-2.8026,-2.6935,-2.6935,-2.6576,-2.6172,-2.6172,-2.6374,-2.6602,-2.6602,-2.6602,-2.6539,-2.6245,-2.6172,-2.586,-2.4787,-2.4768,-2.4474,-2.2758,-2.2438,-2.1658,-1.9159,-1.9463,-1.9601,-1.8298,-1.8537,-1.8985,-1.926,-1.9297,-1.9113,-1.8651,-1.8595,-1.8381,-1.7856,-1.78,-1.78,-1.78,-1.7111,-1.6336,-1.5493,-1.4582,-1.3303,-1.1648,-1.1082,-0.993,0.0,0.0,0.0,0.0,0.0,0.0,0.0,0.0,0.0,0.0,0.0,0.0,0.0,0.0,0.0,0.0,0.0,0.0,0.0,0.0,0.0,0.0,0.0,0.0,0.0,0.0,-2.5511,-2.7915,-2.8686,-2.9219,-2.9769,-3.0051,-3.0436,-3.0986,-3.2008,-3.2742,-3.3049,-3.4578,-3.5555,-3.583,-3.6395,-3.6835,-3.711,-3.711,-3.711,-3.711,-3.711,-3.711,-3.711,-3.711,-3.711,-3.7092,-3.6817,-3.6703,-3.667,-3.6413,-3.5018,-3.3036,-3.3036,-3.2871,-3.2614,-3.2614,-3.2265,-3.177,-3.1488,-3.1397,-3.1323,-3.0779,-2.9879,-2.901,-2.901,-2.8631,-2.8154,-2.7897,-2.7813,-2.7739,-2.7482,-2.7409,-2.7336,-2.7071,-2.6998,-2.6778,-2.598,-2.5595,-2.5081,-2.4025,-2.3804,-2.3015,-2.0564,-2.106,-2.1243,-1.9601,-1.9546,-1.9693,-1.9693,-1.941,-1.9041,-1.8642,-1.8518,-1.828,-1.7845,-1.78,-1.78,-1.78,-1.7337,-1.6637,-1.5629,-1.496,-1.3887,-1.2381,-1.1502,-1.0486,-0.9332,0.0,0.0,0.0,0.0,0.0,0.0,0.0,0.0,0.0,0.0,0.0,0.0,0.0,0.0,0.0,0.0,0.0,0.0,0.0,0.0,0.0,0.0,0.0,-2.43,-2.6392,-2.8227,-2.9042,-3.0558,-3.1525,-3.1562,-3.2265,-3.3353,-3.4931,-3.5059,-3.5445,-3.6285,-3.6358,-3.6725,-3.7511,-3.7566,-3.7951,-3.8726,-3.8762,-3.8781,-3.8781,-3.8781,-3.8781,-3.8781,-3.8762,-3.8744,-3.8689,-3.7896,-3.7547,-3.7474,-3.6688,-3.6376,-3.6376,-3.6321,-3.5789,-3.5041,-3.5041,-3.405,-3.2564,-3.1751,-3.147,-3.147,-3.147,-3.147,-3.1452,-3.1452,-3.1415,-3.125,-3.0467,-3.0246,-3.0063,-2.9244,-2.9042,-2.8822,-2.8026,-2.7842,-2.7622,-2.6814,-2.6035,-2.5466,-2.5429,-2.4153,-2.2804,-2.1978,-2.1822,-2.1804,-2.1785,-2.1071,0.0,-2.0486,-1.9636,-1.8932,-1.8649,-1.8385,-1.8134,-1.7867,-1.7834,-1.7817,-1.78,-1.7749,-1.709,-1.568,-1.5595,-1.4764,-1.3072,-1.149,-1.0353,-0.9676,0.0,0.0,0.0,0.0,0.0,0.0,0.0,0.0,0.0,0.0,0.0,0.0,0.0,0.0,0.0,0.0,0.0,0.0,0.0,0.0,0.0,-2.5098,-2.6814,-2.6814,-2.89,-3.0925,-3.232,-3.339,-3.4266,-3.489,-3.5147,-3.5477,-3.5917,-3.6486,-3.6923,-3.7162,-3.7716,-3.8138,-3.8358,-3.8927,-3.935,-3.957,-4.0157,-4.0435,-4.0435,-4.0435,-4.0435,-4.0416,-3.9845,-3.957,-3.9533,-3.8726,-3.8377,-3.8358,-3.8138,-3.8046,-3.7918,-3.6762,-3.6156,-3.5936,-3.5936,-3.5261,-3.4234,-3.3421,-3.3128,-3.3128,-3.3128,-3.2742,-3.2284,-3.2284,-3.1861,-3.136,-3.114,-3.1072,-3.087,-3.0081,-2.9879,-2.9666,-2.8858,-2.8675,-2.8455,-2.764,-2.7302,-2.6972,-2.6374,-2.5438,-2.4309,-2.2905,-2.2473,-2.2103,-2.1523,-2.1233,0.0,-2.0014,-1.9884,-1.9675,-1.9154,-1.9044,-1.8891,-1.8612,-1.8606,-1.8369,-1.7834,-1.6796,-1.6255,-1.6384,-1.5375,-1.4577,-1.4109,-1.3134,-1.2206,0.0,0.0,0.0,0.0,0.0,0.0,0.0,0.0,0.0,0.0,0.0,0.0,0.0,0.0,0.0,0.0,0.0,0.0,0.0,0.0,0.0,0.0,-2.7951,-2.9934,-3.0265,-3.1513,-3.2999,-3.4651,-3.5257,-3.5881,-3.6721,-3.6813,-3.6927,-3.7276,-3.8046,-3.8521,-3.8521,-3.9276,-3.9701,-3.9701,-4.0157,-4.0396,-4.0396,-4.0873,-4.1095,-4.1095,-4.1095,-4.1095,-4.1077,-4.0616,-4.0396,0.0,-3.9918,-3.9515,-3.9203,-3.9203,-3.9001,0.0,0.0,0.0,0.0,0.0,-3.5973,-3.5481,-3.5018,-3.4853,-3.4798,-3.4417,-3.3977,-3.3537,-3.3188,-3.2779,-3.2351,-3.199,-3.1898,-3.1715,-3.0907,-3.0448,-3.0081,-2.961,-2.9244,-2.8877,-2.8411,-2.8044,-2.7669,-2.72,-2.6322,0.0,-2.4012,-2.3353,-2.2852,-2.2383,-2.1911,-2.1266,-2.0321,-1.998,-1.9563,-1.8905,-1.8747,-1.8603,-1.8448,-1.8437,0.0,0.0,0.0,-1.6576,-1.6699,-1.5578,0.0,0.0,0.0,0.0,0.0,0.0,0.0,0.0,-1.0915,-1.1037,0.0,0.0,0.0,0.0,0.0,0.0,0.0,0.0,0.0,0.0,0.0,0.0,0.0,0.0,0.0,0.0,-3.0889,-3.3188,-3.4082,-3.4211,-3.4761,-3.6248,-3.6523,-3.6835,-3.7566,-3.7713,-3.808,-3.8781,-3.957,-4.0029,-4.0029,0.0,0.0,0.0,0.0,-4.1242,-4.1242,-4.1334,-4.137,-4.137,-4.137,-4.137,-4.137,-4.1279,-4.1242,-4.1224,-4.1132,-4.0689,-4.0029,-4.0029,-3.9551,-3.8836,-3.8744,-3.8267,-3.7547,-3.6725,-3.6431,-3.6413,-3.6321,0.0,0.0,-3.5333,-3.5036,-3.4862,-3.4027,-3.3767,-3.3574,-3.2878,-3.2677,-3.2488,-3.172,-3.0999,-3.043,-3.0246,-2.9647,-2.9115,-2.9023,-2.8436,-2.7934,-2.7934,-2.6961,-2.5931,-2.5262,-2.4359,-2.3685,-2.3606,-2.2725,-2.1795,-2.1031,-2.0138,-1.9249,-1.8491,0.0,0.0,-1.7918,-1.7918,-1.7884,-1.78,-1.78,-1.7473,-1.6733,-1.6147,-1.5815,-1.574,-1.5714,-1.568,-1.5595,-1.5595,-1.5629,-1.5663,-1.3444,-1.321,0.0,0.0,0.0,0.0,0.0,0.0,0.0,0.0,0.0,0.0,0.0,0.0,0.0,0.0,0.0,-3.1262,-3.328,-3.5059,-3.6574,-3.6776,-3.6905,-3.7235,-3.7845,-3.8303,-3.845,-3.9038,-3.9512,-3.9662,-4.0414,-4.0873,-4.0873,-4.1022,-4.1095,-4.1095,-4.1735,-4.2066,-4.2066,-4.2708,-4.3039,-4.3039,0.0,0.0,-4.3002,-4.2359,-4.2066,-4.2029,-4.137,-4.1003,-4.0873,-4.0873,-4.0396,-3.9588,-3.8946,-3.8597,-3.8377,-3.7566,-3.7272,-3.718,-3.6523,-3.6303,-3.6204,-3.559,-3.5223,-3.4822,-3.392,-3.3483,0.0,-3.3121,-3.3067,-3.2976,-3.2499,-3.2252,-3.1812,-3.0522,-3.0081,-2.9787,-2.9133,-2.8877,-2.8767,-2.8767,-2.7791,-2.6928,-2.6784,-2.5151,-2.3641,-2.2985,-2.2713,-2.2227,-2.1255,-2.1165,-2.0763,-1.9753,-1.9616,-1.9338,-1.8741,-1.8691,-1.8437,-1.7834,-1.78,-1.7473,-1.6733,-1.7134,-1.7084,-1.6502,-1.6495,-1.6197,-1.5595,-1.5595,-1.591,-1.6451,-1.5407,-1.5086,0.0,0.0,0.0,0.0,0.0,0.0,0.0,0.0,0.0,0.0,0.0,-2.498,-2.7697,0.0,-3.1922,-3.3537,-3.5169,-3.6541,-3.7382,-3.786,-3.8102,-3.8102,-3.8469,-3.8854,-3.9258,-3.9662,-4.0065,-4.0469,-4.1258,-4.1699,-4.1699,-4.2084,-4.2304,-4.2304,-4.269,-4.2892,-4.2892,-4.3313,-4.3515,-4.3515,-4.3515,-4.3515,-4.3496,-4.3075,-4.2892,-4.2873,-4.2488,-4.2066,-4.168,-4.126,-4.0857,-4.0414,-3.9606,-3.9056,-3.8652,-3.8248,-3.8102,-3.8028,-3.7643,-3.7323,-3.6996,-3.6318,-3.5806,-3.5276,-3.441,-3.3804,-3.3462,-3.3684,-3.3491,-3.3197,-3.3199,-3.2894,-3.2289,-3.1091,-3.0485,-2.9989,-2.917,-2.9005,-2.894,-2.8749,-2.8088,-2.7357,-2.6792,-2.5623,-2.4428,-2.3452,-2.2831,-2.219,-2.1302,-2.1314,-2.1045,-2.0094,-1.9676,-1.9299,-1.8927,-1.8555,-1.82,-1.7817,-1.78,-1.7642,-1.727,-1.7597,-1.7642,-1.7253,-1.7253,-1.7067,-1.6712,-1.6712,-1.6898,-1.7236,-1.6864,-1.6712,0.0,0.0,0.0,0.0,0.0,0.0,0.0,0.0,-2.197,-2.5539,-2.6979,-2.8465,-3.1333,-3.3183,-3.4559,-3.5353,-3.6743,-3.7731,-3.7731,-3.8285,-3.8707,-3.8707,-3.8707,-3.9019,-3.9808,-4.0029,-4.0469,-4.126,-4.2084,-4.2525,-4.2525,-4.3149,-4.3515,-4.3515,-4.3515,-4.3515,-4.3515,-4.3515,-4.3515,-4.3515,-4.3515,-4.3515,-4.3515,-4.3515,-4.3515,-4.3515,-4.3515,-4.313,-4.2488,-4.1827,-4.1462,-4.126,-4.0616,-3.9772,-3.8894,-3.8632,-3.8546,-3.8546,-3.8546,-3.82,-3.7665,-3.7019,-3.6381,-3.5753,-3.4916,-3.4196,-3.3758,-3.409,-3.3732,-3.3364,-3.3716,-3.333,-3.2606,-3.173,-3.1027,-3.0271,-2.9229,-2.8998,-2.887,-2.8386,-2.802,-2.7484,-2.6581,-2.5962,-2.5195,-2.3969,-2.307,-2.226,-2.1512,-2.141,-2.1109,-2.0318,-1.9705,-1.9227,-1.8939,-1.8217,-1.78,-1.78,-1.78,-1.78,-1.78,-1.78,-1.78,-1.78,-1.78,-1.78,-1.78,-1.78,-1.78,-1.78,-1.78,-1.78,-2.02,-1.8865,-1.8403,-2.0327,-2.0348,-2.0775,0.0,0.0,-2.5247,-2.8116,-2.9601,-3.1002,-3.3135,-3.489,-3.6266,-3.7088,-3.7973,-3.8579,-3.8579,-3.8652,-3.8707,-3.8707,-3.8707,-3.9019,-3.9808,-4.0561,-4.1297,-4.2103,-4.291,-4.3369,-4.3369,-4.346,-4.3515,-4.3515,-4.3515,-4.3515,-4.3515,-4.3515,-4.3515,-4.3515,-4.3515,-4.3515,-4.3515,-4.3515,-4.3515,-4.3515,-4.3515,-4.346,-4.3368,-4.3276,-4.28,-4.2158,-4.2066,-4.1093,-3.963,-3.8421,-3.798,-3.798,-3.798,-3.7667,-3.7249,-3.7178,-3.6572,-3.5729,-3.4802,-3.4291,-3.4003,-3.3758,-3.3631,-3.3601,-3.3761,-3.3733,-3.3378,-3.2208,-3.1855,-3.1283,-2.9401,-2.9008,-2.8781,-2.8092,-2.7634,-2.733,-2.7197,-2.6304,-2.5101,-2.3672,-2.3354,-2.3004,-2.2276,-2.2192,-2.1887,-2.1156,-2.0987,-2.0395,-1.9012,-1.8217,-1.78,-1.78,-1.78,-1.78,-1.78,-1.78,-1.78,-1.78,-1.78,-1.78,-1.78,-1.78,-1.78,-1.78,-1.78,-1.78,-2.2919,-2.2158,-2.1935,0.0,-2.3511,-2.456,-2.7012,-2.7454,-2.8164,-3.1163,-3.2519,-3.3748,-3.5615,-3.6909,-3.7808,0.0,-3.8872,-3.9143,-3.8338,-3.8632,-3.8658,-3.7915,-3.7826,-3.8573,-4.0421,-4.0623,-4.1282,-4.2875,-4.3296,-4.3515,-4.3515,-4.3515,-4.3515,-4.3515,-4.3515,-4.3515,-4.3515,-4.3515,-4.3515,-4.3515,-4.3515,-4.3515,-4.3515,-4.3515,-4.3515,-4.3515,-4.3515,-4.3515,-4.3515,-4.3515,-4.3313,-4.2947,-4.2488,-4.1882,-4.1113,-3.9615,-3.8784,-3.8366,-3.8366,-3.7861,-3.7209,-3.7209,-3.6519,-3.5645,-3.5263,-3.4759,-3.4308,-3.4249,-3.3917,-3.3625,-3.3765,-3.3807,-3.3492,-3.2296,-3.1996,-3.1462,-2.9426,-2.9001,-2.8711,-2.7747,-2.7426,-2.7225,-2.7004,-2.657,-2.5896,-2.4847,-2.3951,-2.3122,-2.2381,-2.2296,-2.2023,-2.1275,-2.119,-2.0581,-1.9041,-1.8623,-1.8268,-1.7834,-1.78,-1.78,-1.78,-1.78,-1.78,-1.78,-1.78,-1.78,-1.78,-1.78,-1.78,-1.78,-1.78,-1.78,-2.4643,-2.4491,-2.4694,-2.5523,-2.6539,-2.7791,-2.9517,-2.9907,-3.0751,-3.3723,-3.4695,-3.5527,-3.728,-3.7984,-3.8318,-3.8465,-3.9138,-3.9259,-3.8071,-3.8597,-3.8636,-3.7337,-3.7076,-3.7856,-4.0144,-4.0311,-4.1035,-4.2811,-4.3299,-4.3515,-4.3515,-4.3515,-4.3515,-4.3515,-4.3515,-4.3515,-4.3515,-4.3515,-4.3515,-4.3515,-4.3515,-4.3515,-4.3515,-4.3515,-4.3515,-4.3515,-4.3515,-4.3515,-4.3515,-4.3515,-4.3515,-4.3441,-4.2855,-4.2506,-4.2158,-4.0983,-3.9818,-3.8809,-3.8809,-3.8006,-3.7001,-3.7135,-3.6481,-3.56,-3.56,-3.5233,-3.484,-3.4983,-3.4482,-3.3945,-3.4094,-3.3972,-3.352,-3.2403,-3.214,-3.1612,-2.9704,-2.9297,-2.8937,-2.7678,-2.7441,-2.7276,-2.6792,-2.6691,-2.6437,-2.571,-2.4695,-2.3663,-2.2733,-2.2431,-2.2107,-2.1563,-2.1326,-2.075,-1.9633,-1.9333,-1.8894,-1.8149,-1.8104,-1.8003,-1.78,-1.78,-1.78,-1.78,-1.78,-1.78,-1.78,-1.78,-1.78,-1.78,-1.78,-1.78,-2.4508,-2.4491,-2.5202,-2.813,-2.8891,-2.9501,-3.1701,-3.2192,-3.2903,-3.5415,-3.5596,-3.582,-3.7575,-3.7542,-3.7396,-3.7842,-3.8596,-3.8831,-3.802,-3.8597,-3.8636,-3.7337,-3.6744,-3.6957,0.0,-3.9568,-4.0655,-4.1505,-4.2757,-4.3515,-4.3515,-4.3515,-4.3515,-4.3515,-4.3515,-4.3515,-4.3515,-4.3515,-4.3515,-4.3515,-4.3515,-4.3515,-4.3515,-4.3515,-4.3515,-4.3515,-4.3515,-4.3515,-4.3515,-4.3515,-4.3515,-4.3515,-4.3478,-4.2983,-4.2286,-4.2249,-4.0898,-3.9083,-3.9083,-3.7908,-3.6519,-3.7038,-3.6481,-3.56,-3.56,-3.5583,-3.5623,-3.5808,-3.5295,-3.471,-3.4918,-3.438,-3.3592,-3.2693,-3.2482,-3.2036,-3.0421,-3.0078,-2.9602,-2.8078,-2.7774,-2.7554,-2.6843,-2.6691,-2.6437,-2.571,-2.5559,-2.5017,-2.3545,-2.275,-2.2279,-2.2262,-2.163,-2.1173,-2.1123,-2.0433,-1.9659,-1.891,-1.8872,-1.8555,-1.7834,-1.78,-1.78,-1.78,-1.78,-1.78,-1.78,-1.78,-1.78,-1.78,-1.78,-1.78,-2.5101,-2.6336,-2.7859,-2.9347,-3.0463,-3.1633,-3.3376,-3.3766,-3.4095,-3.5292,-3.5414,-3.5425,-3.5829,-3.5776,-3.6007,-3.7012,-3.799,-3.8343,-3.754,-3.8656,-3.8702,-3.6414,-3.6451,0.0,0.0,0.0,0.0,-4.1341,-4.1923,-4.2576,-4.3461,-4.3515,-4.3515,-4.3515,-4.3515,-4.3515,-4.3515,-4.3515,-4.3515,-4.3515,-4.3515,-4.3515,-4.3515,-4.3515,-4.3322,-4.2995,-4.3357,-4.3069,-4.2426,-4.3196,-4.3286,-4.2995,-4.3375,-4.3331,-4.3094,-4.3094,-4.2293,-4.115,-4.0603,-3.9247,-3.7754,-3.795,-3.6918,-3.56,-3.56,-3.56,-3.564,-3.5843,-3.5701,-3.5563,-3.5808,-3.5224,-3.4381,-3.3512,-3.2889,-3.2054,-3.045,-3.0108,-2.9803,-2.8789,-2.818,-2.7722,-2.7469,-2.7029,-2.6437,-2.571,-2.478,-2.3951,-2.346,-2.2767,-2.2296,-2.2296,-2.209,-2.1735,-2.1241,-2.0953,-2.0467,-1.9676,-1.9625,-1.9287,-1.8555,-1.8538,-1.8302,-1.7817,-1.78,-1.78,-1.78,-1.78,-1.78,-1.78,-1.78,-1.78,-2.6928,-2.8467,-3.0093,-3.136,-3.2374,-3.3389,-3.4624,-3.4692,-3.4576,-3.4846,-3.453,-3.4157,-3.3881,-3.3687,-3.4146,-3.584,-3.702,-3.769,-3.7614,-3.865,-3.8658,-3.6672,-3.6637,-3.6711,0.0,0.0,0.0,-4.0661,-4.1519,-4.2395,-4.3443,-4.3515,-4.3515,-4.3515,-4.3515,-4.3515,-4.3515,-4.3515,-4.3515,-4.3515,-4.3515,-4.3515,-4.3515,-4.3515,-4.3303,-4.3013,-4.3357,-4.3087,-4.2465,-4.3196,-4.3178,-4.2751,-4.3286,-4.3249,-4.294,-4.3339,-4.3045,-4.2374,-4.1742,-4.0436,-3.9041,-3.8736,-3.7712,-3.6504,-3.6031,-3.6011,-3.6191,-3.6328,-3.6291,-3.6272,-3.662,-3.6101,-3.5181,-3.3974,-3.3295,-3.2475,-3.0861,-3.0497,-3.0277,-2.9533,-2.8991,-2.8449,-2.7891,-2.7199,-2.6539,-2.6065,-2.4966,-2.4002,-2.346,-2.2987,-2.2584,-2.233,-2.2296,-2.2124,-2.1634,-2.1583,-2.1262,-2.0471,-2.0433,-2.0094,-1.9321,-1.9299,-1.9068,-1.8594,-1.8324,-1.82,-1.82,-1.7918,-1.78,-1.78,-1.78,-1.78,-2.9734,-3.0751,-3.1867,-3.3964,-3.4523,-3.4726,-3.538,-3.4979,-3.4372,-3.4047,-3.3014,-3.2029,-3.1701,0.0,-3.1901,-3.4341,-3.5719,-3.6888,-3.8117,-3.8597,-3.8594,0.0,0.0,0.0,0.0,0.0,0.0,-3.9542,0.0,-4.2847,-4.3427,-4.3444,-4.3462,-4.3515,-4.3462,-4.3462,-4.3515,-4.3515,-4.3515,-4.3515,-4.3515,-4.3515,-4.3515,-4.3515,-4.3497,-4.3462,-4.3497,-4.3462,-4.3427,-4.3444,-4.3142,-4.2693,-4.3196,-4.2753,-4.1919,-4.3014,-4.3087,-4.2623,-4.2391,-4.1447,-4.0239,-3.9463,-3.8867,-3.8172,-3.6876,-3.6816,-3.7207,-3.7209,-3.6988,-3.6877,-3.7394,-3.6916,-3.5881,-3.4137,-3.3686,-3.3213,-3.156,-3.119,-3.0987,-3.0294,-3.0142,-2.9599,-2.8077,-2.7232,-2.6742,-2.6725,-2.6099,-2.5135,-2.3697,-2.3444,-2.3122,-2.2431,-2.2313,-2.2296,-2.2296,-2.2296,-2.2006,-2.1292,-2.1258,-2.0903,-2.0086,-2.0052,-2.0035,-2.0002,-1.9316,-1.8961,-1.8944,-1.8239,-1.7918,-1.7918,-1.7918,-1.7918,-3.0666,-3.2256,-3.3778,-3.4353,-3.4912,-3.5211,-3.4861,-3.4201,-3.3211,-3.1504,-3.0459,-2.947,-2.8254,-2.8863,0.0,-3.2335,-3.4447,0.0,-3.8117,-3.9507,0.0,-3.8629,0.0,-3.8751,-3.797,-3.8396,0.0,0.0,-4.0651,-4.1715,-4.2847,-4.2902,-4.3105,-4.3497,-4.3105,-4.3105,-4.3497,-4.3515,-4.3515,-4.3515,-4.3515,-4.3515,-4.3515,-4.3515,-4.3268,-4.292,-4.3339,-4.3032,-4.2266,-4.2714,-4.2559,-4.2041,-4.2185,-4.2062,-4.1853,-4.2124,-4.2144,-4.2085,-4.2478,-4.1976,-4.1161,-4.0944,-3.9872,-3.8454,-3.7557,-3.7335,-3.7379,-3.7237,-3.7381,-3.7622,-3.7757,-3.7194,-3.6167,-3.4478,-3.3608,-3.2832,-3.1499,-3.119,-3.114,-3.0954,-3.048,-2.9599,-2.8077,-2.7638,-2.7317,-2.6776,-2.6539,-2.6082,-2.5169,-2.4086,-2.3325,-2.3139,-2.2632,-2.2296,-2.2296,-2.2296,-2.2212,-2.204,-2.2023,-2.1684,-2.0923,-2.0889,-2.0619,-2.0002,-1.9828,-1.9727,-1.9727,-1.9529,-1.9427,-1.9427,-1.9427,-1.9427,-3.2442,-3.3795,-3.4979,-3.4979,-3.5064,-3.4844,-3.3778,-3.2555,-3.1016,-2.88,-2.776,-2.6872,-2.5682,-2.6859,0.0,0.0,0.0,0.0,-3.8125,-3.9321,-3.9778,0.0,-3.9606,0.0,-3.8926,-3.9225,-3.9617,0.0,-4.0461,-4.1227,-4.2246,-4.2302,-4.256,-4.3124,-4.2864,-4.2845,-4.316,-4.2884,-4.2753,-4.2753,-4.3014,-4.316,-4.316,-4.3392,-4.3339,-4.3087,0.0,-4.3123,-4.2562,-4.2674,-4.2342,-4.181,-4.181,-4.1508,-4.1105,-4.1617,-4.1621,-4.149,-4.2101,-4.2018,-4.1611,-4.1501,-4.0726,-3.9576,-3.8028,-3.7694,-3.7703,-3.7033,-3.721,-3.7596,-3.7596,-3.7256,-3.6542,-3.5039,-3.4079,-3.3201,-3.1956,-3.143,-3.119,-3.119,-3.0598,-2.9837,-2.8956,-2.8246,-2.7655,-2.7249,-2.6911,-2.6539,-2.6133,-2.5084,-2.412,-2.346,-2.3038,-2.2649,-2.233,-2.2296,-2.2296,-2.2296,-2.2296,-2.2124,-2.1701,-2.1684,-2.1465,-2.1028,-2.069,-2.0534,-2.0534,-2.017,-2.0002,-2.0002,-1.9818,-1.9753,-3.4421,-3.5115,-3.5583,-3.5481,-3.4912,-3.3931,-3.2378,-3.0506,-2.8492,-2.6267,0.0,-2.4464,-2.372,-2.5213,-2.7419,-3.0127,0.0,-3.4619,-3.8109,-3.8759,-3.9186,-4.0109,-4.0057,-3.9996,-4.0078,-4.0096,-4.0096,-4.0096,-4.0528,-4.1041,-4.1643,-4.1686,-4.1916,-4.244,-4.2539,-4.2577,-4.2577,-4.2059,-4.181,-4.181,-4.242,-4.2711,-4.2731,-4.325,-4.3515,-4.3515,-4.3515,0.0,-4.3444,-4.2827,-4.2282,-4.1771,-4.1621,-4.0961,-4.0204,-4.1196,-4.1246,-4.0874,-4.1468,-4.1686,-4.1665,-4.1502,-4.1385,-4.0885,-3.8513,-3.8063,-3.8084,-3.6866,-3.6853,-3.7173,-3.7097,-3.7078,-3.6768,-3.5486,-3.4708,-3.3882,-3.2581,-3.1718,-3.119,-3.119,-3.0683,-3.0226,-3.0125,-2.899,-2.8043,-2.7841,-2.7266,-2.681,-2.6708,-2.6065,-2.5118,-2.3833,-2.3596,-2.3241,-2.2513,-2.2448,-2.2398,-2.2296,-2.2296,-2.2296,-2.2296,-2.2296,-2.2296,-2.2296,-2.1667,-2.1343,-2.1343,-2.064,-2.0263,-2.0194,-1.9846,-1.9668,-3.5025,-3.5498,-3.5447,-3.4844,-3.4134,-3.3051,-3.097,-2.898,0.0,0.0,-2.3654,-2.2862,-2.2123,-2.4075,-2.6555,-2.8915,-3.1605,-3.4657,-3.8174,0.0,-3.991,0.0,0.0,0.0,0.0,0.0,0.0,0.0,0.0,-4.0473,-4.1018,-4.1064,-4.111,-4.1223,-4.1703,-4.1958,-4.1958,-4.1853,-4.181,-4.181,-4.242,-4.2711,-4.2731,-4.325,-4.3515,-4.3515,-4.3515,0.0,-4.3427,-4.2366,-4.1895,-4.1703,-4.0767,-4.0279,-4.0121,-4.0311,-4.0336,-4.0311,-4.0874,-4.1064,-4.1121,-4.1591,-4.1388,-4.0794,-3.9723,-3.9007,-3.8374,-3.7542,-3.7274,-3.7114,-3.6643,-3.6539,-3.6225,-3.4942,-3.4538,-3.4041,-3.2601,-3.1718,-3.119,-3.119,-3.1089,-3.0818,-3.0226,-2.9888,-2.9261,-2.7993,-2.7689,-2.7384,-2.6776,-2.6065,-2.5507,-2.5253,-2.4661,-2.4017,-2.3274,-2.3207,-2.2953,-2.233,-2.2296,-2.2296,-2.2296,-2.2296,-2.2296,-2.2296,-2.2161,-2.2124,-2.2124,-2.1975,-2.1689,-2.1323,-2.1249,-2.1039,-3.5295,-3.56,-3.5414,-3.4675,-3.3643,-3.208,-2.9254,0.0,0.0,0.0,-2.1727,-2.1424,-2.1309,-2.3175,0.0,-2.7469,-2.9313,-3.1899,0.0,0.0,0.0,0.0,0.0,0.0,0.0,0.0,0.0,0.0,0.0,-4.0204,-4.0473,-4.0733,-4.0903,-4.0903,-4.1178,-4.1335,-4.1335,-4.1036,-4.0932,-4.0914,-4.1508,-4.175,-4.1793,-4.2694,-4.3069,-4.3105,-4.3375,0.0,-4.3014,-4.2144,-4.1621,-4.1246,-4.0417,-4.0096,-4.0096,-4.0096,-4.0096,-4.0146,-4.0392,-4.0473,-4.0546,-4.0838,-4.0897,-4.0695,-3.9701,-3.9121,-3.8567,-3.7461,-3.7059,-3.683,-3.6174,-3.5968,-3.5834,-3.5232,-3.4776,-3.4104,-3.2615,-3.2022,-3.1667,-3.1258,-3.119,-3.1089,-3.0734,-3.0362,-2.9835,-2.9108,-2.8314,-2.7672,-2.7334,-2.664,-2.6031,-2.5642,-2.5287,-2.4763,-2.4051,-2.3966,-2.3661,-2.2919,-2.2868,-2.2699,-2.2313,-2.2296,-2.2296,-2.2296,-2.2296,-2.2296,-2.2296,-2.2296,-2.2046,-2.1582,-2.1384,-2.1039,-3.5143,-3.5481,-3.538,-3.4489,-3.3173,-3.1179,-2.7738,-2.5466,0.0,-2.0822,-2.0297,-2.0449,-2.091,-2.2459,-2.4265,0.0,-2.7368,-2.9497,0.0,0.0,0.0,0.0,0.0,0.0,0.0,0.0,0.0,0.0,0.0,0.0,-4.0096,-4.0497,-4.0726,-4.0726,-4.0726,-4.0726,-4.0726,-4.0311,-4.0096,-4.0113,-4.0631,-4.0903,-4.0926,-4.2018,-4.2577,-4.2731,-4.2995,0.0,0.0,-4.1916,-4.1335,-4.085,-4.0311,-4.0096,-4.0096,-4.0096,-4.0096,-4.0096,-4.0096,-4.0096,-4.0096,-4.0096,-4.0392,-4.0552,-3.9549,-3.9123,-3.8717,-3.7422,-3.6931,-3.6626,-3.5825,-3.56,-3.56,-3.56,-3.5047,-3.4167,-3.3021,-3.2513,-3.2141,-3.1565,-3.1309,-3.119,-3.119,-3.0717,-3.0294,-3.0125,-2.9075,-2.8179,-2.7841,-2.7283,-2.6657,-2.5913,-2.5845,-2.5541,-2.4795,-2.4745,-2.4423,-2.3678,-2.3644,-2.3376,-2.2801,-2.2632,-2.2533,-2.2533,-2.2293,-2.2194,-2.2296,-2.2106,-2.1825,-2.146,-2.1039,-2.0615,-3.4387,-3.5098,-3.5261,-3.3863,-3.2391,-3.04,-2.6989,0.0,-2.2733,-2.0696,-2.0297,-2.0449,-2.091,-2.2003,-2.3452,-2.5392,0.0,-2.9974,0.0,0.0,0.0,0.0,0.0,0.0,0.0,0.0,0.0,0.0,0.0,0.0,-4.0096,-4.0146,-4.0154,-4.0154,-4.0154,-4.0154,-4.0154,-4.0121,-4.0096,-4.0113,-4.0631,-4.0903,-4.0926,-4.1578,-4.2183,-4.2674,-4.2165,0.0,0.0,-4.1468,-4.0949,-4.085,-4.0311,-4.0096,-4.0096,-4.0096,-4.0096,-4.0096,-4.0096,-4.0096,-4.0096,-4.0096,-4.0146,-4.0154,-4.0036,-3.9537,-3.8819,-3.8024,-3.7313,-3.6626,-3.5825,-3.56,-3.56,-3.56,-3.5047,-3.4455,-3.432,-3.3258,-3.2276,-3.2209,-3.1667,-3.119,-3.119,-3.114,-3.0869,-3.0209,-2.9989,-2.9379,-2.7976,-2.7739,-2.7418,-2.6674,-2.659,-2.6302,-2.5558,-2.5507,-2.5186,-2.444,-2.4389,-2.4372,-2.4305,-2.3646,-2.3291,-2.3291,-2.2215,-2.1884,-2.2296,-2.1508,-2.1103,-2.1039,-2.0583,-2.0141,-3.4049,-3.4709,-3.4692,-3.366,-3.1968,-2.9683,-2.6428,0.0,-2.2582,-2.0398,-1.9929,-2.0156,-2.0862,-2.1375,-2.2261,-2.3979,-2.4661,-2.5998,-2.8941,0.0,0.0,0.0,0.0,0.0,0.0,0.0,0.0,0.0,0.0,0.0,-4.0096,-4.0096,-4.0096,-4.0096,-4.0096,-4.0096,-4.0096,-4.0096,-4.0096,-4.0096,-4.0311,-4.0417,-4.0424,-4.1013,-4.1402,-4.1621,-4.1746,0.0,0.0,-4.111,-4.0726,-4.0392,-4.0179,-4.0096,-4.0096,-4.0096,-4.0096,-4.0096,-4.0096,-4.0096,-4.0096,-4.0096,-4.0096,-4.0096,-4.0096,-3.9893,-3.9436,-3.8227,-3.7702,-3.7178,-3.5921,-3.56,-3.56,-3.56,-3.538,-3.5047,-3.459,-3.3677,-3.2831,-3.2395,-3.1698,-3.119,-3.119,-3.119,-3.1106,-3.0818,-3.0395,-2.9888,-2.9261,-2.8805,-2.823,-2.7435,-2.6962,-2.6573,-2.6285,-2.6251,-2.5947,-2.5203,-2.5152,-2.4965,-2.4508,-2.422,-2.4068,-2.4068,-2.2883,-2.2347,-2.2532,-2.1502,-2.0991,-2.0991,-2.0516,-2.0212,-3.2812,-3.3705,-3.3926,-3.2799,-3.1029,-2.8736,0.0,-2.3736,-2.2134,-2.0116,-1.9708,-1.9909,-2.0665,-2.091,-2.1406,-2.2657,-2.2914,-2.39,-2.664,-2.8535,0.0,0.0,0.0,0.0,0.0,0.0,0.0,0.0,0.0,0.0,-4.0096,-4.0096,-4.0096,-4.0096,-4.0096,-4.0096,-4.0096,-4.0096,-4.0096,-4.0096,-4.0096,-4.0096,-4.0121,-4.0497,-4.0733,-4.0903,-4.1196,0.0,0.0,-4.0726,-4.0424,-4.0096,-4.0096,-4.0096,-4.0096,-4.0096,-4.0096,-4.0096,-4.0096,-4.0096,-4.0096,-4.0096,-4.0096,-4.0096,-4.0096,-4.0096,-3.9842,-3.8582,-3.7905,-3.7263,-3.5938,-3.56,-3.56,-3.56,-3.56,-3.5447,-3.4945,-3.4252,-3.3575,-3.3055,-3.2192,-3.1532,-3.1532,-3.1326,-3.119,-3.119,-3.0768,-3.0362,-3.0123,-2.9651,-2.9025,-2.8247,-2.7486,-2.6945,-2.6708,-2.6691,-2.6471,-2.5964,-2.593,-2.5693,-2.5168,-2.4948,-2.475,-2.459,-2.3423,-2.2802,-2.2802,-2.172,-2.1346,-2.1614,-2.0986,-2.0719,-3.0257,-3.1905,-3.293,-3.0925,-2.9367,-2.7484,-2.4334,-2.2524,-2.1159,-1.9951,-1.9708,-1.9821,-2.0229,-2.0682,-2.115,-2.1553,-2.3237,-2.5236,-2.7486,-2.9753,0.0,0.0,0.0,0.0,0.0,0.0,0.0,0.0,0.0,0.0,-4.0096,-4.0096,-4.0096,-4.0096,-4.0096,-4.0096,-4.0096,-4.0096,-4.0096,-4.0096,-4.0096,-4.0096,-4.0096,-4.0113,-4.0392,0.0,0.0,0.0,0.0,-4.0336,-4.0113,-4.0096,-4.0096,-4.0096,-4.0096,-4.0096,-4.0096,-4.0096,-4.0096,-4.0096,-4.0096,-4.0096,-4.0096,-4.0096,-4.0096,-4.0096,-3.9943,-3.9191,-3.7946,-3.6626,-3.5802,-3.56,-3.56,-3.56,-3.56,-3.56,-3.5583,-3.5013,-3.4472,-3.4472,-3.3292,-3.2293,-3.2293,-3.1684,-3.119,-3.119,-3.119,-3.092,-3.0192,-3.0089,-2.9803,-2.9077,-2.8281,-2.7486,-2.6759,-2.6691,-2.6691,-2.6691,-2.6691,-2.6691,-2.6674,-2.5981,-2.533,-2.4806,-2.3685,-2.305,-2.2976,-2.2118,-2.2164,-2.3051,-2.2122,-2.1699,-2.7581,-2.8563,-2.912,-2.8045,-2.6684,-2.5095,-2.3308,-2.2181,-2.1159,-1.9951,-1.9708,-1.9836,-2.0229,-2.0682,-2.1488,-2.2947,-2.3907,0.0,0.0,0.0,0.0,0.0,0.0,0.0,0.0,0.0,0.0,0.0,0.0,0.0,-4.0096,-4.0096,-4.0096,-4.0096,-4.0096,-4.0096,-4.0096,-4.0096,-4.0096,-4.0096,-4.0096,-4.0096,-4.0096,-4.0096,-4.0179,0.0,0.0,0.0,0.0,-4.0154,-4.0096,-4.0096,-4.0096,-4.0096,-4.0096,-4.0096,-4.0096,-4.0096,-4.0096,-4.0096,-4.0096,-4.0096,-4.0096,-4.0096,-4.0096,-4.0096,-3.9842,-3.8599,-3.7533,-3.6626,-3.5825,-3.56,-3.56,-3.56,-3.56,-3.56,-3.56,-3.503,-3.4489,-3.4489,-3.3711,-3.2882,-3.2395,-3.2107,-3.1785,-3.1275,-3.119,-3.1106,-3.0886,-3.0852,-3.0565,-2.9837,-2.9533,-2.8838,-2.7553,-2.6996,-2.6691,-2.6691,-2.6691,-2.6691,-2.6691,-2.6471,-2.6269,-2.6101,-2.4611,-2.3843,-2.3823,-2.239,-2.1857,-2.2137,-2.2499,-2.2559,-2.5121,-2.6069,-2.6502,-2.567,-2.4553,-2.3351,-2.2155,-2.1344,-2.0658,-2.0038,-1.9927,-2.0,-2.0246,-2.0813,-2.1567,-2.2639,-2.3529,-2.4694,0.0,0.0,0.0,0.0,0.0,0.0,0.0,0.0,0.0,0.0,0.0,0.0,-4.0096,-4.0096,-4.0096,-4.0096,-4.0096,-4.0096,-4.0096,-4.0096,-4.0096,-4.0096,-4.0096,-4.0096,-4.0096,-4.0096,-4.0096,0.0,0.0,0.0,0.0,-4.0096,-4.0096,-4.0096,-4.0096,-4.0096,-4.0096,-4.0096,-4.0096,-4.0096,-4.0096,-4.0096,-4.0096,-4.0096,-4.0096,-4.0096,-4.0096,-4.0096,-3.9791,-3.8328,-3.7567,-3.6958,-3.587,-3.56,-3.56,-3.56,-3.56,-3.56,-3.56,-3.525,-3.4912,-3.4912,-3.432,-3.366,-3.3224,-3.2666,-3.2141,-3.1684,-3.1376,-3.119,-3.119,-3.119,-3.1021,-3.0565,-3.0277,-2.97,-2.8753,-2.7705,-2.6996,-2.6708,-2.6691,-2.6691,-2.6691,-2.6691,-2.6624,-2.6436,-2.5214,-2.4489,-2.4281,-2.3429,-2.2807,-2.2433,-2.3437,-2.358,0.0,-2.4185,-2.4798,-2.3622,-2.2848,-2.2081,-2.0899,-2.0154,0.0,-2.0193,-2.0263,-2.0261,-2.0308,-2.1007,-2.1479,-2.1263,-2.2578,0.0,0.0,0.0,0.0,0.0,0.0,0.0,0.0,0.0,0.0,0.0,0.0,0.0,-4.0096,-4.0096,-4.0096,-4.0096,-4.0096,-4.0096,-4.0096,-4.0096,-4.0096,-4.0096,-4.0096,-4.0096,-4.0096,-4.0096,-4.0096,0.0,0.0,0.0,0.0,-4.0096,-4.0096,-4.0096,-4.0096,-4.0096,-4.0096,-4.0096,-4.0096,-4.0096,-4.0096,-4.0096,-4.0096,-4.0096,-4.0096,-4.0096,-4.0096,-4.0096,-3.9808,-3.8379,-3.7939,-3.7567,-3.6056,-3.5633,-3.56,-3.56,-3.56,-3.56,-3.56,-3.56,-3.56,-3.56,-3.5064,-3.4556,-3.4506,-3.3359,-3.2446,-3.2395,-3.1752,-3.1275,-3.1275,-3.1224,-3.119,-3.119,-3.0598,-3.0176,-3.0108,-2.8686,-2.7503,-2.6826,-2.6725,-2.6691,-2.6691,-2.6674,-2.6436,-2.6013,-2.5446,-2.4875,-2.4348,-2.4875,-2.4612,-2.3616,-2.4657,-2.4592,-2.0491,0.0,-2.1622,-2.0807,-2.05,-2.0295,0.0,-1.9813,-1.9744,-1.9836,-1.9839,-2.0005,-2.0496,-2.0908,-2.1649,-2.3205,-2.4828,-2.6522,0.0,0.0,0.0,0.0,0.0,0.0,0.0,0.0,0.0,0.0,0.0,-4.0096,-4.0096,-4.0096,-4.0096,-4.0096,-4.0096,-4.0096,-4.0096,-4.0096,-4.0096,-4.0096,-4.0096,-4.0096,-4.0096,-4.0096,-4.0096,0.0,0.0,0.0,-4.0096,-4.0096,-4.0096,-4.0096,-4.0096,-4.0096,-4.0096,-4.0096,-4.0096,-4.0096,-4.0096,-4.0096,-4.0096,-4.0096,-4.0096,-4.0096,-4.0096,-4.0096,-3.991,-3.8988,-3.8345,-3.7702,-3.6755,-3.6062,-3.56,-3.56,-3.56,-3.56,-3.56,-3.56,-3.56,-3.56,-3.5447,-3.5165,-3.459,-3.4201,-3.3778,-3.322,-3.251,-3.2039,-3.2039,-3.1565,-3.119,-3.119,-3.1038,-3.0717,-3.014,-2.8686,-2.7722,-2.7553,-2.7012,-2.6691,-2.6691,-2.6349,-2.6104,-2.6013,-2.5067,-2.4328,-2.3794,-2.4328,-2.4246,-2.3616,-2.4266,-2.4225,-1.9151,-1.9735,-2.0154,-1.9798,-1.9708,-1.9708,-1.9708,-1.9708,-1.9747,-1.9929,0.0,-2.0157,-2.0718,-2.1353,-2.2281,-2.3808,-2.5562,0.0,0.0,0.0,0.0,0.0,0.0,0.0,0.0,0.0,0.0,0.0,0.0,-4.0096,-4.0096,-4.0096,-4.0096,-4.0096,-4.0096,-4.0096,-4.0096,-4.0096,-4.0096,-4.0096,-4.0096,-4.0096,-4.0096,-4.0096,-4.0096,0.0,0.0,0.0,-4.0096,-4.0096,-4.0096,-4.0096,-4.0096,-4.0096,-4.0096,-4.0096,-4.0096,-4.0096,-4.0096,-4.0096,-4.0096,-4.0096,-4.0096,-4.0096,-4.0096,-4.0096,-3.996,-3.9191,-3.87,-3.8159,-3.7083,-3.6468,-3.6062,-3.5684,-3.56,-3.56,-3.56,-3.56,-3.56,-3.56,-3.56,-3.5464,-3.5081,-3.4726,-3.4353,-3.3964,-3.3271,-3.2682,-3.2344,-3.1955,-3.1582,-3.1241,-3.119,-3.1038,-3.0632,-2.9273,-2.8302,-2.7968,-2.7311,-2.693,-2.693,-2.6393,-2.5824,-2.5278,-2.4712,-2.4137,-2.3595,-2.4137,-2.4116,-2.3616,-2.4158,-2.4116,-1.8642,-1.9273,-1.9711,-1.9782,-1.98,-1.98,-1.98,0.0,0.0,0.0,0.0,-2.041,-2.1098,-2.207,0.0,0.0,0.0,0.0,0.0,0.0,0.0,0.0,0.0,0.0,0.0,0.0,0.0,0.0,0.0,-4.0096,-4.0096,-4.0096,-4.0096,-4.0096,-4.0096,-4.0096,-4.0096,-4.0096,-4.0096,-4.0096,-4.0096,-4.0096,-4.0096,-4.0096,-4.0096,-4.0096,0.0,0.0,-4.0096,-4.0096,-4.0096,-4.0096,-4.0096,-4.0096,-4.0096,-4.0096,-4.0096,-4.0096,-4.0096,-4.0096,-4.0096,-4.0096,-4.0096,-4.0096,-4.0096,-4.0096,-3.9977,-3.9326,-3.9089,-3.8684,-3.732,-3.688,-3.6609,-3.5785,-3.56,-3.56,-3.56,-3.56,-3.56,-3.56,-3.56,-3.56,-3.56,-3.5081,-3.4675,-3.4675,-3.4049,-3.3339,-3.2716,-3.2547,-3.2151,-3.1328,-3.1303,-3.1249,-3.0955,-2.9877,-2.8923,-2.8196,-2.7563,-2.7164,-2.7079,-2.6544,-2.5653,-2.4436,-2.4436,-2.416,-2.3595,-2.4053,-2.4032,-2.3595,-2.416,-2.42,-1.9211,-1.9633,-1.9782,-2.0124,-2.021,-2.021,-2.021,-2.021,0.0,0.0,0.0,0.0,0.0,-2.2706,-2.3887,0.0,0.0,0.0,0.0,0.0,0.0,0.0,0.0,0.0,0.0,0.0,0.0,0.0,0.0,-4.0096,-4.0096,-4.0096,-4.0096,-4.0096,-4.0096,-4.0096,-4.0096,-4.0096,-4.0096,-4.0096,-4.0096,-4.0096,-4.0096,-4.0096,-4.0096,-4.0096,0.0,-4.0096,-4.0096,-4.0096,-4.0096,-4.0096,-4.0096,-4.0096,-4.0096,-4.0096,-4.0096,-4.0096,-4.0096,-4.0096,-4.0096,-4.0096,-4.0096,-4.0096,-4.0096,-4.0096,-4.0079,-3.996,-3.9486,-3.8802,-3.7956,-3.7263,-3.6609,-3.5785,-3.56,-3.56,-3.56,-3.56,-3.56,-3.56,-3.56,-3.56,-3.56,-3.5498,-3.543,-3.543,-3.481,-3.4286,-3.4167,-3.3609,-3.2749,-3.1497,-3.1842,-3.147,-2.981,-2.9488,-2.9109,-2.8482,-2.7658,-2.701,-2.6532,-2.6423,-2.5804,-2.4589,-2.4574,-2.4244,-2.3595,-2.3681,-2.3681,-2.361,-2.4259,-2.453,-1.8268,-1.8627,-1.897,-2.0472,-2.1135,-2.141,-2.1296,-2.157,-2.182,0.0,0.0,0.0,0.0,0.0,-2.6502,0.0,0.0,0.0,0.0,0.0,0.0,0.0,0.0,0.0,0.0,0.0,0.0,0.0,0.0,0.0,-4.0096,-4.0096,-4.0096,-4.0096,-4.0096,-4.0096,-4.0096,-4.0096,-4.0096,-4.0096,-4.0096,-4.0096,-4.0096,-4.0096,-4.0096,-4.0096,0.0,-4.0096,-4.0096,-4.0096,-4.0096,-4.0096,-4.0096,-4.0096,-4.0096,-4.0096,-4.0096,-4.0096,-4.0096,-4.0096,-4.0096,-4.0096,-4.0096,-4.0096,-4.0096,-4.0096,-4.0096,-4.0096,-3.9859,-3.9436,-3.8684,-3.8227,-3.7686,-3.6518,-3.6248,-3.6129,-3.5684,-3.56,-3.56,-3.56,-3.56,-3.56,-3.56,-3.56,-3.56,-3.56,-3.4991,-3.4401,-3.4018,-3.3333,-3.2518,-3.1507,-3.1648,-3.131,-3.0053,-2.9658,-2.9027,-2.8057,-2.7639,-2.7133,-2.6525,-2.651,-2.609,-2.5158,-2.5128,-2.4978,-2.4687,-2.4687,-2.4687,-2.4702,-2.5016,-2.5128,-1.7773,-1.8125,-1.8623,-2.0751,-2.1616,-2.1991,-2.2301,-2.2815,-2.3253,0.0,0.0,0.0,0.0,-2.7088,0.0,0.0,0.0,0.0,0.0,0.0,0.0,0.0,0.0,0.0,0.0,0.0,0.0,0.0,0.0,0.0,-4.0096,-4.0096,-4.0096,-4.0096,-4.0096,-4.0096,-4.0096,-4.0096,-4.0096,-4.0096,-4.0096,-4.0096,-4.0096,-4.0096,-4.0096,-4.0096,-4.0096,-4.0096,-4.0096,-4.0096,-4.0096,-4.0096,-4.0096,-4.0096,-4.0096,-4.0096,-4.0096,-4.0096,-4.0096,-4.0096,-4.0096,-4.0096,-4.0096,-4.0096,-4.0096,-4.0096,-4.0096,-4.0096,-4.0096,-3.9943,-3.9174,-3.8988,-3.8667,-3.7364,-3.6931,-3.6643,-3.6011,-3.5718,-3.56,-3.56,-3.56,-3.56,-3.56,-3.56,-3.56,-3.56,-3.5028,-3.4394,-3.3811,-3.3169,-3.2401,-3.1544,-3.1587,-3.1325,-3.0505,-2.9735,-2.8885,-2.7895,-2.769,-2.7375,-2.6866,-2.6811,-2.6512,-2.5854,-2.5839,-2.5764,-2.5615,-2.5615,-2.5615,-2.5615,-2.5764,-2.5839,-1.9016,-1.9419,-1.96,-2.0963,-2.087,-2.0932,-2.2786,-2.3209,-2.3437,-2.4245,0.0,0.0,0.0,0.0,0.0,0.0,0.0,0.0,0.0,0.0,0.0,0.0,0.0,0.0,0.0,0.0,0.0,0.0,0.0,0.0,-4.0096,-4.0096,-4.0096,-4.0096,-4.0096,-4.0096,-4.0096,-4.0096,-4.0096,-4.0096,-4.0096,-4.0096,-4.0096,-4.0096,-4.0096,-4.0096,-4.0096,-4.0096,-4.0096,-4.0096,-4.0096,-4.0096,-4.0096,-4.0096,-4.0096,-4.0096,-4.0096,-4.0096,-4.0096,-4.0096,-4.0096,-4.0096,-4.0096,-4.0096,-4.0096,-4.0096,-4.0096,-4.0096,-4.0096,-3.9943,-3.9174,-3.8988,-3.8802,-3.8007,-3.7297,-3.6778,-3.6728,-3.6129,-3.56,-3.56,-3.56,-3.56,-3.56,-3.56,-3.56,-3.56,-3.5028,-3.4583,-3.4534,-3.3931,-3.3016,-3.1721,-3.2092,-3.1908,-3.0602,-2.9377,-2.8629,-2.8532,-2.7944,-2.757,-2.7525,-2.7525,-2.721,-2.6527,-2.6512,-2.6213,-2.5615,-2.5615,-2.5615,-2.5615,-2.6243,-2.6512,-1.8657,-1.9019,-1.9451,-2.1484,-2.217,-2.2825,-2.4638,-2.5696,-2.6751,-2.8349,-2.8343,0.0,0.0,0.0,0.0,0.0,0.0,0.0,0.0,0.0,0.0,0.0,0.0,0.0,0.0,0.0,0.0,0.0,0.0,0.0,0.0,-4.0096,-4.0096,-4.0096,-4.0096,-4.0096,-4.0096,-4.0096,-4.0096,-4.0096,-4.0096,-4.0096,-4.0096,-4.0096,-4.0096,-4.0096,-4.0096,-4.0096,-4.0096,-4.0096,-4.0096,-4.0096,-4.0096,-4.0096,-4.0096,-4.0096,-4.0096,-4.0096,-4.0096,-4.0096,-4.0096,-4.0096,-4.0096,-4.0096,-4.0096,-4.0096,-4.0096,-4.0096,-4.0096,-4.0045,-3.9757,-3.969,-3.9503,-3.8751,-3.8362,-3.7929,-3.6998,-3.6575,-3.6066,-3.5175,-3.4965,-3.4965,-3.4965,-3.4965,-3.5121,-3.5554,-3.4664,-3.3987,-3.3987,-3.2997,-3.2109,-3.1574,-3.1369,-3.1056,-3.0543,-2.9726,-2.9205,-2.9205,-2.8199,-2.76,-2.76,-2.76,-2.748,-2.7225,-2.7225,-2.7106,-2.6851,-2.6851,-2.6851,-2.6866,-2.7106,-2.7225,-1.8446,-1.8805,-1.945,-2.1582,-2.2958,-2.4379,-2.6632,-2.7888,-2.9208,-3.1478,-3.155,-3.1317,-3.1627,0.0,0.0,0.0,0.0,0.0,0.0,0.0,0.0,0.0,0.0,0.0,0.0,0.0,0.0,0.0,0.0,0.0,0.0,-4.0096,-4.0096,-4.0096,-4.0096,-4.0096,-4.0096,-4.0096,-4.0096,-4.0096,-4.0096,-4.0096,-4.0096,-4.0096,-4.0096,-4.0096,-4.0096,-4.0096,-4.0096,-4.0096,-4.0096,-4.0096,-4.0096,-4.0096,-4.0096,-4.0096,-4.0096,-4.0096,-4.0096,-4.0096,-4.0096,-4.0096,-4.0096,-4.0096,-4.0096,-4.0096,-4.0096,-4.0096,-4.0096,-4.0096,-4.0096,-4.0096,-3.9977,-3.9486,-3.9157,-3.8717,-3.7726,-3.7097,-3.6465,-3.5464,-3.4898,-3.4603,-3.4603,-3.4603,-3.4759,-3.5207,-3.4309,-3.3582,-3.3582,-3.2379,-3.1511,-3.1511,-3.1077,-3.0836,-3.0836,-3.0238,-2.9864,-2.9864,-2.8843,-2.8139,-2.7929,-2.7705,-2.76,-2.76,-2.76,-2.76,-2.76,-2.76,-2.76,-2.76,-2.76,-2.76,-1.8702,-1.9057,-1.9744,-2.1194,0.0,0.0,-2.8626,-2.9423,-3.0212,-3.3042,-3.3511,-3.3237,-3.2641,0.0,0.0,0.0,0.0,0.0,0.0,0.0,0.0,0.0,0.0,0.0,0.0,0.0,0.0,0.0,0.0,0.0,0.0,-4.0096,-4.0096,-4.0096,-4.0096,-4.0096,-4.0096,-4.0096,-4.0096,-4.0096,-4.0096,-4.0096,-4.0096,-4.0096,-4.0096,-4.0096,-4.0096,-4.0096,-4.0096,-4.0096,-4.0096,-4.0096,-4.0096,-4.0096,-4.0096,-4.0096,-4.0096,-4.0096,-4.0096,-4.0096,-4.0096,-4.0096,-4.0096,-4.0096,-4.0096,-4.0096,-4.0096,-4.0096,-4.0096,-4.0096,-4.0096,-4.0096,-4.0096,-4.0096,-3.9529,-3.9005,-3.8988,-3.7786,-3.6715,-3.6699,-3.5568,-3.4585,-3.4585,-3.4599,-3.4592,-3.4592,-3.4028,-3.3582,-3.3582,-3.2351,-3.1511,-3.1511,-3.1511,-3.1511,-3.1511,-3.0883,-3.0507,-3.0507,-2.9924,-2.9295,-2.8637,-2.7974,-2.7615,-2.7615,-2.7615,-2.7615,-2.7615,-2.7615,-2.7615,-2.7615,-2.7615,-2.7615,-1.9091,-1.9596,-2.0673,-2.3298,0.0,0.0,0.0,-3.1154,0.0,0.0,-3.5004,-3.4746,-3.4107,0.0,0.0,0.0,0.0,0.0,0.0,0.0,0.0,0.0,0.0,0.0,0.0,0.0,0.0,0.0,0.0,0.0,0.0,-4.0096,-4.0096,-4.0096,-4.0096,-4.0096,-4.0096,-4.0096,-4.0096,-4.0096,-4.0096,-4.0096,-4.0096,-4.0096,-4.0096,-4.0096,-4.0096,-4.0096,-4.0096,-4.0096,-4.0096,-4.0096,-4.0096,-4.0096,-4.0096,-4.0096,-4.0096,-4.0096,-4.0096,-4.0096,-4.0096,-4.0096,-4.0096,-4.0096,-4.0096,-4.0096,-4.0096,-4.0096,-4.0096,-4.0096,-4.0096,-4.0096,-4.0096,-4.0096,-3.9943,-3.9639,-3.9106,-3.8203,-3.7193,-3.6195,-3.5201,-3.4544,-3.4544,-3.4525,-3.4555,-3.4591,-3.3985,-3.3193,-3.2234,-3.1768,-3.1511,-3.1511,-3.1511,-3.1511,-3.1511,-3.1316,-3.1197,-3.1197,-3.0597,-2.9939,-2.9337,-2.9112,-2.9022,-2.9022,-2.9022,-2.9022,-2.9022,-2.9022,-2.9022,-2.9022,-2.9022,-2.9022,-1.9629,-2.0135,-2.1326,-2.498,-2.6914,-2.8847,-3.2369,0.0,0.0,0.0,0.0,-3.547,-3.5075,0.0,0.0,0.0,0.0,0.0,0.0,0.0,0.0,0.0,0.0,0.0,0.0,0.0,0.0,0.0,0.0,0.0,0.0,-4.0096,-4.0096,-4.0096,-4.0096,-4.0096,-4.0096,-4.0096,-4.0096,-4.0096,-4.0096,-4.0096,-4.0096,-4.0096,-4.0096,-4.0096,-4.0096,-4.0096,-4.0096,-4.0096,-4.0096,-4.0096,-4.0096,-4.0096,-4.0096,-4.0096,-4.0096,-4.0096,-4.0096,-4.0096,-4.0096,-4.0096,-4.0096,-4.0096,-4.0096,-4.0096,-4.0096,-4.0096,-4.0096,-4.0096,-4.0096,-4.0096,-4.0096,-4.0096,-4.0096,-3.9977,-3.9537,-3.8813,-3.7893,-3.6761,-3.5681,-3.4826,-3.4559,-3.4756,-3.487,-3.4585,-3.397,-3.3113,-3.2046,-3.166,-3.1511,-3.1511,-3.1511,-3.1511,-3.1511,-3.1511,-3.1511,-3.1511,-3.1122,-3.0746,-3.0372,-2.9864,-2.9606,-2.9606,-2.9606,-2.9606,-2.9606,-2.9606,-2.9606,-2.9606,-2.9606,-2.9606,-2.0082,-2.0661,-2.1956,-2.622,-2.7719,0.0,-3.3607,-3.5673,-3.6485,-3.5836,0.0,-3.5701,0.0,0.0,0.0,0.0,0.0,0.0,0.0,0.0,0.0,0.0,0.0,0.0,0.0,0.0,0.0,0.0,0.0,0.0,0.0,-4.0011,-4.0028,-4.0096,-4.0096,-4.0096,-4.0096,-4.0096,-4.0096,-4.0096,-4.0096,-4.0096,-4.0096,-4.0096,-4.0096,-4.0096,-4.0096,-4.0096,-4.0096,-4.0096,-4.0096,-4.0096,-4.0096,-4.0096,-4.0096,-4.0096,-4.0096,-4.0096,-4.0096,-4.0096,-4.0096,-4.0096,-4.0096,-4.0096,-4.0096,-4.0096,-4.0096,-4.0096,-4.0096,-4.0096,-4.0096,-4.0096,-4.0096,-4.0096,-4.0096,-4.0096,-4.0096,-3.9463,-3.869,-3.8035,-3.6699,-3.5491,-3.4908,-3.5336,-3.5494,-3.4721,-3.3959,-3.3272,-3.2691,-3.2049,-3.169,-3.169,-3.163,-3.1585,-3.1585,-3.154,-3.1511,-3.1511,-3.1511,-3.1511,-3.1511,-3.0387,-2.9786,-2.9786,-2.9786,-2.9786,-2.9786,-2.9786,-2.9786,-2.9786,-2.9786,-2.9786,-1.9474,-2.1118,0.0,-2.7087,-3.0512,-3.3412,-3.5003,-3.5639,-3.5994,-3.6434,-3.6535,0.0,0.0,0.0,0.0,0.0,0.0,0.0,0.0,0.0,0.0,0.0,0.0,0.0,0.0,0.0,0.0,0.0,0.0,0.0,-3.9191,-3.9225,-3.9503,-4.0079,-4.0096,-4.0096,-4.0096,-4.0096,-4.0096,0.0,-4.0096,-4.0096,-4.0096,-4.0096,-4.0096,-4.0096,-4.0096,-4.0096,-4.0096,-4.0096,-4.0096,-4.0096,-4.0096,-4.0096,-4.0096,-4.0096,-4.0096,-4.0096,-4.0096,-4.0096,-4.0096,-4.0096,-4.0096,-4.0096,-4.0096,-4.0096,-4.0096,-4.0096,-4.0096,-4.0096,-4.0096,-4.0096,-4.0096,-4.0096,-4.0096,-4.0096,-4.0096,-3.9463,-3.8854,-3.869,-3.7443,-3.655,-3.6999,-3.6725,-3.616,-3.5483,-3.4302,-3.3442,-3.3305,-3.3155,-3.308,-3.308,-3.2617,-3.2273,-3.2273,-3.1795,-3.1511,-3.1511,-3.1511,-3.1511,-3.1511,-3.1241,-3.1077,-3.1077,-3.1077,-3.1077,-3.1077,-3.1077,-3.1077,-3.1077,-3.1077,-3.1077,-1.9999,0.0,0.0,-2.8276,0.0,-3.4348,-3.5369,-3.56,-3.5718,-3.6146,0.0,0.0,0.0,0.0,0.0,0.0,0.0,0.0,0.0,0.0,0.0,0.0,0.0,0.0,0.0,0.0,0.0,0.0,0.0,-3.8075,-3.8447,-3.8464,-3.865,-3.9022,-3.9402,-3.9571,-3.9571,-3.9926,-4.0096,-4.0096,-4.0096,-4.0096,-4.0096,-4.0096,-4.0096,-4.0096,-4.0096,-4.0096,-4.0096,-4.0096,-4.0096,-4.0096,-4.0096,-4.0096,-4.0096,-4.0096,-4.0096,-4.0096,-4.0096,-4.0096,-4.0096,-4.0096,-4.0096,-4.0096,-4.0096,-4.0096,-4.0096,-4.0096,-4.0096,-4.0096,-4.0096,-4.0096,-4.0096,-4.0096,-4.0096,-4.0096,-4.0096,-3.9782,-3.9342,-3.8962,-3.8241,-3.7716,-3.7777,-3.7114,-3.6491,-3.6135,-3.4896,-3.3994,-3.3994,-3.3694,-3.3499,-3.3499,-3.3185,-3.2976,-3.2976,-3.2677,-3.2452,-3.2452,-3.2452,-3.2452,-3.2452,-3.2138,-3.1824,-3.1511,-3.1511,-3.1511,-3.1511,-3.1511,-3.1511,-3.1511,-3.1511,-3.1511,-2.027,0.0,-2.4413,-2.9329,-3.2092,0.0,-3.498,-3.5431,-3.5577,0.0,0.0,0.0,0.0,0.0,0.0,0.0,0.0,0.0,0.0,0.0,0.0,0.0,0.0,0.0,0.0,0.0,0.0,0.0,0.0,-3.7567,-3.7702,-3.7719,-3.777,-3.7905,-3.8481,-3.8802,-3.8802,-3.9436,-3.9723,-3.9723,-3.9859,-3.9977,-4.0096,-4.0096,-4.0096,-4.0096,-4.0096,-4.0096,-4.0096,-4.0096,-4.0096,-4.0096,-4.0096,-4.0096,-4.0096,-4.0096,-4.0096,-4.0096,-4.0096,-4.0096,-4.0096,-4.0096,-4.0096,-4.0096,-4.0096,-4.0096,-4.0096,-4.0096,-4.0096,-4.0096,-4.0096,-4.0096,-4.0096,-4.0096,-4.0096,-4.0096,-4.0096,-4.0096,-3.9901,-3.9236,-3.9113,-3.8843,-3.795,-3.7249,-3.6768,-3.66,-3.552,-3.4651,-3.4651,-3.4188,-3.3844,-3.3844,-3.3739,-3.3664,-3.3664,-3.3559,-3.3499,-3.3499,-3.3499,-3.3499,-3.3499,-3.2976,-3.2392,-3.1854,-3.1615,-3.1511,-3.1511,-3.1511,-3.1511,-3.1511,-3.1511,-3.1511,-1.8126,0.0,-2.6125,0.0,-3.204,-3.3631,0.0,0.0,0.0,0.0,0.0,0.0,0.0,0.0,0.0,0.0,0.0,0.0,0.0,0.0,0.0,0.0,0.0,0.0,0.0,0.0,0.0,0.0,-3.6299,-3.6214,-3.6914,-3.6948,-3.7229,-3.7889,-3.8007,-3.8058,-3.8058,-3.8142,-3.8193,-3.821,-3.8836,-3.9486,-4.0096,-4.0096,-4.0096,-4.0096,-4.0096,-4.0096,-4.0096,-4.0096,-4.0096,-4.0096,-4.0096,-4.0096,-4.0096,-4.0096,-4.0096,-4.0096,-4.0096,-4.0096,-4.0096,-4.0096,-4.0096,-4.0096,-4.0096,-4.0096,-4.0096,-4.0096,-4.0096,-4.0096,-4.0096,-4.0096,-4.0096,-4.0096,-4.0096,-4.0096,-4.0096,-4.0096,-4.007,-3.9952,-3.9927,-3.948,-3.8035,-3.769,-3.7397,-3.6691,-3.5899,-3.537,-3.537,-3.5295,-3.5235,-3.5235,-3.4696,-3.4384,-3.4384,-3.3829,-3.3499,-3.3499,-3.3499,-3.3499,-3.3499,-3.341,-3.332,-3.323,-3.2079,-3.1511,-3.1511,-3.1511,-3.1511,-3.1511,-3.1511,-3.1511,-1.9364,-2.2173,-2.5315,0.0,-3.0101,-3.1282,-3.3132,0.0,0.0,0.0,0.0,0.0,0.0,0.0,0.0,0.0,0.0,0.0,0.0,0.0,0.0,0.0,0.0,0.0,0.0,0.0,0.0,0.0,-3.5785,-3.5752,-3.6113,-3.6129,-3.6282,-3.6597,-3.7043,-3.728,-3.728,-3.7702,-3.7905,-3.7905,-3.8227,-3.8768,-3.9486,-3.9486,-3.9723,-4.0096,-4.0096,-4.0096,-4.0096,-4.0096,-4.0096,-4.0096,-4.0096,-4.0096,-4.0096,-4.0096,-4.0096,-4.0096,-4.0096,-4.0096,-4.0096,-4.0096,-4.0096,-4.0096,-4.0096,-4.0096,-4.0096,-4.0096,-4.0096,-4.0096,-4.0096,-4.0096,-4.0096,-4.0096,-4.0096,-4.0096,-4.0096,-4.0096,-3.9969,-3.9516,-3.9437,-3.8951,-3.7381,-3.7515,-3.7383,-3.618,-3.5701,-3.5504,-3.5504,-3.5504,-3.5504,-3.5504,-3.5235,-3.5055,-3.5055,-3.4786,-3.4622,-3.4622,-3.4622,-3.4622,-3.4622,-3.4247,-3.4038,-3.4038,-3.311,-3.2632,-3.2632,-3.2228,-3.2049,-3.2049,-3.1675,-3.1511,0.0,0.0,-2.3405,-2.6731,-2.7961,-2.9077,0.0,0.0,0.0,0.0,0.0,0.0,0.0,0.0,0.0,0.0,0.0,0.0,0.0,0.0,0.0,0.0,0.0,0.0,0.0,0.0,0.0,0.0,-3.56,-3.56,-3.56,-3.56,-3.56,-3.56,-3.618,-3.6485,-3.6485,-3.7043,-3.7432,-3.7618,-3.7618,-3.8108,-3.8988,-3.8988,-3.9394,-4.0096,-4.0096,-4.0096,-4.0096,-4.0096,-4.0096,-4.0096,-4.0096,-4.0096,-4.0096,-4.0096,-4.0096,-4.0096,-4.0096,-4.0096,-4.0096,-4.0096,-4.0096,-4.0096,-4.0096,-4.0096,-4.0096,-4.0096,-4.0096,-4.0096,-4.0096,-4.0096,-4.0096,-4.0096,-4.0096,-4.0045,-3.9833,-3.9808,-3.9558,-3.8772,-3.8635,-3.8201,-3.6843,-3.71,-3.7025,-3.5701,-3.5504,-3.5504,-3.5504,-3.5504,-3.5504,-3.5504,-3.5504,-3.5504,-3.5504,-3.5504,-3.5504,-3.5504,-3.5504,-3.5504,-3.5504,-3.5011,-3.4741,-3.4741,-3.4262,-3.3844,-3.3499,-3.3006,-3.2766,-3.2751,-3.2228,-3.2004,0.0,-1.9857,0.0,-2.39,-2.6187,0.0,0.0,0.0,0.0,0.0,0.0,0.0,0.0,0.0,0.0,0.0,0.0,0.0,0.0,0.0,0.0,0.0,0.0,0.0,0.0,0.0,0.0,0.0,-3.56,-3.56,-3.56,-3.56,-3.56,-3.56,-3.5633,-3.565,-3.565,-3.5701,-3.6113,-3.6863,-3.6863,-3.7625,-3.8988,-3.8988,-3.9394,-4.0096,-4.0096,-4.0096,-4.0096,-4.0096,-4.0096,-4.0096,-4.0096,-4.0096,-4.0096,-4.0096,-4.0096,-4.0096,-4.0096,-4.0096,-4.0096,-4.0096,-4.0096,-4.0096,-4.0096,-4.0096,-4.0096,-4.0096,-4.0096,-4.0096,-4.0096,-4.0096,-4.0096,-4.0096,-4.0096,-3.9901,-3.9139,-3.8962,-3.8745,-3.8007,-3.7863,-3.7602,-3.6752,-3.663,-3.6384,-3.5619,-3.5504,-3.5504,-3.5504,-3.5504,-3.5504,-3.5504,-3.5504,-3.5504,-3.5504,-3.5504,-3.5504,-3.5504,-3.5504,-3.5504,-3.5504,-3.5474,-3.5444,-3.5444,-3.5415,-3.4771,-3.3499,-3.3455,-3.344,-3.344,-3.341,-3.3395,0.0,0.0,0.0,-2.2303,-2.3867,-2.5472,0.0,0.0,0.0,0.0,0.0,0.0,0.0,0.0,0.0,0.0,0.0,0.0,0.0,0.0,0.0,0.0,0.0,0.0,0.0,0.0,0.0,0.0,0.0,-3.56,-3.56,-3.56,-3.56,-3.56,-3.5168,-3.4965,-3.4965,-3.5385,-3.5735,-3.6028,-3.6028,-3.6569,-3.7608,-3.8075,-3.87,-3.9436,-3.9893,-4.0096,-4.0096,-4.0096,-4.0096,-4.0096,-4.0096,-4.0096,-4.0096,-4.0096,-4.0096,-4.0096,-4.0096,-4.0096,-4.0096,-4.0096,-4.0096,-4.0096,-4.0096,-4.0096,-4.0096,-4.0096,-4.0096,-4.0096,-4.0096,-4.0096,-4.0096,-4.0096,-4.0096,-3.9876,-3.9086,-3.8525,-3.7962,-3.7174,-3.7024,-3.6798,-3.6038,-3.6275,-3.6368,-3.5619,-3.5504,-3.5504,-3.5504,-3.5504,-3.5504,-3.5504,-3.5504,-3.5504,-3.5504,-3.5504,-3.5504,-3.5504,-3.5504,-3.5504,-3.5504,-3.5504,-3.5504,-3.5504,-3.5504,-3.5265,-3.4786,-3.4337,-3.4159,-3.4113,-3.3694,-3.3499,-1.7354,0.0,0.0,0.0,0.0,0.0,0.0,0.0,0.0,0.0,0.0,0.0,0.0,0.0,0.0,0.0,0.0,0.0,0.0,0.0,0.0,0.0,0.0,0.0,0.0,0.0,0.0,0.0,0.0,0.0,-3.56,-3.56,-3.5492,-3.5276,-3.5052,-3.4847,-3.46,-3.5253,-3.56,-3.56,-3.56,-3.6028,-3.6829,-3.7567,-3.8311,-3.9039,-3.9791,-4.0096,-4.0096,-4.0096,-4.0096,-4.0096,-4.0096,-4.0096,-4.0096,-4.0096,-4.0096,-4.0096,-4.0096,-4.0096,-4.0096,-4.0096,-4.0096,-4.0096,-4.0096,-4.0096,-4.0096,-4.0096,-4.0096,-4.0096,-4.0096,-4.0096,-4.0096,-4.0096,-3.9901,-3.9542,-3.9032,-3.8302,-3.7573,-3.6768,-3.6384,-3.6086,-3.5587,-3.5926,-3.6054,-3.5554,-3.5504,-3.5504,-3.5504,-3.5504,-3.5504,-3.5504,-3.5504,-3.5504,-3.5504,-3.5504,-3.5504,-3.5504,-3.5504,-3.5504,-3.5504,-3.5504,-3.5504,-3.5504,-3.5504,-3.5504,-3.5504,-3.504,-3.4848,-3.4801,-3.4382,-3.4173,0.0,0.0,0.0,0.0,0.0,0.0,0.0,0.0,0.0,0.0,0.0,0.0,0.0,0.0,0.0,0.0,0.0,0.0,0.0,0.0,0.0,0.0,0.0,0.0,0.0,0.0,0.0,0.0,-3.556,-3.5577,-3.56,-3.56,-3.5276,-3.4624,-3.5253,-3.5276,-3.46,-3.5253,-3.56,-3.56,-3.56,-3.6011,-3.6795,-3.751,-3.8253,-3.8963,-3.9732,-4.0054,-4.007,-4.0096,-4.0096,-4.0096,-4.0096,-4.0096,-4.0096,-4.0096,-4.0096,-4.0096,-4.0096,-4.007,-4.007,-4.007,-4.007,-4.007,-4.007,-4.007,-4.0096,-4.0096,-4.0096,-4.0096,-4.0096,-4.0096,-4.0096,-4.007,-3.9463,-3.8908,-3.8908,-3.8302,-3.7544,-3.6752,-3.6006,-3.5504,-3.5504,-3.5504,-3.5504,-3.5504,-3.5504,-3.5504,-3.5504,-3.5504,-3.5504,-3.5504,-3.5504,-3.5504,-3.5504,-3.5504,-3.5504,-3.5504,-3.5504,-3.5504,-3.5504,-3.5504,-3.5504,-3.5504,-3.5504,-3.5504,-3.5504,-3.5504,-3.5504,-3.5504,-3.5504,-3.5504,-1.683,0.0,0.0,0.0,0.0,0.0,0.0,0.0,0.0,0.0,0.0,0.0,0.0,0.0,0.0,0.0,0.0,0.0,0.0,0.0,0.0,0.0,0.0,0.0,0.0,0.0,0.0,0.0,-3.4704,-3.4585,-3.5554,-3.56,-3.5276,-3.4624,-3.5253,-3.5276,-3.46,-3.5253,-3.56,-3.56,-3.56,-3.5718,-3.5938,-3.6183,-3.668,-3.7385,-3.8225,-3.8823,-3.9289,-3.9876,-4.0096,-4.0096,-4.0096,-4.0096,-4.0096,-4.0096,-4.0096,-4.0096,-4.0096,-3.9731,-3.9236,-3.9236,-3.9236,-3.9236,-3.9236,-3.9636,-4.0096,-4.0096,-4.0096,-4.0096,-4.0096,-4.0096,-3.9952,-3.9368,-3.9059,-3.8908,-3.8908,-3.786,-3.6889,-3.663,-3.6006,-3.5504,-3.5504,-3.5504,-3.5504,-3.5504,-3.5504,-3.5504,-3.5504,-3.5504,-3.5504,-3.5504,-3.5504,-3.5504,-3.5504,-3.5504,-3.5504,-3.5504,-3.5504,-3.5504,-3.5504,-3.5504,-3.5504,-3.5504,-3.5504,-3.5504,-3.5504,-3.5504,-3.5504,-3.5504,-3.5504,-3.5504,-1.7294,0.0,0.0,0.0,0.0,0.0,0.0,-2.1445,0.0,0.0,0.0,0.0,0.0,0.0,0.0,0.0,0.0,0.0,0.0,0.0,0.0,0.0,0.0,0.0,0.0,-3.4284,-3.464,-3.4752,-3.456,-3.4793,-3.5577,-3.56,-3.5276,-3.4624,-3.5253,-3.5276,-3.46,-3.5253,-3.56,-3.56,-3.56,-3.5447,-3.5201,-3.5537,-3.5907,-3.6332,-3.7144,-3.8035,-3.8935,-3.9411,-3.9808,-4.0096,-4.0096,-4.0096,-4.0096,-4.0096,-4.0096,-4.0045,-3.9731,-3.9289,-3.8854,-3.8553,-3.8635,-3.8908,-3.8908,-3.9463,-4.0096,-4.0096,-3.9876,-3.9662,-4.002,-3.9627,-3.9102,-3.8951,-3.8425,-3.8015,-3.8358,-3.7233,-3.6337,-3.698,-3.6243,-3.5504,-3.5504,-3.5504,-3.5504,-3.5504,-3.5504,-3.5504,-3.5504,-3.5504,-3.5504,-3.5504,-3.5504,-3.5504,-3.5504,-3.5504,-3.5504,-3.5504,-3.5504,-3.5504,-3.5504,-3.5504,-3.5504,-3.5504,-3.5504,-3.5504,-3.5504,-3.5504,-3.5504,-3.5504,-3.5504,-3.5504,-1.8102,-1.8401,0.0,0.0,0.0,0.0,-2.1006,-2.1545,0.0,0.0,0.0,0.0,0.0,0.0,0.0,0.0,0.0,0.0,0.0,0.0,0.0,0.0,0.0,0.0,-3.2396,-3.3524,-3.4047,-3.3521,-3.4655,-3.5407,-3.5492,-3.5424,-3.5138,-3.4616,-3.5115,-3.5075,-3.4479,-3.5075,-3.5362,-3.5362,-3.5362,-3.5052,-3.4496,-3.5079,-3.5416,-3.5589,-3.6294,-3.7362,-3.8646,-3.8827,-3.9368,-4.0096,-4.0096,-4.0096,-4.0096,-4.0096,-4.0096,-3.9995,-3.9289,-3.8908,-3.869,-3.8121,-3.8246,-3.8646,-3.8745,-3.9342,-3.9995,-4.007,-3.9516,-3.9086,-3.9901,-3.8968,-3.7978,-3.8635,-3.7671,-3.6798,-3.7515,-3.6523,-3.5941,-3.7368,-3.6492,-3.5504,-3.5504,-3.5504,-3.5504,-3.5504,-3.5504,-3.5504,-3.5504,-3.5504,-3.5504,-3.5504,-3.5504,-3.5504,-3.5504,-3.5504,-3.5504,-3.5504,-3.5504,-3.5504,-3.5504,-3.5504,-3.5504,-3.5504,-3.5504,-3.5504,-3.5504,-3.5504,-3.5504,-3.5504,-3.5504,-3.5504,-1.9495,-1.9809,-2.0195,-1.9794,0.0,0.0,-1.957,-2.0543,0.0,0.0,0.0,0.0,0.0,0.0,0.0,0.0,0.0,0.0,0.0,0.0,0.0,0.0,0.0,0.0,-3.099,-3.1711,-3.2361,-3.2759,-3.3539,-3.4227,-3.4759,-3.4284,-3.4186,-3.4576,-3.4186,-3.3937,-3.3786,-3.3912,-3.3987,-3.3987,-3.3987,-3.3912,-3.3786,-3.3393,-3.3756,-3.4743,-3.5,-3.5837,-3.7158,-3.8398,-3.9368,-4.0096,-4.0096,-4.0096,-4.0096,-4.0096,-4.0096,-4.007,-3.9927,-3.9049,-3.8092,-3.8525,-3.793,-3.7158,-3.7819,-3.8525,-3.9262,-3.9927,-3.9516,-3.9086,-3.9901,-3.8968,-3.7835,-3.7978,-3.7293,-3.663,-3.6783,-3.6117,-3.575,-3.6646,-3.6117,-3.5504,-3.5504,-3.5504,-3.5504,-3.5504,-3.5504,-3.5504,-3.5504,-3.5504,-3.5504,-3.5504,-3.5504,-3.5504,-3.5504,-3.5504,-3.5504,-3.5504,-3.5504,-3.5504,-3.5504,-3.5504,-3.5504,-3.5504,-3.5504,-3.5504,-3.5504,-3.5504,-3.5504,-3.5504,-3.5504,-3.5504,-2.0782,-2.0707,-2.0778,-2.1115,0.0,0.0,0.0,0.0,-2.0887,0.0,0.0,0.0,0.0,0.0,0.0,0.0,0.0,0.0,0.0,0.0,0.0,0.0,0.0,0.0,-3.0105,-3.0695,-3.1397,-3.2038,-3.2409,-3.2892,-3.3575,-3.3593,-3.3761,-3.4087,-3.4112,-3.4112,-3.4112,-3.4112,-3.4112,-3.4087,-3.3761,-3.3401,-3.3093,-3.2734,-3.3106,-3.4014,-3.4089,-3.5063,-3.6691,-3.7876,-3.8816,-3.9542,-3.9952,-4.0096,-4.0096,-4.0096,-4.0096,-4.0045,-3.9636,-3.8761,-3.7806,-3.7774,-3.7247,-3.6752,-3.7544,-3.8596,-3.9568,-3.9995,-3.9252,-3.8541,-3.9289,-3.8358,-3.7203,-3.7203,-3.6873,-3.6492,-3.6149,-3.575,-3.5619,-3.5975,-3.575,-3.5504,-3.5504,-3.5504,-3.5504,-3.5504,-3.5504,-3.5504,-3.5504,-3.5504,-3.5504,-3.5504,-3.5504,-3.5504,-3.5504,-3.5504,-3.5504,-3.5504,-3.5504,-3.5504,-3.5504,-3.5504,-3.5504,-3.5504,-3.5504,-3.5504,-3.5504,-3.5504,-3.5504,-3.5504,-3.5504,-3.5504,0.0,0.0,0.0,0.0,0.0,-2.159,0.0,0.0,0.0,-2.1141,0.0,0.0,0.0,0.0,0.0,0.0,0.0,0.0,0.0,0.0,0.0,0.0,0.0,0.0,0.0,-2.951,-3.0267,-3.1325,-3.1162,-3.1403,-3.2359,-3.2905,-3.3185,-3.321,-3.3731,-3.4071,-3.4211,-3.4071,-3.4071,-3.4211,-3.3531,-3.2906,-3.2382,-3.2382,-3.2795,-3.3499,-3.3499,-3.4606,-3.6446,-3.7249,-3.7933,-3.8564,-3.9489,-3.9952,-4.007,-3.9927,-3.9876,-3.9808,-3.9315,-3.8442,-3.7515,-3.7158,-3.6828,-3.6752,-3.7544,-3.8652,-3.9679,-3.985,-3.8887,-3.7921,-3.8525,-3.7541,-3.6415,-3.6584,-3.6492,-3.6228,-3.5651,-3.5504,-3.5504,-3.5504,-3.5504,-3.5504,-3.5504,-3.5504,-3.5504,-3.5504,-3.5504,-3.5504,-3.5504,-3.5504,-3.5504,-3.5504,-3.5504,-3.5504,-3.5504,-3.5504,-3.5504,-3.5504,-3.5504,-3.5504,-3.5504,-3.5504,-3.5504,-3.5504,-3.5504,-3.5504,-3.5504,-3.5504,-3.5504,-3.5504,-3.5504,-3.5504,0.0,0.0,0.0,0.0,-2.3879,0.0,0.0,0.0,-2.1171,-2.0142,0.0,0.0,0.0,0.0,0.0,0.0,0.0,0.0,0.0,0.0,0.0,0.0,0.0,0.0,0.0,-2.7015,-2.8069,-3.0522,-2.9561,-2.968,-3.1622,-3.1677,-3.1705,-3.1804,-3.1839,-3.2188,-3.2815,-3.2173,-3.2173,-3.2815,-3.2076,-3.1682,-3.1611,-3.1611,-3.2302,-3.3499,-3.3499,-3.431,-3.5668,-3.643,-3.6783,-3.7008,-3.8481,-3.9463,-4.002,-3.9315,-3.9032,-3.9139,-3.9756,-3.8536,-3.6964,-3.8213,-3.77,-3.6752,-3.7544,-3.7921,-3.8206,-3.8854,-3.8442,-3.7822,-3.7892,-3.6768,-3.5782,-3.6446,-3.6117,-3.5619,-3.5537,-3.5504,-3.5504,-3.5504,-3.5504,-3.5504,-3.5504,-3.5504,-3.5504,-3.5504,-3.5504,-3.5504,-3.5504,-3.5504,-3.5504,-3.5504,-3.5504,-3.5504,-3.5504,-3.5504,-3.5504,-3.5504,-3.5504,-3.5504,-3.5504,-3.5504,-3.5504,-3.5504,-3.5504,-3.5504,-3.5504,-3.5504,-3.5504,-3.5504,-3.5504,-3.5504,0.0,0.0,0.0,0.0,0.0,0.0,-2.1395,0.0,-2.0483,0.0,0.0,0.0,0.0,0.0,0.0,0.0,0.0,0.0,0.0,0.0,0.0,0.0,0.0,0.0,0.0,0.0,0.0,0.0,-2.7507,-2.7948,-2.9212,-3.03,-3.0904,-3.0961,-3.1726,-3.2272,-3.2586,-3.2299,-3.2299,-3.2586,-3.1853,-3.1511,-3.1511,-3.1899,-3.2617,-3.3514,-3.3903,-3.4607,-3.5554,-3.6306,-3.6615,-3.6661,-3.7291,-3.806,-3.8707,-3.8402,-3.8246,-3.8318,-3.8652,-3.7803,-3.6646,-3.6874,-3.6768,-3.6661,-3.6994,-3.7427,-3.7863,-3.8161,-3.7703,-3.7084,-3.7084,-3.6631,-3.6117,-3.6006,-3.6054,-3.6023,-3.5587,-3.5504,-3.5504,-3.5504,-3.5504,-3.5504,-3.5504,-3.5504,-3.5504,-3.5504,-3.5504,-3.5504,-3.5504,-3.5504,-3.5504,-3.5504,-3.5504,-3.5504,-3.5504,-3.5504,-3.5504,-3.5504,-3.5504,-3.5504,-3.5504,-3.5504,-3.5504,-3.5504,-3.5504,-3.5504,-3.5504,-3.5504,-3.5504,-3.5504,-3.5504,-3.5504,-2.6527,0.0,0.0,0.0,0.0,0.0,0.0,0.0,0.0,0.0,0.0,0.0,0.0,0.0,0.0,0.0,0.0,0.0,0.0,0.0,0.0,0.0,0.0,0.0,0.0,0.0,0.0,0.0,0.0,-2.6287,-2.7512,-2.9089,-3.012,-3.0483,-3.1491,-3.221,-3.2586,-3.241,-3.241,-3.2586,-3.1853,-3.1511,-3.1525,-3.2183,-3.2871,-3.3529,-3.4219,-3.4861,-3.5537,-3.6086,-3.6306,-3.6306,-3.6306,-3.6677,-3.7175,-3.7397,-3.7485,-3.7515,-3.7719,-3.7263,-3.6477,-3.5718,-3.5863,-3.6337,-3.6554,-3.701,-3.7485,-3.7485,-3.7054,-3.6554,-3.6353,-3.6306,-3.6165,-3.5651,-3.5926,-3.6134,-3.5619,-3.5504,-3.5504,-3.5504,-3.5504,-3.5504,-3.5504,-3.5504,-3.5504,-3.5504,-3.5504,-3.5504,-3.5504,-3.5504,-3.5504,-3.5504,-3.5504,-3.5504,-3.5504,-3.5504,-3.5504,-3.5504,-3.5504,-3.5504,-3.5504,-3.5504,-3.5504,-3.5504,-3.5504,-3.5504,-3.5504,-3.5504,-3.5504,-3.5504,-3.5504,-3.5504,0.0,0.0,0.0,-2.4612,0.0,0.0,0.0,0.0,-2.2239,0.0,0.0,0.0,0.0,0.0,0.0,0.0,0.0,0.0,0.0,0.0,0.0,0.0,0.0,0.0,0.0,0.0,0.0,0.0,0.0,0.0,-2.7372,-2.8178,-2.9159,-3.0464,-3.0534,-3.1213,-3.2586,-3.1881,-3.1894,-3.2586,-3.1853,-3.1511,-3.1525,-3.2183,-3.2871,-3.3529,-3.4219,-3.4861,-3.5504,-3.5537,-3.5537,-3.5537,-3.5537,-3.5554,-3.5651,-3.6368,-3.6646,-3.6752,-3.7544,-3.7263,-3.6477,-3.5718,-3.5504,-3.5668,-3.6384,-3.6615,-3.6646,-3.6646,-3.66,-3.6446,-3.5733,-3.5537,-3.5537,-3.5504,-3.5537,-3.5537,-3.5504,-3.5504,-3.5504,-3.5504,-3.5504,-3.5504,-3.5504,-3.5504,-3.5504,-3.5504,-3.5504,-3.5504,-3.5504,-3.5504,-3.5504,-3.5504,-3.5504,-3.5504,-3.5504,-3.5504,-3.5504,-3.5504,-3.5504,-3.5504,-3.5504,-3.5504,-3.5504,-3.5504,-3.5504,-3.5504,-3.5504,-3.5504,-3.5504,-3.5504,-3.5504,-3.5504,0.0,0.0,-3.0672,-2.7136,0.0,0.0,0.0,0.0,0.0,0.0,0.0,0.0,0.0,0.0,0.0,0.0,0.0,0.0,0.0,0.0,0.0,0.0,0.0,0.0,0.0,0.0,0.0,0.0,-2.3135,0.0,0.0,-2.7061,-2.8319,-2.9202,-3.0048,-3.0934,-3.1866,-3.1611,-3.164,-3.1881,-3.1611,-3.1735,-3.2168,-3.2856,-3.3529,-3.4219,-3.4861,-3.5295,-3.5504,-3.5504,-3.5504,-3.5504,-3.5504,-3.5504,-3.5537,-3.5782,-3.5863,-3.5926,-3.6196,-3.6101,-3.5831,-3.5587,-3.5504,-3.5569,-3.5814,-3.5863,-3.5863,-3.5863,-3.5863,-3.5799,-3.5554,-3.5504,-3.5504,-3.5504,-3.5504,-3.5504,-3.5504,-3.5504,-3.5504,-3.5504,-3.5504,-3.5504,-3.5504,-3.5504,-3.5504,-3.5504,-3.5504,-3.5504,-3.5504,-3.5504,-3.5504,-3.5504,-3.5504,-3.5504,-3.5504,-3.5504,-3.5504,-3.5504,-3.5504,-3.5504,-3.5504,-3.5504,-3.5504,-3.5504,-3.5504,-3.5504,-3.5504,-3.5504,-3.5504,-3.5504,-3.5504,-3.5504,-3.1914,-3.2168,0.0,-2.9022,-2.7989,0.0,-2.3789,0.0,0.0,0.0,0.0,0.0,0.0,0.0,0.0,0.0,0.0,0.0,0.0,0.0,0.0,0.0,0.0,0.0,0.0,0.0,-2.0543,-2.1874,-2.1999,0.0,0.0,0.0,-2.752,-2.8869,-2.9744,-3.0612,-3.1496,-3.1511,-3.1511,-3.1511,-3.1511,-3.1854,-3.2512,-3.32,-3.3858,-3.4548,-3.5205,-3.5504,-3.5504,-3.5504,-3.5504,-3.5504,-3.5504,-3.5504,-3.5504,-3.5504,-3.5504,-3.5504,-3.5504,-3.5504,-3.5504,-3.5504,-3.5504,-3.5504,-3.5504,-3.5504,-3.5504,-3.5504,-3.5504,-3.5504,-3.5504,-3.5504,-3.5504,-3.5504,-3.5504,-3.5504,-3.5504,-3.5504,-3.5504,-3.5504,-3.5504,-3.5504,-3.5504,-3.5504,-3.5504,-3.5504,-3.5504,-3.5504,-3.5504,-3.5504,-3.5504,-3.5504,-3.5504,-3.5504,-3.5504,-3.5504,-3.5504,-3.5504,-3.5504,-3.5504,-3.5504,-3.5504,-3.5504,-3.5504,-3.5504,-3.5504,-3.5504,-3.5504,-3.5504,-3.5504,-3.5504,-3.5504]},{"header":{"parameterUnit":"m.s-1","parameterCategory":1,"la1":30.6,"la2":29.2853,"lo1":-89.7004,"lo2":-87.6739,"dy":0.0162,"dx":0.0183,"nx":112,"ny":82,"refTime":"2026-04-13T12:00:00:Z","depth":0,"parameterNumber":3,"parameterNumberName":"V-component_of_WINDS"},"data":[0.0,0.0,0.0,0.0,0.0,0.0,0.0,0.0,0.0,0.0,0.0,0.0,0.0,0.0,0.0,0.0,0.0,0.0,0.0,0.0,0.0,0.0,0.0,0.0,0.0,0.0,0.0,0.0,0.0,0.0,0.0,0.0,0.0,0.0,0.0,0.0,0.0,0.0,0.0,0.0,0.0,0.0,0.0,0.0,0.0,0.0,0.0,0.0,0.0,0.0,0.0,0.0,0.0,0.0,0.0,0.0,0.0,0.0,0.0,0.0,0.0,0.0,0.0,0.0,0.0,0.0,0.0,0.0,0.0,0.0,0.0,0.0,0.0,0.0,0.0,0.0,0.0,0.0,0.0,0.0,0.0,0.0,0.0,0.0,0.0,0.0,0.0,0.0,0.0,0.0,0.0,0.6723,0.8963,1.0321,1.0118,1.1046,1.0859,0.9009,0.0,0.0,0.0,0.0,0.0,0.0,0.0,0.0,0.0,0.0,0.0,0.0,0.0,0.0,0.0,0.0,0.0,0.0,0.0,0.0,0.0,0.0,0.0,0.0,0.0,0.0,0.0,0.0,0.0,0.0,0.0,0.0,0.0,0.0,0.0,0.0,0.0,0.0,0.0,0.0,0.0,0.0,0.0,0.0,0.0,0.0,0.0,0.0,0.0,0.0,0.0,0.0,0.0,0.0,0.0,0.0,0.0,0.0,0.0,0.0,0.0,0.0,0.0,0.0,0.0,0.0,0.0,0.0,0.0,0.0,0.0,0.0,0.0,0.0,0.0,0.0,0.0,0.0,0.0,0.0,0.0,0.0,0.0,0.0,0.0,0.0,0.0,0.0,0.0,0.0,0.0,0.0,0.0,0.0,0.0,0.0,0.0,0.0,0.0,0.0,0.0,0.0,0.0,0.0,0.691,0.8883,1.0182,1.068,1.0157,1.0873,1.066,0.9005,0.0,0.0,0.0,0.0,0.0,0.0,0.0,0.0,0.0,0.0,0.0,0.0,0.0,0.0,0.0,0.0,0.0,0.0,0.0,0.0,0.0,0.0,0.0,0.0,0.0,0.0,0.0,0.0,0.0,0.0,0.0,0.0,0.0,0.0,0.0,0.0,0.0,0.0,0.0,0.0,0.0,0.0,0.0,0.0,0.0,0.0,0.0,0.0,0.0,0.0,0.0,0.0,0.0,0.0,0.0,0.0,0.0,0.0,0.0,0.0,0.0,0.0,0.0,0.0,0.0,0.0,0.0,0.0,0.0,0.0,0.0,0.0,0.0,0.0,0.0,0.0,0.0,0.0,0.0,0.0,0.0,0.0,0.0,0.0,0.0,0.0,0.0,0.0,0.0,0.0,0.0,0.0,0.0,0.0,0.0,0.0,0.0,0.0,0.0,0.0,0.0,0.0,0.0,0.6276,0.7553,0.9401,1.0431,1.0864,1.0564,1.0991,1.0742,0.9411,0.9522,0.0,0.0,0.0,0.0,0.0,0.0,0.0,0.0,0.0,0.0,0.0,0.0,0.0,0.0,0.0,0.0,0.0,0.0,0.0,0.0,0.0,0.0,0.0,0.0,0.0,0.0,0.0,0.0,0.0,0.0,0.0,0.0,0.0,0.0,0.0,0.0,0.0,0.0,0.0,0.0,0.0,0.0,0.0,0.0,0.0,0.0,0.0,0.0,0.0,0.0,0.0,0.0,0.0,0.0,0.0,0.0,0.0,0.0,0.0,0.0,0.0,0.0,0.0,0.0,0.0,0.0,0.0,0.0,0.0,0.0,0.0,0.0,0.0,0.0,0.0,0.0,0.0,0.0,0.0,0.0,0.0,0.0,0.0,0.0,0.0,0.0,0.0,0.0,0.0,0.0,0.0,0.0,0.0,0.0,0.0,0.0,0.0,0.0,0.0,0.0,0.0,0.0,0.7223,0.8122,0.9603,1.0409,1.0848,1.0901,1.0852,1.0509,0.9754,0.9324,0.0,0.0,0.0,0.0,0.0,0.0,0.0,0.0,0.0,0.0,0.0,0.0,0.0,0.0,0.0,0.0,0.0,0.0,0.0,0.0,0.0,0.0,0.0,0.0,0.0,0.0,0.0,0.0,0.0,0.0,0.0,0.0,0.0,0.0,0.0,0.0,0.0,0.0,0.0,0.0,0.0,0.0,0.0,0.0,0.0,0.0,0.0,0.0,0.0,0.0,0.0,0.0,0.0,0.0,0.0,0.0,0.0,0.0,0.0,0.0,0.0,0.0,0.0,0.0,0.0,0.0,0.0,0.0,0.0,0.0,0.0,0.0,0.0,0.0,0.0,0.0,0.0,0.0,0.0,0.0,0.0,0.0,0.0,0.0,0.0,0.0,0.0,0.0,0.0,0.0,0.0,0.0,0.0,0.0,0.0,0.0,0.0,0.0,0.0,0.0,0.0,0.0,0.7731,0.8826,1.0098,1.0302,1.0504,1.0867,0.9996,0.951,0.9693,0.8746,0.0,0.0,0.0,0.0,0.0,0.0,0.0,0.0,0.0,0.0,0.0,0.0,0.0,0.0,0.0,0.0,0.0,0.0,0.0,0.0,0.0,0.0,0.0,0.0,0.0,0.0,0.0,0.0,0.0,0.0,0.0,0.0,0.0,0.0,0.0,0.0,0.0,0.0,0.0,0.0,0.0,0.0,0.0,0.0,0.0,0.0,0.0,0.0,0.0,0.0,0.0,0.0,0.0,0.0,0.0,0.0,0.0,0.0,0.0,0.0,0.0,0.0,0.0,0.0,0.0,0.0,0.0,0.0,0.0,0.0,0.0,0.0,0.0,0.0,0.0,0.0,0.0,0.0,0.0,0.0,0.0,0.0,0.0,0.0,0.0,0.0,0.0,0.0,0.0,0.0,0.0,0.0,0.0,0.0,0.0,0.0,0.0,0.0,0.0,0.0,0.0,0.0,0.7784,0.8879,0.0,1.0303,1.0626,1.1397,1.0443,0.9936,1.0243,0.0,0.0,0.0,0.0,0.0,0.0,0.0,0.0,0.0,0.0,0.0,0.0,0.0,0.0,0.0,0.0,0.0,0.0,0.0,0.0,0.0,0.0,0.0,0.0,0.0,0.0,0.0,0.0,0.0,0.0,0.0,0.0,0.0,0.0,0.0,0.0,0.0,0.0,0.0,0.0,0.0,0.0,0.0,0.0,0.0,0.0,0.0,0.0,0.0,0.0,0.0,0.0,0.0,0.0,0.0,0.0,0.0,0.0,0.0,0.0,0.0,0.0,0.0,0.0,0.0,0.0,0.0,0.0,0.0,0.0,0.0,0.0,0.0,0.0,0.0,0.0,0.0,0.0,0.0,0.0,0.0,0.0,0.0,0.0,0.0,0.0,0.0,0.0,0.0,0.0,0.0,0.0,0.0,0.0,0.0,0.0,0.0,0.0,0.0,0.0,0.0,0.0,0.6763,0.7882,0.9031,0.0,1.0303,1.0717,1.1719,1.0593,1.0067,1.0576,0.0,0.0,0.0,0.0,0.0,0.0,0.0,0.0,0.0,0.0,0.0,0.0,0.0,0.0,0.0,0.0,0.0,0.0,0.0,0.0,0.0,0.0,0.0,0.0,0.0,0.0,0.0,0.0,0.0,0.0,0.0,0.0,0.0,0.0,0.0,0.0,0.0,0.0,0.0,0.0,0.0,0.0,0.0,0.0,0.0,0.0,0.0,0.0,0.0,0.0,0.0,0.0,0.0,0.0,0.0,0.0,0.0,0.0,0.0,0.0,0.0,0.0,0.0,0.0,0.0,0.0,0.0,0.0,0.0,0.0,0.0,0.0,0.0,0.0,0.0,0.0,0.0,0.0,0.0,0.0,0.0,0.0,0.0,0.0,0.0,0.0,0.0,0.0,0.0,0.0,0.0,0.0,0.0,0.0,0.0,0.0,0.0,0.0,0.0,0.0,0.0,0.0,0.6789,0.8126,0.9336,1.0215,1.0303,1.0697,1.1719,1.0261,0.9677,0.0,0.0,0.0,0.0,0.0,0.0,0.0,0.0,0.0,0.0,0.0,0.0,0.0,0.0,0.0,0.0,0.0,0.0,0.0,0.0,0.0,0.0,0.0,0.0,0.0,0.0,0.0,0.0,0.0,0.0,0.0,0.0,0.0,0.0,0.0,0.0,0.0,0.0,0.0,0.0,0.0,0.0,0.0,0.0,0.0,0.0,0.0,0.0,0.0,0.0,0.0,0.0,0.0,0.0,0.0,0.0,0.0,0.0,0.0,0.0,0.0,0.0,0.0,0.0,0.0,0.0,0.0,0.0,0.0,0.0,0.0,0.0,0.0,0.0,0.0,0.0,0.0,0.0,0.0,0.0,0.0,0.0,0.0,0.0,0.0,0.0,0.0,0.0,0.0,0.0,0.0,0.0,0.0,0.0,0.0,0.0,0.0,0.0,0.0,0.0,0.0,0.0,0.0,0.6789,0.8126,0.9336,1.0215,1.0303,1.0553,1.1188,1.0401,0.9856,0.9828,0.0,0.0,0.0,0.0,0.0,0.0,0.0,0.0,0.0,0.0,0.0,0.0,0.0,0.0,0.0,0.0,0.0,0.0,0.0,0.0,0.0,0.0,0.0,0.0,0.0,0.0,0.0,0.0,0.0,0.0,0.0,0.0,0.0,0.0,0.0,0.0,0.0,0.0,0.0,0.0,0.0,0.0,0.0,0.0,0.0,0.0,0.0,0.0,0.0,0.0,0.0,0.0,0.0,0.0,0.0,0.0,0.0,0.0,0.0,0.0,0.0,0.0,0.0,0.0,0.0,0.0,0.0,0.0,0.0,0.0,0.0,0.0,0.0,0.0,0.0,0.0,0.0,0.0,0.0,0.0,0.0,0.0,0.0,0.0,0.0,0.0,0.0,0.0,0.0,0.0,0.0,0.0,0.0,0.0,0.0,0.0,0.0,0.0,0.0,0.0,0.0,0.0,0.676,0.7996,0.9149,1.0186,1.0303,1.0486,1.0962,1.0452,0.9924,0.9527,0.0,0.0,0.0,0.0,0.0,0.0,0.0,0.0,0.0,0.0,0.0,0.0,0.0,0.0,0.0,0.0,0.0,0.0,0.0,0.0,0.0,0.0,0.0,0.0,0.0,0.0,0.0,0.0,0.0,0.0,0.0,0.0,0.0,0.0,0.0,0.0,0.0,0.0,0.0,0.0,0.0,0.0,0.0,0.0,0.0,0.0,0.0,0.0,0.0,0.0,0.0,0.0,0.0,0.0,0.0,0.0,0.0,0.0,0.0,0.0,0.0,0.0,0.0,0.0,0.0,0.0,0.0,0.0,0.0,0.0,0.0,0.0,0.0,0.0,0.0,0.0,0.0,0.0,0.0,0.0,0.0,0.0,0.0,0.0,0.0,0.0,0.0,0.0,0.0,0.0,0.0,0.0,0.0,0.0,0.0,0.0,0.0,0.0,0.0,0.0,0.0,0.0,0.668,0.7762,0.8901,1.0099,1.0283,1.0467,1.0905,1.0383,0.99,0.9506,0.0,0.0,0.0,0.0,0.0,0.0,0.0,0.0,0.0,0.0,0.0,0.0,0.0,0.0,0.0,0.0,0.0,0.0,0.0,0.0,0.0,0.0,0.0,0.0,0.0,0.0,0.0,0.0,0.0,0.0,0.0,0.0,0.0,0.0,0.0,0.0,0.0,0.0,0.0,0.0,0.0,0.0,0.0,0.0,0.0,0.0,0.0,0.0,0.0,0.0,0.0,0.0,0.0,0.0,0.0,0.0,0.0,0.0,0.0,0.0,0.6263,0.0,0.0,0.0,0.0,0.0,0.0,0.0,0.0,0.0,0.0,0.0,0.0,0.0,0.0,0.0,0.0,0.0,0.0,0.0,0.0,0.0,0.0,0.0,0.0,0.0,0.0,0.0,0.0,0.0,0.0,0.0,0.0,0.0,0.0,0.0,0.0,0.0,0.0,0.0,0.0,0.0,0.6188,0.7706,0.8965,0.9602,1.004,1.0341,1.0448,0.9997,0.9595,0.9363,0.8573,0.0,0.0,0.0,0.0,0.0,0.0,0.0,0.0,0.0,0.0,0.0,0.0,0.0,0.0,0.0,0.0,0.0,0.0,0.0,0.0,0.0,0.0,0.0,0.0,0.0,0.0,0.0,0.0,0.0,0.0,0.0,0.0,0.0,0.0,0.0,0.0,0.0,0.0,0.0,0.0,0.0,0.0,0.0,0.0,0.0,0.0,0.0,0.0,0.0,0.0,0.0,0.0,0.0,0.0,0.0,0.0,0.0,0.0,0.0,0.0,0.67,0.0,0.0,0.0,0.0,0.0,0.0,0.0,0.0,0.0,0.0,0.0,0.0,0.0,0.0,0.0,0.0,0.0,0.0,0.0,0.0,0.0,0.0,0.0,0.0,0.0,0.0,0.0,0.0,0.0,0.0,0.0,0.0,0.0,0.0,0.0,0.0,0.0,0.0,0.0,0.0,0.619,0.7367,0.8485,0.9394,0.9745,1.002,1.0283,1.0049,0.9636,0.9055,0.8741,0.0,0.0,0.0,0.0,0.0,0.0,0.0,0.0,0.0,0.0,0.0,0.0,0.0,0.0,0.0,0.0,0.0,0.0,0.0,0.0,0.0,0.0,0.0,0.0,0.0,0.0,0.0,0.0,0.0,0.0,0.0,0.0,0.0,0.0,0.0,0.0,0.0,0.0,0.0,0.0,0.0,0.0,0.0,0.0,0.0,0.0,0.0,0.0,0.0,0.0,0.0,0.0,0.0,0.8611,0.8904,0.9112,0.9112,0.9245,0.9371,0.8145,0.7662,0.7701,0.749,0.0,0.0,0.0,0.0,0.0,0.0,0.0,0.0,0.0,0.0,0.0,0.0,0.0,0.0,0.0,0.0,0.0,0.0,0.0,0.0,0.0,0.0,0.0,0.0,0.7423,0.7687,0.0,0.0,0.0,0.0,0.0,0.0,0.0,0.0,0.0,0.0,0.0,0.0,0.6325,0.7063,0.7968,0.9224,0.9439,0.9716,1.0264,1.017,0.976,0.9012,0.8988,0.8563,0.0,0.0,0.0,0.0,0.0,0.0,0.0,0.0,0.0,0.0,0.0,0.0,0.0,0.0,0.0,0.0,0.0,0.0,0.0,0.0,0.0,0.0,0.0,0.0,0.0,0.0,0.0,0.0,0.0,0.0,0.0,0.0,0.652,0.658,0.0,0.0,0.0,0.0,0.0,0.0,0.0,0.0,0.0,0.0,0.0,0.0,0.0,0.8072,0.8911,0.9239,0.9539,0.9804,1.0157,1.0325,1.0358,1.0358,1.0385,1.0405,1.0211,0.0,0.8604,0.8344,0.0,0.0,0.0,0.0,0.0,0.0,0.0,0.0,0.0,0.0,0.0,0.0,0.0,0.0,0.0,0.0,0.0,0.0,0.0,0.0,0.0,0.0,0.7771,0.7742,0.7819,0.7802,0.0,0.6939,0.6649,0.6714,0.5935,0.0,0.0,0.0,0.0,0.0,0.0,0.0,0.6179,0.7177,0.8085,0.8736,0.9219,0.9716,1.0264,0.992,0.9778,0.9984,0.8885,0.8453,0.8919,0.8256,0.0,0.0,0.0,0.0,0.0,0.0,0.0,0.0,0.0,0.0,0.0,0.0,0.0,0.0,0.0,0.0,0.0,0.0,0.0,0.0,0.0,0.0,0.0,0.0,0.0,0.0,0.0,0.0,0.0,0.6146,0.6713,0.6889,0.7386,0.7492,0.0,0.0,0.0,0.0,0.0,0.0,0.0,0.0,0.0,0.8898,0.9051,0.9397,0.998,1.0274,1.0481,1.0615,1.0902,1.1049,1.1049,1.1049,1.1049,1.1049,1.1049,1.0661,0.9987,0.9394,0.8851,0.843,0.0,0.0,0.0,0.0,0.8139,0.807,0.8404,0.8323,0.0,0.7702,0.0,0.0,0.0,0.0,0.0,0.0,0.0,0.0,0.0,0.0,0.7945,0.8143,0.8025,0.7912,0.7993,0.7679,0.7243,0.0,0.657,0.6223,0.5539,0.0,0.0,0.0,0.0,0.609,0.6378,0.699,0.7731,0.8614,0.8918,0.9379,1.0225,1.0107,0.9967,0.9874,0.9501,0.9077,0.86,0.8755,0.8328,0.0,0.0,0.0,0.0,0.0,0.0,0.0,0.0,0.0,0.0,0.0,0.0,0.0,0.0,0.0,0.0,0.0,0.0,0.0,0.0,0.0,0.0,0.0,0.0,0.0,0.0,0.0,0.0,0.6508,0.7041,0.7335,0.7972,0.8108,0.0,0.0,0.0,0.0,0.0,0.0,0.8445,0.8978,0.9526,1.0114,1.0341,1.0668,1.1149,1.137,1.1483,1.1563,1.1784,1.1848,1.1848,1.1848,1.1848,1.1877,1.1797,1.1597,1.1256,1.0381,0.9846,0.9524,0.9339,0.9259,0.9279,0.9499,0.9364,0.9205,0.9639,0.9599,0.9257,0.8851,0.0,0.847,0.7772,0.0,0.0,0.0,0.0,0.8114,0.8317,0.8352,0.8392,0.8564,0.8405,0.8258,0.8382,0.8257,0.7936,0.0,0.7228,0.6977,0.5936,0.0,0.0,0.0,0.0,0.6392,0.666,0.6867,0.7433,0.8574,0.8695,0.9139,1.0205,1.0303,1.0146,0.9806,0.9943,0.9586,0.853,0.9038,0.8808,0.7658,0.0,0.0,0.0,0.0,0.0,0.0,0.0,0.0,0.0,0.0,0.0,0.0,0.0,0.0,0.0,0.0,0.0,0.0,0.0,0.0,0.0,0.0,0.0,0.0,0.0,0.0,0.0,0.0,0.0,0.8295,0.8804,0.0,0.0,0.0,0.0,0.8717,0.9252,0.9699,0.9963,1.0332,1.0774,1.1289,1.1322,1.177,1.267,1.269,1.2844,1.31,1.3113,1.312,1.312,1.312,1.312,1.3106,1.2844,1.2549,1.2171,1.1289,1.0787,1.0526,1.0506,1.0506,1.0506,1.0519,1.0307,1.0053,1.0087,0.9907,0.9659,0.9626,0.9426,0.9164,0.9111,0.9098,0.0,0.0,0.9339,0.9601,0.9593,0.9599,0.9532,0.9231,0.9158,0.8998,0.8516,0.8577,0.8724,0.0,0.7734,0.7066,0.7259,0.0,0.6282,0.6506,0.6566,0.6673,0.694,0.6993,0.7433,0.8574,0.8695,0.9139,1.0205,1.0303,1.0293,1.0273,0.9853,0.9591,0.953,0.9146,0.8888,0.8812,0.8255,0.0,0.0,0.0,0.0,0.0,0.0,0.0,0.0,0.0,0.0,0.0,0.0,0.0,0.0,0.0,0.0,0.0,0.0,0.0,0.0,0.0,0.0,0.0,0.0,0.0,0.0,0.0,0.0,0.9392,0.965,0.0,0.9816,0.9903,0.9963,0.9963,1.0474,1.0848,1.0922,1.1631,1.2094,1.2308,1.2472,1.2726,1.3039,1.3046,1.31,1.3213,1.3213,1.3213,1.3213,1.3213,1.3213,1.32,1.3093,1.2986,1.2859,1.2552,1.1904,1.1116,1.1116,1.1116,1.1116,1.1116,1.1049,1.0929,1.0929,1.0856,1.0775,1.0588,1.02,0.977,0.977,0.9673,0.9526,0.9526,0.9599,0.9715,0.9715,0.9715,0.9659,0.9552,0.9526,0.9412,0.8991,0.8984,0.8938,0.8565,0.8306,0.7936,0.7259,0.7228,0.7134,0.666,0.6747,0.6886,0.6986,0.7,0.7433,0.8574,0.8695,0.9139,1.0205,1.0303,1.0303,1.0303,0.9854,0.9479,0.9217,0.9024,0.8598,0.7949,0.8107,0.7689,0.0,0.0,0.0,0.0,0.0,0.0,0.0,0.0,0.0,0.0,0.0,0.0,0.0,0.0,0.0,0.0,0.0,0.0,0.0,0.0,0.0,0.0,0.0,0.0,0.0,0.0,0.9285,1.016,1.0441,1.0635,1.0835,1.0975,1.1115,1.1316,1.165,1.1917,1.1988,1.2585,1.2985,1.3085,1.3247,1.3407,1.3507,1.3507,1.3507,1.3507,1.3507,1.3507,1.3507,1.3507,1.3507,1.35,1.34,1.3313,1.3347,1.3253,1.2746,1.2024,1.2024,1.1964,1.187,1.187,1.1744,1.1563,1.1422,1.1389,1.1362,1.1202,1.0875,1.0523,1.0523,1.0421,1.0247,1.0154,1.0157,1.0131,1.0037,1.001,0.9983,0.9853,0.9826,0.9746,0.9424,0.9284,0.9098,0.8744,0.8664,0.8377,0.7459,0.7639,0.7706,0.7134,0.7114,0.7168,0.7168,0.7257,0.7669,0.8594,0.8857,0.9339,1.0225,1.0303,1.0303,1.0303,1.001,0.9581,0.9023,0.8967,0.8552,0.7718,0.785,0.7497,0.6626,0.0,0.0,0.0,0.0,0.0,0.0,0.0,0.0,0.0,0.0,0.0,0.0,0.0,0.0,0.0,0.0,0.0,0.0,0.0,0.0,0.0,0.0,0.0,0.8844,0.9606,1.0274,1.0606,1.1122,1.1435,1.1449,1.1744,1.2181,1.2757,1.2804,1.2945,1.3206,1.3233,1.3367,1.3606,1.3626,1.3766,1.4095,1.4108,1.4115,1.4115,1.4115,1.4115,1.4115,1.4108,1.4102,1.4082,1.3746,1.362,1.3593,1.3353,1.324,1.324,1.322,1.3026,1.2797,1.2797,1.2435,1.1893,1.1557,1.1415,1.1415,1.1415,1.1415,1.1409,1.1409,1.1395,1.1335,1.1089,1.1009,1.0942,1.068,1.0606,1.0526,1.02,1.0134,1.0053,0.976,0.9444,0.9237,0.9224,0.8791,0.8328,0.7972,0.7943,0.7936,0.7929,0.7721,0.0,0.7558,0.7759,0.8134,0.8671,0.9217,0.9744,1.0264,1.0322,1.0312,1.0303,1.0273,0.9892,0.9053,0.9004,0.8762,0.8308,0.7587,0.6934,0.6329,0.0,0.0,0.0,0.0,0.0,0.0,0.0,0.0,0.0,0.0,0.0,0.0,0.0,0.0,0.0,0.0,0.0,0.0,0.0,0.0,0.0,0.9446,0.976,0.976,1.0483,1.1256,1.1764,1.2194,1.2472,1.2699,1.2792,1.2913,1.3073,1.328,1.3393,1.348,1.3728,1.3881,1.3961,1.4168,1.4322,1.4402,1.4616,1.4767,1.4767,1.4767,1.4767,1.476,1.4502,1.4402,1.4389,1.4095,1.3968,1.3961,1.3881,1.3848,1.3801,1.338,1.316,1.308,1.308,1.2878,1.2502,1.2164,1.2058,1.2058,1.2058,1.1917,1.175,1.175,1.1597,1.1375,1.1295,1.1309,1.1236,1.0949,1.0875,1.0834,1.0539,1.0472,1.0392,1.006,0.9903,0.9784,0.9599,0.9259,0.8818,0.8337,0.8655,0.8902,0.8669,0.8552,0.0,0.878,0.844,0.8581,0.9602,0.9861,1.015,1.0692,1.0742,1.0605,1.0322,0.9697,0.9385,0.9435,0.8877,0.8501,0.8373,0.7834,0.7407,0.0,0.0,0.0,0.0,0.0,0.0,0.0,0.0,0.0,0.0,0.0,0.0,0.0,0.0,0.0,0.0,0.0,0.0,0.0,0.0,0.0,0.0,1.0346,1.0895,1.1015,1.147,1.2011,1.2612,1.2832,1.306,1.332,1.3353,1.344,1.3567,1.3848,1.3973,1.3973,1.4295,1.4499,1.4499,1.4616,1.4703,1.4703,1.4877,1.5008,1.5008,1.5008,1.5008,1.5001,1.4783,1.4703,0.0,1.4529,1.4382,1.4269,1.4269,1.4195,0.0,0.0,0.0,0.0,0.0,1.3093,1.2958,1.2746,1.2685,1.2665,1.2569,1.2409,1.2248,1.212,1.1931,1.1735,1.1643,1.161,1.1543,1.1249,1.1082,1.0949,1.0814,1.068,1.0546,1.0341,1.0207,1.0037,0.99,0.9907,0.0,0.9278,0.9406,0.9495,0.93,0.9414,0.9524,0.9476,0.9237,0.9253,0.9789,1.0047,1.0312,1.0624,1.0645,0.0,0.0,0.0,0.957,0.9592,0.8994,0.0,0.0,0.0,0.0,0.0,0.0,0.0,0.0,0.6821,0.6847,0.0,0.0,0.0,0.0,0.0,0.0,0.0,0.0,0.0,0.0,0.0,0.0,0.0,0.0,0.0,0.0,1.1243,1.212,1.2405,1.2452,1.2652,1.3193,1.3293,1.3407,1.3626,1.368,1.3813,1.4115,1.4402,1.4569,1.4569,0.0,0.0,0.0,0.0,1.5062,1.5062,1.5095,1.5109,1.5109,1.5109,1.5109,1.5109,1.5075,1.5062,1.5055,1.5022,1.481,1.4569,1.4569,1.4396,1.4135,1.4102,1.3928,1.362,1.3367,1.326,1.3253,1.322,0.0,0.0,1.3079,1.2925,1.2775,1.2722,1.2583,1.2428,1.217,1.2096,1.1986,1.1584,1.1283,1.1076,1.1009,1.0827,1.0633,1.06,1.0385,1.0167,1.0167,1.0586,1.084,1.0464,1.0246,1.0084,1.002,1.0326,1.0425,1.0031,1.0123,1.0101,0.978,0.0,0.0,1.0371,1.0371,1.0352,1.0303,1.0303,1.0088,0.9612,0.9299,0.9131,0.9065,0.9072,0.9053,0.9004,0.9004,0.9023,0.9043,0.8038,0.7898,0.0,0.0,0.0,0.0,0.0,0.0,0.0,0.0,0.0,0.0,0.0,0.0,0.0,0.0,0.0,1.1417,1.2154,1.2804,1.3267,1.334,1.3387,1.3507,1.3774,1.3941,1.3995,1.4208,1.4332,1.4436,1.471,1.4877,1.4877,1.4981,1.5008,1.5008,1.519,1.5311,1.5311,1.5545,1.5665,1.5665,0.0,0.0,1.5651,1.5418,1.5311,1.5297,1.5109,1.4975,1.4877,1.4877,1.4703,1.4409,1.4175,1.4048,1.3968,1.3626,1.352,1.3487,1.3293,1.3213,1.3312,1.4154,1.3698,1.3106,1.4661,1.4342,0.0,1.3382,1.336,1.3114,1.207,1.1779,1.1618,1.1109,1.0949,1.0842,1.064,1.0546,1.0506,1.0506,1.0877,1.1188,1.1129,1.1595,1.1851,1.146,1.1479,1.1571,1.1691,1.1283,1.104,1.1176,1.1297,1.1193,1.082,1.0791,1.0645,1.0322,1.0303,1.0088,0.9612,0.9893,0.9863,0.9503,0.9476,0.9328,0.9004,0.9004,0.9162,0.9474,0.894,0.8754,0.0,0.0,0.0,0.0,0.0,0.0,0.0,0.0,0.0,0.0,0.0,1.0379,1.0632,0.0,1.1658,1.2248,1.2844,1.33,1.356,1.3733,1.3868,1.3868,1.4001,1.4142,1.4289,1.4436,1.4583,1.473,1.5017,1.5177,1.5177,1.5317,1.5398,1.5398,1.5538,1.5611,1.5611,1.5711,1.5784,1.5784,1.5784,1.5784,1.5778,1.5678,1.5611,1.5605,1.5464,1.5311,1.517,1.5068,1.4921,1.471,1.4416,1.4215,1.4068,1.3921,1.3868,1.3841,1.3701,1.4001,1.4527,1.4905,1.4969,1.5019,1.5863,1.545,1.4637,1.4168,1.3872,1.3455,1.2372,1.2013,1.1792,1.1316,1.1096,1.0915,1.0653,1.0593,1.0713,1.1108,1.1706,1.2216,1.2422,1.3126,1.3298,1.2306,1.2267,1.23,1.2206,1.1906,1.1666,1.1602,1.1389,1.1143,1.0928,1.0713,1.0508,1.0312,1.0303,1.0186,0.9971,1.0185,1.0186,0.9961,0.9961,0.9853,0.9648,0.9648,0.9756,0.9951,0.9736,0.9648,0.0,0.0,0.0,0.0,0.0,0.0,0.0,0.0,1.1929,1.2011,1.2153,1.2119,1.1676,1.2078,1.2579,1.2911,1.3373,1.3686,1.3686,1.3935,1.4088,1.4088,1.4088,1.4202,1.4489,1.4569,1.473,1.5068,1.5317,1.5478,1.5478,1.5705,1.5784,1.5784,1.5784,1.5784,1.5784,1.5784,1.5784,1.5784,1.5784,1.5784,1.5784,1.5784,1.5784,1.5784,1.5784,1.5698,1.5464,1.5224,1.5142,1.5068,1.4783,1.4476,1.4204,1.4348,1.4412,1.4412,1.4412,1.5095,1.5988,1.5761,1.6246,1.691,1.703,1.6679,1.6012,1.4956,1.4405,1.382,1.2606,1.2131,1.1948,1.1784,1.1601,1.1393,1.122,1.1168,1.1336,1.1903,1.2696,1.3331,1.3654,1.4317,1.4328,1.2913,1.2887,1.2852,1.2389,1.233,1.2187,1.176,1.1377,1.1073,1.0907,1.0518,1.0303,1.0303,1.0303,1.0303,1.0303,1.0303,1.0303,1.0303,1.0303,1.0303,1.0303,1.0303,1.0303,1.0303,1.0303,1.0303,1.1692,1.0919,1.0625,1.1706,1.1748,1.2025,0.0,0.0,1.3003,1.3186,1.2986,1.2683,1.2265,1.2699,1.32,1.3453,1.3821,1.4041,1.4041,1.4068,1.4088,1.4088,1.4088,1.4202,1.4489,1.4763,1.5082,1.5324,1.5618,1.5785,1.5785,1.5764,1.5784,1.5784,1.5784,1.5784,1.5784,1.5784,1.5784,1.5784,1.5784,1.5784,1.5784,1.5784,1.5784,1.5784,1.5784,1.5764,1.5731,1.5698,1.5578,1.5344,1.5311,1.4957,1.4522,1.528,1.5538,1.5538,1.5538,1.6232,1.7123,1.709,1.7005,1.7234,1.8995,1.8667,1.7372,1.6012,1.5593,1.5048,1.2875,1.2278,1.2396,1.2931,1.3073,1.3078,1.3244,1.3258,1.3192,1.2913,1.3515,1.4076,1.412,1.4506,1.4492,1.353,1.3416,1.3281,1.2861,1.2812,1.2637,1.2184,1.2086,1.1745,1.0977,1.0518,1.0303,1.0303,1.0303,1.0303,1.0303,1.0303,1.0303,1.0303,1.0303,1.0303,1.0303,1.0303,1.0303,1.0303,1.0303,1.0303,1.3232,1.2793,1.2632,0.0,1.3574,1.418,1.5596,1.5532,1.5093,1.4739,1.4691,1.4369,1.3272,1.3434,1.3761,0.0,1.4148,1.4489,1.4957,1.5169,1.5423,1.5899,1.5959,1.5634,1.4862,1.5492,1.5847,1.5658,1.5758,1.5784,1.5784,1.5784,1.5784,1.5784,1.5784,1.5784,1.5784,1.5784,1.5784,1.5784,1.5784,1.5784,1.5784,1.5784,1.5784,1.5784,1.5784,1.5784,1.5784,1.5784,1.5711,1.5631,1.5464,1.5244,1.5015,1.5009,1.4888,1.4776,1.4776,1.5876,1.7302,1.7302,1.8108,1.9203,2.0053,1.9716,1.8676,1.6704,1.5996,1.5279,1.2919,1.2305,1.2481,1.313,1.3294,1.3355,1.3566,1.36,1.3618,1.3683,1.3974,1.4362,1.4815,1.5032,1.4951,1.4346,1.3828,1.335,1.2954,1.2905,1.2715,1.2252,1.2203,1.1853,1.0966,1.0752,1.0547,1.0322,1.0303,1.0303,1.0303,1.0303,1.0303,1.0303,1.0303,1.0303,1.0303,1.0303,1.0303,1.0303,1.0303,1.0303,1.4192,1.4104,1.4221,1.4699,1.5284,1.6005,1.6999,1.7223,1.6958,1.6085,1.6271,1.6144,1.4497,1.4628,1.4901,1.4573,1.4779,1.5119,1.5624,1.5938,1.64,1.7212,1.7585,1.7252,1.5914,1.6287,1.6475,1.6166,1.592,1.5784,1.5784,1.5784,1.5784,1.5784,1.5784,1.5784,1.5784,1.5784,1.5784,1.5784,1.5784,1.5784,1.5784,1.5784,1.5784,1.5784,1.5784,1.5784,1.5784,1.5784,1.5784,1.5758,1.5598,1.5471,1.5344,1.4917,1.469,1.4655,1.4655,1.6035,1.7698,1.7415,1.8789,2.0605,2.0605,2.0342,1.9611,1.7204,1.6263,1.5425,1.3045,1.2365,1.2574,1.3588,1.3808,1.3992,1.4528,1.4647,1.4665,1.4717,1.4706,1.4887,1.5313,1.541,1.5264,1.4844,1.4258,1.3662,1.3125,1.2983,1.2764,1.2418,1.2281,1.195,1.1307,1.1162,1.0908,1.0478,1.0479,1.042,1.0303,1.0303,1.0303,1.0303,1.0303,1.0303,1.0303,1.0303,1.0303,1.0303,1.0303,1.0303,1.4114,1.4104,1.4513,1.62,1.6638,1.6989,1.8256,1.8539,1.8192,1.694,1.7506,1.7713,1.595,1.647,1.6846,1.582,1.5888,1.5985,1.5748,1.5938,1.64,1.7212,1.827,1.8628,0.0,1.7051,1.6684,1.6927,1.6253,1.5784,1.5784,1.5784,1.5784,1.5784,1.5784,1.5784,1.5784,1.5784,1.5784,1.5784,1.5784,1.5784,1.5784,1.5784,1.5784,1.5784,1.5784,1.5784,1.5784,1.5784,1.5784,1.5784,1.5771,1.5645,1.5391,1.5378,1.5648,1.6039,1.6039,1.7326,1.8758,1.7666,1.8789,2.0605,2.0605,2.0595,2.0052,1.7562,1.6646,1.5818,1.3404,1.2556,1.2769,1.4684,1.5147,1.5539,1.6949,1.7278,1.7048,1.6211,1.6035,1.5908,1.5459,1.541,1.5264,1.4844,1.4793,1.4443,1.3594,1.3135,1.2895,1.2886,1.2457,1.2194,1.2164,1.1797,1.1379,1.0918,1.0868,1.0713,1.0322,1.0303,1.0303,1.0303,1.0303,1.0303,1.0303,1.0303,1.0303,1.0303,1.0303,1.0303,1.4492,1.5167,1.6044,1.6943,1.7588,1.8217,1.9221,1.9446,1.9143,1.7982,1.8044,1.7807,1.6187,1.621,1.6173,1.5425,1.6371,1.7122,1.6812,1.8128,1.9244,1.9463,2.005,0.0,0.0,0.0,0.0,1.7071,1.6726,1.6344,1.5818,1.5784,1.5784,1.5784,1.5784,1.5784,1.5784,1.5784,1.5784,1.5784,1.5784,1.5784,1.5784,1.5784,1.6251,1.699,1.6157,1.6749,1.8118,1.6473,1.6292,1.699,1.6109,1.5718,1.5685,1.5685,1.5655,1.559,1.5434,1.6609,1.816,1.7747,1.8963,2.0605,2.0605,2.0605,2.0062,1.7579,1.6838,1.616,1.3701,1.2864,1.3112,1.5008,1.5336,1.5591,1.7097,1.7383,1.7207,1.6621,1.6269,1.6046,1.5899,1.5605,1.5264,1.4844,1.4307,1.3828,1.3545,1.3145,1.2905,1.2905,1.2754,1.2549,1.2233,1.2067,1.1816,1.1389,1.1359,1.1164,1.0713,1.0703,1.0566,1.0312,1.0303,1.0303,1.0303,1.0303,1.0303,1.0303,1.0303,1.0303,1.5547,1.6436,1.733,1.8105,1.8691,1.9277,1.999,2.0029,1.9562,1.8334,1.8263,1.7923,1.6433,1.6476,1.6424,1.5537,1.692,1.7977,1.759,1.9218,2.0609,2.1013,2.1152,2.1142,0.0,0.0,0.0,1.7575,1.7304,1.6807,1.5866,1.5784,1.5784,1.5784,1.5784,1.5784,1.5784,1.5784,1.5784,1.5784,1.5784,1.5784,1.5784,1.5784,1.6244,1.6998,1.6157,1.6702,1.8025,1.6473,1.6574,1.7544,1.6292,1.6332,1.7023,1.615,1.5987,1.6107,1.5399,1.6132,1.7331,1.7247,1.8292,1.9666,1.9921,1.9756,1.9091,1.7474,1.6682,1.5866,1.3874,1.314,1.3373,1.517,1.5482,1.5752,1.7283,1.7607,1.748,1.7051,1.6738,1.6467,1.6144,1.5703,1.5322,1.5049,1.4414,1.3857,1.3545,1.3271,1.3071,1.2925,1.2905,1.2773,1.249,1.2461,1.2275,1.1848,1.1797,1.1602,1.1183,1.1143,1.1036,1.0762,1.0606,1.0508,1.0508,1.0371,1.0303,1.0303,1.0303,1.0303,1.721,1.7754,1.8398,1.9609,1.9932,2.0049,2.0478,2.0195,1.9447,1.8008,1.8112,1.8075,1.6635,0.0,1.7502,1.6242,1.7566,1.8593,1.8079,1.9191,2.0521,0.0,0.0,0.0,0.0,0.0,0.0,1.8491,0.0,1.7203,1.5967,1.592,1.5872,1.5784,1.5872,1.5872,1.5784,1.5784,1.5784,1.5784,1.5784,1.5784,1.5784,1.5784,1.5832,1.5872,1.5832,1.5872,1.5967,1.592,1.6669,1.7684,1.6473,1.7436,1.9214,1.6835,1.6756,1.7546,1.6061,1.6014,1.6565,1.6245,1.695,1.8054,1.8789,1.8256,1.7399,1.7302,1.6323,1.5087,1.3981,1.3528,1.3729,1.5333,1.5708,1.611,1.7674,1.8008,1.7891,1.749,1.7402,1.7132,1.6251,1.5723,1.5439,1.5391,1.5068,1.4512,1.3682,1.3535,1.335,1.2983,1.2915,1.2905,1.2905,1.2905,1.2705,1.2262,1.2242,1.2038,1.1655,1.1636,1.1626,1.1606,1.1152,1.0947,1.0937,1.0557,1.0371,1.0371,1.0371,1.0371,1.7705,1.8623,1.9502,1.9834,2.0156,2.038,2.0127,1.9746,1.9078,1.7734,1.7321,1.6886,1.5823,1.6413,0.0,1.6387,1.8461,0.0,1.8079,1.9644,0.0,2.0539,0.0,2.1095,2.1812,2.2168,0.0,0.0,1.9118,1.8138,1.7257,1.7225,1.6763,1.5832,1.6709,1.6763,1.5832,1.5784,1.5784,1.5784,1.5784,1.5784,1.5784,1.5784,1.6339,1.7178,1.6204,1.6842,1.8488,1.7584,1.7956,1.8993,1.8672,1.8948,1.9405,1.881,1.8764,1.8848,1.7541,1.7013,1.6892,1.6803,1.7961,1.9435,1.9343,1.9177,1.8789,1.7612,1.6497,1.5535,1.5255,1.498,1.5166,1.6769,1.6986,1.7,1.7821,1.8008,1.7978,1.7871,1.7598,1.7132,1.6251,1.5997,1.5811,1.5459,1.5322,1.5059,1.4531,1.3906,1.3467,1.3359,1.3066,1.2905,1.2905,1.2905,1.2856,1.2725,1.2715,1.252,1.208,1.2061,1.1904,1.1606,1.1477,1.1418,1.1418,1.1332,1.1273,1.1273,1.1273,1.1273,1.873,1.9512,2.0195,2.0195,2.0244,2.0117,1.9502,1.9081,1.8498,1.7219,1.6598,1.6066,1.5393,1.5742,0.0,0.0,0.0,0.0,1.8957,1.9927,2.0873,0.0,2.0948,0.0,2.2304,2.2646,2.2472,0.0,2.0616,1.9499,1.8534,1.8503,1.7902,1.6662,1.7318,1.7365,1.6622,1.7163,1.7436,1.7436,1.6889,1.6622,1.6622,1.6062,1.6204,1.681,0.0,1.6608,1.7848,1.7731,1.8411,1.9497,1.9497,2.0133,2.0944,1.9906,1.9852,2.0124,1.891,1.8324,1.7985,1.7296,1.7867,1.8877,1.9324,1.9206,1.8798,1.8213,1.7253,1.6396,1.6396,1.6296,1.6461,1.7661,1.7693,1.756,1.8126,1.81,1.8008,1.8008,1.7666,1.7227,1.676,1.6349,1.6007,1.5732,1.5537,1.5322,1.5088,1.4482,1.3926,1.3545,1.3301,1.3076,1.2925,1.2905,1.2905,1.2905,1.2905,1.2773,1.2529,1.252,1.2393,1.2171,1.1976,1.1855,1.1855,1.1704,1.1606,1.1606,1.1879,1.1986,1.9873,2.0273,2.0595,2.0537,2.0156,1.959,1.8646,1.8285,1.7761,1.6493,0.0,1.5398,1.5002,1.5149,1.5434,1.5767,0.0,1.9487,2.0103,2.0123,2.0781,2.2635,2.1636,2.1379,2.2965,2.3091,2.3091,2.3091,2.212,2.1025,1.9807,1.9716,1.9268,1.8234,1.8002,1.7963,1.7963,1.9001,1.9497,1.9497,1.828,1.7692,1.7645,1.6386,1.5784,1.5784,1.5784,0.0,1.592,1.7358,1.8549,1.9534,1.9852,2.1266,2.2862,2.0764,2.0621,2.1391,2.0169,1.9716,1.9484,1.7992,1.762,1.799,1.936,1.9081,1.8421,1.8936,1.8224,1.7334,1.7496,1.7536,1.7686,1.8374,1.8261,1.811,1.8527,1.8266,1.8008,1.8008,1.7715,1.7451,1.7393,1.678,1.6232,1.6114,1.5742,1.5478,1.542,1.5049,1.4502,1.376,1.3623,1.3418,1.2998,1.2993,1.2964,1.2905,1.2905,1.2905,1.2905,1.2905,1.2905,1.2905,1.251,1.2291,1.2291,1.1946,1.1817,1.1895,1.2431,1.2711,2.0273,2.0546,2.0517,2.0117,1.9707,1.9082,1.7881,1.7413,0.0,0.0,1.4961,1.4495,1.4094,1.4502,1.5255,1.636,1.811,1.9459,1.9978,0.0,2.0831,0.0,0.0,0.0,0.0,0.0,0.0,0.0,0.0,2.2262,2.1069,2.098,2.089,2.0666,1.9724,1.9177,1.9177,1.9405,1.9497,1.9497,1.828,1.7692,1.7645,1.6386,1.5784,1.5784,1.5784,0.0,1.5967,1.8257,1.9314,1.9724,2.1676,2.2731,2.3047,2.2633,2.2589,2.2633,2.1391,2.098,2.0783,1.9505,1.9796,2.0562,2.0513,2.0198,1.9764,1.9543,1.8432,1.7504,1.847,1.8718,1.8858,1.9469,1.959,1.9358,1.8728,1.8266,1.8008,1.8008,1.7949,1.7793,1.7451,1.7256,1.6936,1.6202,1.6026,1.585,1.5459,1.5049,1.4727,1.458,1.4238,1.3831,1.3437,1.3398,1.3252,1.2925,1.2905,1.2905,1.2905,1.2905,1.2905,1.2905,1.2827,1.2773,1.2773,1.2719,1.2936,1.3421,1.3537,1.3827,2.0429,2.0605,2.0498,2.0019,1.9424,1.8615,1.7448,0.0,0.0,0.0,1.5178,1.4862,1.4373,1.4658,0.0,1.5899,1.6924,1.8186,0.0,0.0,0.0,0.0,0.0,0.0,0.0,0.0,0.0,0.0,0.0,2.2862,2.2262,2.1658,2.1293,2.1293,2.0755,2.044,2.044,2.1078,2.1364,2.1355,2.0133,1.9579,1.9488,1.763,1.6803,1.6763,1.6109,0.0,1.6943,1.8764,1.9852,2.0621,2.2403,2.3091,2.3091,2.3091,2.3091,2.3003,2.2448,2.2262,2.2129,2.1543,2.1346,2.1354,2.1556,2.1518,2.1268,2.0605,1.9913,1.9429,1.9743,1.9835,1.9914,2.0188,2.0078,1.964,1.8783,1.8442,1.8237,1.8047,1.8008,1.7949,1.7744,1.7529,1.7269,1.6848,1.6388,1.6016,1.5781,1.5381,1.5029,1.4805,1.46,1.4297,1.3851,1.3802,1.3627,1.3232,1.3203,1.3105,1.2915,1.2905,1.2905,1.2905,1.2905,1.2905,1.2905,1.2905,1.3214,1.3815,1.412,1.4595,2.0341,2.0537,2.0478,1.9912,1.9104,1.8183,1.7123,1.6657,0.0,1.5726,1.561,1.541,1.4812,1.483,1.5016,0.0,1.5801,1.7073,0.0,0.0,0.0,0.0,0.0,0.0,0.0,0.0,0.0,0.0,0.0,0.0,2.3091,2.2217,2.1712,2.1712,2.1712,2.1712,2.1712,2.2633,2.3091,2.3101,2.1889,2.1293,2.1248,1.9093,1.7963,1.7645,1.6936,0.0,0.0,1.9268,2.044,2.1436,2.2633,2.3091,2.3091,2.3091,2.3091,2.3091,2.3091,2.3091,2.3091,2.3091,2.2448,2.1789,2.2433,2.2588,2.2353,2.1551,2.1268,2.1093,2.0684,2.0605,2.0605,2.0605,2.0234,1.9727,1.9017,1.8724,1.851,1.8178,1.8076,1.8008,1.8008,1.7734,1.749,1.7393,1.6829,1.631,1.6114,1.5791,1.5391,1.4961,1.4922,1.4746,1.428,1.425,1.4065,1.3636,1.3617,1.3496,1.3164,1.3066,1.3042,1.3042,1.3066,1.3041,1.2905,1.3152,1.3539,1.4003,1.4595,1.522,1.9853,2.0264,2.041,1.9551,1.8701,1.7773,1.6701,0.0,1.5955,1.5666,1.561,1.541,1.4812,1.4564,1.4548,1.4808,0.0,1.7262,0.0,0.0,0.0,0.0,0.0,0.0,0.0,0.0,0.0,0.0,0.0,0.0,2.3091,2.3003,2.295,2.295,2.295,2.295,2.295,2.3047,2.3091,2.3101,2.1889,2.1293,2.1248,1.9943,1.8726,1.7731,1.8718,0.0,0.0,2.0169,2.1203,2.1436,2.2633,2.3091,2.3091,2.3091,2.3091,2.3091,2.3091,2.3091,2.3091,2.3091,2.3003,2.295,2.2999,2.2769,2.2412,2.1953,2.1543,2.1093,2.0684,2.0605,2.0605,2.0605,2.0234,1.9893,1.9814,1.9153,1.8588,1.8549,1.8237,1.8008,1.8008,1.7978,1.7822,1.7441,1.7314,1.7005,1.6193,1.6056,1.587,1.54,1.5352,1.5186,1.4756,1.4727,1.4541,1.4075,1.4046,1.4036,1.3997,1.3652,1.3447,1.3447,1.3614,1.3443,1.2905,1.4001,1.4571,1.4629,1.5231,1.5842,1.9658,2.0039,2.0029,1.9434,1.8457,1.7529,1.704,0.0,1.6033,1.6116,1.6139,1.5854,1.488,1.4622,1.4456,1.409,1.4238,1.501,1.6709,0.0,0.0,0.0,0.0,0.0,0.0,0.0,0.0,0.0,0.0,0.0,2.3091,2.3091,2.3091,2.3091,2.3091,2.3091,2.3091,2.3091,2.3091,2.3091,2.2633,2.2403,2.235,2.1123,2.0305,1.9852,1.9633,0.0,0.0,2.089,2.1712,2.2448,2.2906,2.3091,2.3091,2.3091,2.3091,2.3091,2.3091,2.3091,2.3091,2.3091,2.3091,2.3091,2.3091,2.2974,2.2711,2.207,2.1768,2.1465,2.0791,2.0605,2.0605,2.0605,2.0478,2.0234,1.9971,1.9443,1.8955,1.8656,1.8301,1.8008,1.8008,1.8008,1.7959,1.7793,1.7549,1.7256,1.6936,1.6631,1.6299,1.588,1.5566,1.5342,1.5176,1.5156,1.498,1.4551,1.4521,1.4377,1.4114,1.3948,1.386,1.386,1.4057,1.4032,1.3807,1.4401,1.4698,1.4698,1.532,1.572,1.9376,1.9706,1.9637,1.932,1.8323,1.7438,0.0,1.6736,1.6155,1.6435,1.65,1.6194,1.5152,1.4812,1.4473,1.3715,1.3397,1.3799,1.5381,1.6475,0.0,0.0,0.0,0.0,0.0,0.0,0.0,0.0,0.0,0.0,2.3091,2.3091,2.3091,2.3091,2.3091,2.3091,2.3091,2.3091,2.3091,2.3091,2.3091,2.3091,2.3047,2.2217,2.1658,2.1293,2.0764,0.0,0.0,2.1712,2.235,2.3091,2.3091,2.3091,2.3091,2.3091,2.3091,2.3091,2.3091,2.3091,2.3091,2.3091,2.3091,2.3091,2.3091,2.3091,2.2945,2.2275,2.1885,2.1514,2.0801,2.0605,2.0605,2.0605,2.0605,2.0517,2.0176,1.9775,1.9385,1.9036,1.8539,1.8159,1.8159,1.8086,1.8008,1.8008,1.7764,1.7529,1.7435,1.7119,1.6758,1.6309,1.5869,1.5557,1.542,1.541,1.5283,1.499,1.4971,1.4834,1.4494,1.4367,1.4397,1.463,1.4815,1.495,1.4985,1.5493,1.5544,1.517,1.5995,1.6371,1.8953,1.9218,1.9252,1.9137,1.835,1.7636,1.7679,1.6973,1.6347,1.6483,1.65,1.6303,1.5698,1.5096,1.4502,1.3897,1.3962,1.457,1.5909,1.7178,0.0,0.0,0.0,0.0,0.0,0.0,0.0,0.0,0.0,0.0,2.3091,2.3091,2.3091,2.3091,2.3091,2.3091,2.3091,2.3091,2.3091,2.3091,2.3091,2.3091,2.3091,2.3101,2.2448,0.0,0.0,0.0,0.0,2.2589,2.3101,2.3091,2.3091,2.3091,2.3091,2.3091,2.3091,2.3091,2.3091,2.3091,2.3091,2.3091,2.3091,2.3091,2.3091,2.3091,2.3003,2.2627,2.1853,2.1093,2.0723,2.0605,2.0605,2.0605,2.0605,2.0605,2.0595,2.0215,1.9902,1.9902,1.9173,1.8598,1.8598,1.8247,1.8008,1.8008,1.8008,1.7852,1.7432,1.7416,1.7207,1.6746,1.6328,1.5909,1.5449,1.541,1.541,1.5371,1.5371,1.5371,1.54,1.5,1.5144,1.5879,1.6089,1.6252,1.6389,1.7593,1.7472,1.6216,1.7557,1.8168,1.8169,1.8594,1.8776,1.8387,1.7578,1.6967,1.7129,1.6714,1.6347,1.6483,1.65,1.6315,1.5698,1.5096,1.47,1.4689,1.4365,0.0,0.0,0.0,0.0,0.0,0.0,0.0,0.0,0.0,0.0,0.0,0.0,0.0,2.3091,2.3091,2.3091,2.3091,2.3091,2.3091,2.3091,2.3091,2.3091,2.3091,2.3091,2.3091,2.3091,2.3091,2.2906,0.0,0.0,0.0,0.0,2.295,2.3091,2.3091,2.3091,2.3091,2.3091,2.3091,2.3091,2.3091,2.3091,2.3091,2.3091,2.3091,2.3091,2.3091,2.3091,2.3091,2.2945,2.2285,2.167,2.1093,2.0684,2.0605,2.0605,2.0605,2.0605,2.0605,2.0605,2.0225,1.9912,1.9912,1.9463,1.8984,1.8656,1.849,1.8305,1.8057,1.8008,1.7959,1.7832,1.7812,1.7646,1.7227,1.7051,1.6692,1.5948,1.5586,1.541,1.541,1.541,1.541,1.541,1.5283,1.532,1.5567,1.6251,1.6618,1.6681,1.769,1.7978,1.7569,1.707,1.7506,1.7754,1.8,1.8129,1.7891,1.7272,1.6772,1.7039,1.6713,1.6322,1.619,1.6173,1.6051,1.5676,1.4915,1.4479,1.4878,1.4348,1.4221,0.0,0.0,0.0,0.0,0.0,0.0,0.0,0.0,0.0,0.0,0.0,0.0,2.3091,2.3091,2.3091,2.3091,2.3091,2.3091,2.3091,2.3091,2.3091,2.3091,2.3091,2.3091,2.3091,2.3091,2.3091,0.0,0.0,0.0,0.0,2.3091,2.3091,2.3091,2.3091,2.3091,2.3091,2.3091,2.3091,2.3091,2.3091,2.3091,2.3091,2.3091,2.3091,2.3091,2.3091,2.3091,2.2916,2.2129,2.1689,2.1338,2.0762,2.0605,2.0605,2.0605,2.0605,2.0605,2.0605,2.0352,2.0156,2.0156,1.9814,1.9434,1.9134,1.8812,1.851,1.8247,1.8115,1.8008,1.8008,1.8008,1.791,1.7646,1.748,1.7191,1.6643,1.6036,1.5586,1.542,1.541,1.541,1.541,1.541,1.5526,1.5806,1.6649,1.7227,1.752,1.7816,1.8264,1.8782,1.7382,1.7648,0.0,1.7451,1.7364,1.7559,1.7257,1.6943,1.7266,1.6911,0.0,1.5776,1.5654,1.5688,1.5724,1.4709,1.4082,1.4751,1.4177,0.0,0.0,0.0,0.0,0.0,0.0,0.0,0.0,0.0,0.0,0.0,0.0,0.0,2.3091,2.3091,2.3091,2.3091,2.3091,2.3091,2.3091,2.3091,2.3091,2.3091,2.3091,2.3091,2.3091,2.3091,2.3091,0.0,0.0,0.0,0.0,2.3091,2.3091,2.3091,2.3091,2.3091,2.3091,2.3091,2.3091,2.3091,2.3091,2.3091,2.3091,2.3091,2.3091,2.3091,2.3091,2.3091,2.2925,2.2158,2.1904,2.1689,2.0869,2.0625,2.0605,2.0605,2.0605,2.0605,2.0605,2.0605,2.0605,2.0605,2.0244,1.9951,1.9922,1.9212,1.8685,1.8656,1.8286,1.8057,1.8057,1.8027,1.8008,1.8008,1.7666,1.7422,1.7383,1.6604,1.5919,1.5488,1.543,1.541,1.541,1.5439,1.5806,1.6492,1.7285,1.8031,1.8768,1.8031,1.8421,1.9773,1.8328,1.8447,1.6779,0.0,1.7276,1.6886,1.6675,1.6618,0.0,1.6588,1.6457,1.6315,1.6281,1.6417,1.6896,1.5612,1.4879,1.6098,1.5552,1.5274,0.0,0.0,0.0,0.0,0.0,0.0,0.0,0.0,0.0,0.0,0.0,2.3091,2.3091,2.3091,2.3091,2.3091,2.3091,2.3091,2.3091,2.3091,2.3091,2.3091,2.3091,2.3091,2.3091,2.3091,2.3091,0.0,0.0,0.0,2.3091,2.3091,2.3091,2.3091,2.3091,2.3091,2.3091,2.3091,2.3091,2.3091,2.3091,2.3091,2.3091,2.3091,2.3091,2.3091,2.3091,2.3091,2.2984,2.251,2.2139,2.1768,2.1221,2.082,2.0605,2.0605,2.0605,2.0605,2.0605,2.0605,2.0605,2.0605,2.0517,2.0303,1.9971,1.9746,1.9502,1.918,1.8769,1.8451,1.8451,1.8178,1.8008,1.8008,1.792,1.7734,1.7445,1.6604,1.6046,1.5948,1.5596,1.541,1.541,1.595,1.6312,1.6492,1.7797,1.8794,1.9527,1.8794,1.89,1.9773,1.8874,1.8927,1.607,1.6559,1.6911,1.6575,1.65,1.65,1.65,1.65,1.6423,1.6139,0.0,1.6105,1.6151,1.5301,1.4888,1.5871,1.5665,0.0,0.0,0.0,0.0,0.0,0.0,0.0,0.0,0.0,0.0,0.0,0.0,2.3091,2.3091,2.3091,2.3091,2.3091,2.3091,2.3091,2.3091,2.3091,2.3091,2.3091,2.3091,2.3091,2.3091,2.3091,2.3091,0.0,0.0,0.0,2.3091,2.3091,2.3091,2.3091,2.3091,2.3091,2.3091,2.3091,2.3091,2.3091,2.3091,2.3091,2.3091,2.3091,2.3091,2.3091,2.3091,2.3091,2.3013,2.2627,2.2344,2.2031,2.1356,2.1055,2.082,2.0654,2.0605,2.0605,2.0605,2.0605,2.0605,2.0605,2.0605,2.0527,2.0254,2.0049,1.9834,1.9609,1.9209,1.8822,1.8627,1.8403,1.8188,1.8037,1.8008,1.792,1.7686,1.7416,1.7174,1.6972,1.7107,1.7198,1.7198,1.7345,1.7459,1.7495,1.8286,1.9071,1.9798,1.9071,1.9097,1.9773,1.9044,1.9097,1.5643,1.6137,1.6466,1.638,1.6358,1.6358,1.6358,0.0,0.0,0.0,0.0,1.5591,1.5154,1.4851,0.0,0.0,0.0,0.0,0.0,0.0,0.0,0.0,0.0,0.0,0.0,0.0,0.0,0.0,0.0,2.3091,2.3091,2.3091,2.3091,2.3091,2.3091,2.3091,2.3091,2.3091,2.3091,2.3091,2.3091,2.3091,2.3091,2.3091,2.3091,2.3091,0.0,0.0,2.3091,2.3091,2.3091,2.3091,2.3091,2.3091,2.3091,2.3091,2.3091,2.3091,2.3091,2.3091,2.3091,2.3091,2.3091,2.3091,2.3091,2.3091,2.3023,2.2705,2.2568,2.2334,2.1492,2.1239,2.1083,2.0713,2.0605,2.0605,2.0605,2.0605,2.0605,2.0605,2.0605,2.0605,2.0605,2.0254,2.0019,2.0019,1.9658,1.9248,1.8841,1.8744,1.8609,1.8316,1.8164,1.8178,1.8371,1.8714,1.8828,1.8619,1.9033,1.9331,1.9449,1.9021,1.8853,1.9006,1.9006,1.9261,1.9798,1.9176,1.9202,1.9798,1.9261,1.9336,1.612,1.6437,1.638,1.5864,1.5754,1.5754,1.5754,1.5754,0.0,0.0,0.0,0.0,0.0,1.6196,1.5999,0.0,0.0,0.0,0.0,0.0,0.0,0.0,0.0,0.0,0.0,0.0,0.0,0.0,0.0,2.3091,2.3091,2.3091,2.3091,2.3091,2.3091,2.3091,2.3091,2.3091,2.3091,2.3091,2.3091,2.3091,2.3091,2.3091,2.3091,2.3091,0.0,2.3091,2.3091,2.3091,2.3091,2.3091,2.3091,2.3091,2.3091,2.3091,2.3091,2.3091,2.3091,2.3091,2.3091,2.3091,2.3091,2.3091,2.3091,2.3091,2.3081,2.3013,2.274,2.2402,2.1914,2.1514,2.1083,2.0713,2.0605,2.0605,2.0605,2.0605,2.0605,2.0605,2.0605,2.0605,2.0605,2.0546,2.0507,2.0507,2.0098,1.9795,1.9727,1.9404,1.929,1.9586,1.8944,1.8956,2.0107,2.0267,2.0572,2.1269,2.0049,1.9579,2.0221,2.0138,2.0205,2.0405,2.0393,2.0209,1.9798,1.9695,1.9695,1.9811,2.0221,2.0446,1.5329,1.563,1.5707,1.5958,1.6218,1.6244,1.5579,1.5635,1.5889,0.0,0.0,0.0,0.0,0.0,1.6924,0.0,0.0,0.0,0.0,0.0,0.0,0.0,0.0,0.0,0.0,0.0,0.0,0.0,0.0,0.0,2.3091,2.3091,2.3091,2.3091,2.3091,2.3091,2.3091,2.3091,2.3091,2.3091,2.3091,2.3091,2.3091,2.3091,2.3091,2.3091,0.0,2.3091,2.3091,2.3091,2.3091,2.3091,2.3091,2.3091,2.3091,2.3091,2.3091,2.3091,2.3091,2.3091,2.3091,2.3091,2.3091,2.3091,2.3091,2.3091,2.3091,2.3091,2.2955,2.2711,2.2334,2.207,2.1758,2.1084,2.0928,2.0859,2.0654,2.0605,2.0605,2.0605,2.0605,2.0605,2.0605,2.0605,2.0605,2.0605,2.0869,2.0978,2.0744,2.1032,2.1218,2.1152,2.0799,2.0674,2.0995,2.1449,2.1973,2.2519,2.1789,2.139,2.1432,2.142,2.1317,2.1157,2.1131,2.1006,2.0715,2.0715,2.0715,2.0727,2.0991,2.1131,1.4947,1.5074,1.5114,1.614,1.6586,1.6609,1.6091,1.5975,1.6131,0.0,0.0,0.0,0.0,1.6763,0.0,0.0,0.0,0.0,0.0,0.0,0.0,0.0,0.0,0.0,0.0,0.0,0.0,0.0,0.0,0.0,2.3091,2.3091,2.3091,2.3091,2.3091,2.3091,2.3091,2.3091,2.3091,2.3091,2.3091,2.3091,2.3091,2.3091,2.3091,2.3091,2.3091,2.3091,2.3091,2.3091,2.3091,2.3091,2.3091,2.3091,2.3091,2.3091,2.3091,2.3091,2.3091,2.3091,2.3091,2.3091,2.3091,2.3091,2.3091,2.3091,2.3091,2.3091,2.3091,2.3003,2.2617,2.251,2.2324,2.1572,2.1268,2.1103,2.0791,2.0674,2.0605,2.0605,2.0605,2.0605,2.0605,2.0605,2.0605,2.0605,2.1413,2.1912,2.1592,2.2426,2.2952,2.2708,2.2479,2.2241,2.191,2.256,2.3079,2.3303,2.3183,2.292,2.2493,2.2498,2.2246,2.1694,2.1681,2.1619,2.1493,2.1493,2.1493,2.1493,2.1619,2.1681,1.5957,1.562,1.5074,1.6122,1.605,1.6098,1.7563,1.6901,1.6449,1.8063,0.0,0.0,0.0,0.0,0.0,0.0,0.0,0.0,0.0,0.0,0.0,0.0,0.0,0.0,0.0,0.0,0.0,0.0,0.0,0.0,2.3091,2.3091,2.3091,2.3091,2.3091,2.3091,2.3091,2.3091,2.3091,2.3091,2.3091,2.3091,2.3091,2.3091,2.3091,2.3091,2.3091,2.3091,2.3091,2.3091,2.3091,2.3091,2.3091,2.3091,2.3091,2.3091,2.3091,2.3091,2.3091,2.3091,2.3091,2.3091,2.3091,2.3091,2.3091,2.3091,2.3091,2.3091,2.3091,2.3003,2.2617,2.251,2.2402,2.1943,2.1533,2.1181,2.1151,2.0859,2.0605,2.0605,2.0605,2.0605,2.0605,2.0605,2.0605,2.0605,2.1413,2.1979,2.1947,2.2833,2.3604,2.4013,2.3316,2.2971,2.3323,2.3683,2.3917,2.3941,2.3396,2.3083,2.3045,2.3045,2.2782,2.2259,2.2246,2.1995,2.1493,2.1493,2.1493,2.1493,2.202,2.2246,1.5655,1.5678,1.5611,1.6597,1.6858,1.6929,1.7013,1.7088,1.7331,1.806,1.8716,0.0,0.0,0.0,0.0,0.0,0.0,0.0,0.0,0.0,0.0,0.0,0.0,0.0,0.0,0.0,0.0,0.0,0.0,0.0,0.0,2.3091,2.3091,2.3091,2.3091,2.3091,2.3091,2.3091,2.3091,2.3091,2.3091,2.3091,2.3091,2.3091,2.3091,2.3091,2.3091,2.3091,2.3091,2.3091,2.3091,2.3091,2.3091,2.3091,2.3091,2.3091,2.3091,2.3091,2.3091,2.3091,2.3091,2.3091,2.3091,2.3091,2.3091,2.3091,2.3091,2.3091,2.3091,2.3062,2.2896,2.2857,2.275,2.2373,2.2148,2.1843,2.1307,2.1064,2.1086,2.1397,2.1479,2.1479,2.1479,2.1479,2.126,2.0683,2.1924,2.2925,2.2925,2.4361,2.5426,2.5625,2.5008,2.4648,2.4788,2.4613,2.4506,2.4506,2.3609,2.3108,2.3108,2.3108,2.3007,2.2794,2.2794,2.2694,2.2481,2.2481,2.2481,2.2493,2.2694,2.2794,1.5512,1.557,1.5645,1.6598,1.7143,1.7349,1.7048,1.7511,1.8163,1.8867,1.9239,1.9616,2.0149,0.0,0.0,0.0,0.0,0.0,0.0,0.0,0.0,0.0,0.0,0.0,0.0,0.0,0.0,0.0,0.0,0.0,0.0,2.3091,2.3091,2.3091,2.3091,2.3091,2.3091,2.3091,2.3091,2.3091,2.3091,2.3091,2.3091,2.3091,2.3091,2.3091,2.3091,2.3091,2.3091,2.3091,2.3091,2.3091,2.3091,2.3091,2.3091,2.3091,2.3091,2.3091,2.3091,2.3091,2.3091,2.3091,2.3091,2.3091,2.3091,2.3091,2.3091,2.3091,2.3091,2.3091,2.3091,2.3091,2.3023,2.274,2.2607,2.2353,2.1726,2.1798,2.2019,2.2376,2.2609,2.274,2.274,2.2311,2.1773,2.1155,2.244,2.3514,2.3514,2.524,2.6499,2.6499,2.6135,2.5875,2.5875,2.5372,2.5059,2.5059,2.4148,2.3559,2.3384,2.3195,2.3108,2.3108,2.3108,2.3108,2.3108,2.3108,2.3108,2.3108,2.3108,2.3108,1.5693,1.5261,1.5047,1.6044,0.0,0.0,1.8062,1.8297,1.8878,2.0798,2.0185,1.9578,2.0446,0.0,0.0,0.0,0.0,0.0,0.0,0.0,0.0,0.0,0.0,0.0,0.0,0.0,0.0,0.0,0.0,0.0,0.0,2.3091,2.3091,2.3091,2.3091,2.3091,2.3091,2.3091,2.3091,2.3091,2.3091,2.3091,2.3091,2.3091,2.3091,2.3091,2.3091,2.3091,2.3091,2.3091,2.3091,2.3091,2.3091,2.3091,2.3091,2.3091,2.3091,2.3091,2.3091,2.3091,2.3091,2.3091,2.3091,2.3091,2.3091,2.3091,2.3091,2.3091,2.3091,2.3091,2.3091,2.3091,2.3091,2.3091,2.2822,2.2519,2.251,2.3042,2.3503,2.3492,2.3934,2.4329,2.4329,2.3064,2.2038,2.2038,2.2898,2.3514,2.3514,2.5276,2.6499,2.6499,2.6499,2.6499,2.6499,2.5971,2.5598,2.5598,2.5109,2.4582,2.4029,2.3421,2.312,2.312,2.312,2.312,2.312,2.312,2.312,2.312,2.312,2.312,1.5186,1.5207,1.5437,1.5789,0.0,0.0,0.0,1.8951,0.0,0.0,2.1189,2.0518,2.1416,0.0,0.0,0.0,0.0,0.0,0.0,0.0,0.0,0.0,0.0,0.0,0.0,0.0,0.0,0.0,0.0,0.0,0.0,2.3091,2.3091,2.3091,2.3091,2.3091,2.3091,2.3091,2.3091,2.3091,2.3091,2.3091,2.3091,2.3091,2.3091,2.3091,2.3091,2.3091,2.3091,2.3091,2.3091,2.3091,2.3091,2.3091,2.3091,2.3091,2.3091,2.3091,2.3091,2.3091,2.3091,2.3091,2.3091,2.3091,2.3091,2.3091,2.3091,2.3091,2.3091,2.3091,2.3091,2.3091,2.3091,2.3091,2.3003,2.2828,2.2578,2.3296,2.4096,2.4471,2.5283,2.5913,2.5913,2.5547,2.4876,2.3774,2.4465,2.524,2.5583,2.6129,2.6499,2.6499,2.6499,2.6499,2.6499,2.6336,2.6235,2.6235,2.5674,2.5121,2.4562,2.4374,2.4299,2.4299,2.4299,2.4299,2.4299,2.4299,2.4299,2.4299,2.4299,2.4299,1.5164,1.566,1.629,1.6222,1.7187,1.8333,1.8972,0.0,0.0,0.0,0.0,2.0789,2.1336,0.0,0.0,0.0,0.0,0.0,0.0,0.0,0.0,0.0,0.0,0.0,0.0,0.0,0.0,0.0,0.0,0.0,0.0,2.3091,2.3091,2.3091,2.3091,2.3091,2.3091,2.3091,2.3091,2.3091,2.3091,2.3091,2.3091,2.3091,2.3091,2.3091,2.3091,2.3091,2.3091,2.3091,2.3091,2.3091,2.3091,2.3091,2.3091,2.3091,2.3091,2.3091,2.3091,2.3091,2.3091,2.3091,2.3091,2.3091,2.3091,2.3091,2.3091,2.3091,2.3091,2.3091,2.3091,2.3091,2.3091,2.3091,2.3091,2.3023,2.2769,2.361,2.4667,2.5443,2.6283,2.7026,2.7428,2.6669,2.5803,2.5301,2.554,2.6046,2.6712,2.6625,2.6499,2.6499,2.6499,2.6499,2.6499,2.6499,2.6499,2.6499,2.6172,2.5799,2.5485,2.5059,2.4788,2.4788,2.4788,2.4788,2.4788,2.4788,2.4788,2.4788,2.4788,2.4788,1.5409,1.6287,1.7231,1.7109,1.7958,0.0,1.9796,2.0596,2.1064,2.0742,0.0,2.0664,0.0,0.0,0.0,0.0,0.0,0.0,0.0,0.0,0.0,0.0,0.0,0.0,0.0,0.0,0.0,0.0,0.0,0.0,0.0,2.3042,2.3052,2.3091,2.3091,2.3091,2.3091,2.3091,2.3091,2.3091,2.3091,2.3091,2.3091,2.3091,2.3091,2.3091,2.3091,2.3091,2.3091,2.3091,2.3091,2.3091,2.3091,2.3091,2.3091,2.3091,2.3091,2.3091,2.3091,2.3091,2.3091,2.3091,2.3091,2.3091,2.3091,2.3091,2.3091,2.3091,2.3091,2.3091,2.3091,2.3091,2.3091,2.3091,2.3091,2.3091,2.3091,2.4006,2.5126,2.6141,2.6909,2.7666,2.8521,2.681,2.5611,2.6522,2.6294,2.6348,2.7249,2.6952,2.665,2.665,2.66,2.6562,2.6562,2.6524,2.6499,2.6499,2.6499,2.6499,2.6499,2.5498,2.4938,2.4938,2.4938,2.4938,2.4938,2.4938,2.4938,2.4938,2.4938,2.4938,1.5078,1.5591,0.0,1.7423,1.8652,1.978,2.0311,2.0576,2.0781,2.1035,2.1094,0.0,0.0,0.0,0.0,0.0,0.0,0.0,0.0,0.0,0.0,0.0,0.0,0.0,0.0,0.0,0.0,0.0,0.0,0.0,2.2627,2.2646,2.275,2.3081,2.3091,2.3091,2.3091,2.3091,2.3091,0.0,2.3091,2.3091,2.3091,2.3091,2.3091,2.3091,2.3091,2.3091,2.3091,2.3091,2.3091,2.3091,2.3091,2.3091,2.3091,2.3091,2.3091,2.3091,2.3091,2.3091,2.3091,2.3091,2.3091,2.3091,2.3091,2.3091,2.3091,2.3091,2.3091,2.3091,2.3091,2.3091,2.3091,2.3091,2.3091,2.3091,2.3091,2.4006,2.4872,2.5126,2.6646,2.773,2.7129,2.7237,2.7372,2.7165,2.7407,2.769,2.7885,2.7821,2.7758,2.7758,2.7369,2.714,2.714,2.6738,2.6499,2.6499,2.6499,2.6499,2.6499,2.6273,2.6135,2.6135,2.6135,2.6135,2.6135,2.6135,2.6135,2.6135,2.6135,2.6135,1.5485,0.0,0.0,1.9028,0.0,2.0537,2.0575,2.0605,2.0674,2.0869,0.0,0.0,0.0,0.0,0.0,0.0,0.0,0.0,0.0,0.0,0.0,0.0,0.0,0.0,0.0,0.0,0.0,0.0,0.0,2.1982,2.2197,2.2207,2.2314,2.2529,2.2691,2.2789,2.2789,2.2994,2.3091,2.3091,2.3091,2.3091,2.3091,2.3091,2.3091,2.3091,2.3091,2.3091,2.3091,2.3091,2.3091,2.3091,2.3091,2.3091,2.3091,2.3091,2.3091,2.3091,2.3091,2.3091,2.3091,2.3091,2.3091,2.3091,2.3091,2.3091,2.3091,2.3091,2.3091,2.3091,2.3091,2.3091,2.3091,2.3091,2.3091,2.3091,2.3091,2.3551,2.4168,2.4702,2.5734,2.6532,2.6513,2.74,2.8001,2.7727,2.8133,2.8461,2.8461,2.8273,2.8109,2.8109,2.7846,2.767,2.767,2.7419,2.7291,2.7291,2.7291,2.7291,2.7291,2.7027,2.6763,2.6499,2.6499,2.6499,2.6499,2.6499,2.6499,2.6499,2.6499,2.6499,1.5836,0.0,1.9289,2.0394,2.0941,0.0,2.0811,2.0663,2.0644,0.0,0.0,0.0,0.0,0.0,0.0,0.0,0.0,0.0,0.0,0.0,0.0,0.0,0.0,0.0,0.0,0.0,0.0,0.0,0.0,2.1689,2.1768,2.1777,2.1807,2.1885,2.2217,2.2402,2.2402,2.2711,2.2877,2.2877,2.2955,2.3023,2.3091,2.3091,2.3091,2.3091,2.3091,2.3091,2.3091,2.3091,2.3091,2.3091,2.3091,2.3091,2.3091,2.3091,2.3091,2.3091,2.3091,2.3091,2.3091,2.3091,2.3091,2.3091,2.3091,2.3091,2.3091,2.3091,2.3091,2.3091,2.3091,2.3091,2.3091,2.3091,2.3091,2.3091,2.3091,2.3091,2.3387,2.4339,2.45,2.4925,2.6265,2.725,2.7896,2.8084,2.8635,2.9076,2.9076,2.8687,2.8398,2.8398,2.831,2.8247,2.8247,2.816,2.8109,2.8109,2.8109,2.8109,2.8109,2.767,2.7241,2.6788,2.6587,2.6499,2.6499,2.6499,2.6499,2.6499,2.6499,2.6499,1.5042,0.0,1.92,0.0,2.0264,2.1219,0.0,0.0,0.0,0.0,0.0,0.0,0.0,0.0,0.0,0.0,0.0,0.0,0.0,0.0,0.0,0.0,0.0,0.0,0.0,0.0,0.0,0.0,2.0957,2.0908,2.1259,2.1278,2.1494,2.1875,2.1943,2.1973,2.1973,2.2021,2.2051,2.206,2.2422,2.274,2.3091,2.3091,2.3091,2.3091,2.3091,2.3091,2.3091,2.3091,2.3091,2.3091,2.3091,2.3091,2.3091,2.3091,2.3091,2.3091,2.3091,2.3091,2.3091,2.3091,2.3091,2.3091,2.3091,2.3091,2.3091,2.3091,2.3091,2.3091,2.3091,2.3091,2.3091,2.3091,2.3091,2.3091,2.3091,2.3091,2.3135,2.3299,2.3343,2.4016,2.6141,2.6637,2.7046,2.7964,2.9005,2.9679,2.9679,2.9616,2.9566,2.9566,2.9114,2.8787,2.8787,2.8386,2.8109,2.8109,2.8109,2.8109,2.8109,2.8034,2.7959,2.7883,2.6977,2.6499,2.6499,2.6499,2.6499,2.6499,2.6499,2.6499,1.6393,1.8116,1.9689,0.0,2.1028,2.1449,2.1311,0.0,0.0,0.0,0.0,0.0,0.0,0.0,0.0,0.0,0.0,0.0,0.0,0.0,0.0,0.0,0.0,0.0,0.0,0.0,0.0,0.0,2.0713,2.0693,2.085,2.0859,2.0947,2.1182,2.1387,2.1523,2.1523,2.1768,2.1885,2.1885,2.207,2.2383,2.274,2.274,2.2877,2.3091,2.3091,2.3091,2.3091,2.3091,2.3091,2.3091,2.3091,2.3091,2.3091,2.3091,2.3091,2.3091,2.3091,2.3091,2.3091,2.3091,2.3091,2.3091,2.3091,2.3091,2.3091,2.3091,2.3091,2.3091,2.3091,2.3091,2.3091,2.3091,2.3091,2.3091,2.3091,2.3091,2.3309,2.392,2.4049,2.4755,2.7035,2.6883,2.7098,2.8779,2.9495,2.9792,2.9792,2.9792,2.9792,2.9792,2.9566,2.9415,2.9415,2.9189,2.9051,2.9051,2.9051,2.9051,2.9051,2.8737,2.8561,2.8561,2.7783,2.7381,2.7381,2.7102,2.6952,2.6952,2.6637,2.6499,0.0,0.0,1.9294,2.0604,2.1214,2.1418,0.0,0.0,0.0,0.0,0.0,0.0,0.0,0.0,0.0,0.0,0.0,0.0,0.0,0.0,0.0,0.0,0.0,0.0,0.0,0.0,0.0,0.0,2.0605,2.0605,2.0605,2.0605,2.0605,2.0605,2.0889,2.1064,2.1064,2.1387,2.1611,2.1719,2.1719,2.2002,2.251,2.251,2.2744,2.3091,2.3091,2.3091,2.3091,2.3091,2.3091,2.3091,2.3091,2.3091,2.3091,2.3091,2.3091,2.3091,2.3091,2.3091,2.3091,2.3091,2.3091,2.3091,2.3091,2.3091,2.3091,2.3091,2.3091,2.3091,2.3091,2.3091,2.3091,2.3091,2.3091,2.3178,2.3464,2.3507,2.3887,2.4999,2.521,2.5828,2.7763,2.7452,2.7585,2.9495,2.9792,2.9792,2.9792,2.9792,2.9792,2.9792,2.9792,2.9792,2.9792,2.9792,2.9792,2.9792,2.9792,2.9792,2.9792,2.9377,2.9151,2.9151,2.875,2.8398,2.8109,2.7695,2.7494,2.7482,2.7102,2.6914,0.0,1.6626,0.0,1.8422,1.9868,0.0,0.0,0.0,0.0,0.0,0.0,0.0,0.0,0.0,0.0,0.0,0.0,0.0,0.0,0.0,0.0,0.0,0.0,0.0,0.0,0.0,0.0,0.0,2.0605,2.0605,2.0605,2.0605,2.0605,2.0605,2.0625,2.0635,2.0635,2.0664,2.085,2.1229,2.1229,2.1668,2.251,2.251,2.2744,2.3091,2.3091,2.3091,2.3091,2.3091,2.3091,2.3091,2.3091,2.3091,2.3091,2.3091,2.3091,2.3091,2.3091,2.3091,2.3091,2.3091,2.3091,2.3091,2.3091,2.3091,2.3091,2.3091,2.3091,2.3091,2.3091,2.3091,2.3091,2.3091,2.3091,2.3387,2.4457,2.4702,2.5041,2.6182,2.6389,2.676,2.7884,2.8044,2.8426,2.9624,2.9792,2.9792,2.9792,2.9792,2.9792,2.9792,2.9792,2.9792,2.9792,2.9792,2.9792,2.9792,2.9792,2.9792,2.9792,2.9767,2.9741,2.9741,2.9716,2.9176,2.8109,2.8072,2.8059,2.8059,2.8034,2.8021,0.0,0.0,0.0,1.8142,1.9284,2.0216,0.0,0.0,0.0,0.0,0.0,0.0,0.0,0.0,0.0,0.0,0.0,0.0,0.0,0.0,0.0,0.0,0.0,0.0,0.0,0.0,0.0,0.0,0.0,2.0605,2.0605,2.0605,2.0605,2.0605,2.1183,2.1479,2.1479,2.0895,2.0683,2.0801,2.0801,2.1113,2.1658,2.1982,2.2344,2.2711,2.2974,2.3091,2.3091,2.3091,2.3091,2.3091,2.3091,2.3091,2.3091,2.3091,2.3091,2.3091,2.3091,2.3091,2.3091,2.3091,2.3091,2.3091,2.3091,2.3091,2.3091,2.3091,2.3091,2.3091,2.3091,2.3091,2.3091,2.3091,2.3091,2.343,2.4542,2.5378,2.6213,2.7319,2.7522,2.7855,2.8988,2.8597,2.8478,2.9624,2.9792,2.9792,2.9792,2.9792,2.9792,2.9792,2.9792,2.9792,2.9792,2.9792,2.9792,2.9792,2.9792,2.9792,2.9792,2.9792,2.9792,2.9792,2.9792,2.9591,2.9189,2.8812,2.8599,2.8624,2.8273,2.8109,1.4626,0.0,0.0,0.0,0.0,0.0,0.0,0.0,0.0,0.0,0.0,0.0,0.0,0.0,0.0,0.0,0.0,0.0,0.0,0.0,0.0,0.0,0.0,0.0,0.0,0.0,0.0,0.0,0.0,0.0,2.0605,2.0605,2.075,2.1039,2.1375,2.1669,2.1989,2.1078,2.0605,2.0605,2.0605,2.0801,2.121,2.1689,2.2119,2.2539,2.2916,2.3091,2.3091,2.3091,2.3091,2.3091,2.3091,2.3091,2.3091,2.3091,2.3091,2.3091,2.3091,2.3091,2.3091,2.3091,2.3091,2.3091,2.3091,2.3091,2.3091,2.3091,2.3091,2.3091,2.3091,2.3091,2.3091,2.3091,2.3387,2.3877,2.4628,2.5714,2.6801,2.7896,2.8426,2.8897,2.9663,2.9157,2.8937,2.9702,2.9792,2.9792,2.9792,2.9792,2.9792,2.9792,2.9792,2.9792,2.9792,2.9792,2.9792,2.9792,2.9792,2.9792,2.9792,2.9792,2.9792,2.9792,2.9792,2.9792,2.9792,2.9402,2.9176,2.9202,2.885,2.8674,0.0,0.0,0.0,0.0,0.0,0.0,0.0,0.0,0.0,0.0,0.0,0.0,0.0,0.0,0.0,0.0,0.0,0.0,0.0,0.0,0.0,0.0,0.0,0.0,0.0,0.0,0.0,0.0,2.0634,2.0644,2.0605,2.0605,2.1039,2.1952,2.1078,2.1039,2.1989,2.1078,2.0605,2.0605,2.0605,2.0791,2.119,2.1711,2.2141,2.2552,2.2939,2.3125,2.3135,2.3091,2.3091,2.3091,2.3091,2.3091,2.3091,2.3091,2.3091,2.3091,2.3091,2.3135,2.3135,2.3135,2.3135,2.3135,2.3135,2.3135,2.3091,2.3091,2.3091,2.3091,2.3091,2.3091,2.3091,2.3135,2.4006,2.4787,2.4787,2.5714,2.6842,2.7884,2.9028,2.9792,2.9792,2.9792,2.9792,2.9792,2.9792,2.9792,2.9792,2.9792,2.9792,2.9792,2.9792,2.9792,2.9792,2.9792,2.9792,2.9792,2.9792,2.9792,2.9792,2.9792,2.9792,2.9792,2.9792,2.9792,2.9792,2.9792,2.9792,2.9792,2.9792,2.9792,1.4217,0.0,0.0,0.0,0.0,0.0,0.0,0.0,0.0,0.0,0.0,0.0,0.0,0.0,0.0,0.0,0.0,0.0,0.0,0.0,0.0,0.0,0.0,0.0,0.0,0.0,0.0,0.0,2.1897,2.2086,2.0683,2.0605,2.1039,2.1952,2.1078,2.1039,2.1989,2.1078,2.0605,2.0605,2.0605,2.0674,2.0801,2.1957,2.2754,2.3247,2.3597,2.3966,2.4253,2.343,2.3091,2.3091,2.3091,2.3091,2.3091,2.3091,2.3091,2.3091,2.3091,2.3637,2.4339,2.4339,2.4339,2.4339,2.4339,2.3757,2.3091,2.3091,2.3091,2.3091,2.3091,2.3091,2.3299,2.4125,2.4585,2.4787,2.4787,2.6326,2.7735,2.8044,2.9028,2.9792,2.9792,2.9792,2.9792,2.9792,2.9792,2.9792,2.9792,2.9792,2.9792,2.9792,2.9792,2.9792,2.9792,2.9792,2.9792,2.9792,2.9792,2.9792,2.9792,2.9792,2.9792,2.9792,2.9792,2.9792,2.9792,2.9792,2.9792,2.9792,2.9792,2.9792,1.4576,0.0,0.0,0.0,0.0,0.0,0.0,1.7955,0.0,0.0,0.0,0.0,0.0,0.0,0.0,0.0,0.0,0.0,0.0,0.0,0.0,0.0,0.0,0.0,0.0,2.2478,2.1962,2.1821,2.2124,2.1794,2.0644,2.0605,2.1039,2.1952,2.1078,2.1039,2.1989,2.1078,2.0605,2.0605,2.0605,2.0828,2.1203,2.226,2.3207,2.4162,2.4527,2.47,2.4745,2.4092,2.3507,2.3091,2.3091,2.3091,2.3091,2.3091,2.3091,2.3178,2.3637,2.4253,2.4872,2.5336,2.521,2.4787,2.4787,2.4006,2.3091,2.3091,2.343,2.3714,2.3222,2.381,2.4553,2.4755,2.5493,2.6066,2.563,2.7238,2.8518,2.7614,2.87,2.9792,2.9792,2.9792,2.9792,2.9792,2.9792,2.9792,2.9792,2.9792,2.9792,2.9792,2.9792,2.9792,2.9792,2.9792,2.9792,2.9792,2.9792,2.9792,2.9792,2.9792,2.9792,2.9792,2.9792,2.9792,2.9792,2.9792,2.9792,2.9792,2.9792,2.9792,1.5223,1.5475,0.0,0.0,0.0,0.0,1.7626,1.8078,0.0,0.0,0.0,0.0,0.0,0.0,0.0,0.0,0.0,0.0,0.0,0.0,0.0,0.0,0.0,0.0,2.4803,2.3256,2.2589,2.3363,2.1866,2.0857,2.075,2.0867,2.127,2.2,2.1308,2.1336,2.2178,2.1336,2.0934,2.0934,2.0934,2.1375,2.2188,2.2726,2.3776,2.521,2.5532,2.5499,2.5157,2.4914,2.4125,2.3091,2.3091,2.3091,2.3091,2.3091,2.3091,2.3266,2.4253,2.4787,2.5126,2.6016,2.5797,2.5157,2.5041,2.4168,2.3266,2.3135,2.392,2.4542,2.3387,2.4766,2.6224,2.521,2.6562,2.7855,2.6883,2.8343,2.917,2.7087,2.8383,2.9792,2.9792,2.9792,2.9792,2.9792,2.9792,2.9792,2.9792,2.9792,2.9792,2.9792,2.9792,2.9792,2.9792,2.9792,2.9792,2.9792,2.9792,2.9792,2.9792,2.9792,2.9792,2.9792,2.9792,2.9792,2.9792,2.9792,2.9792,2.9792,2.9792,2.9792,1.6358,1.6622,1.6983,1.6609,0.0,0.0,1.6421,1.7237,0.0,0.0,0.0,0.0,0.0,0.0,0.0,0.0,0.0,0.0,0.0,0.0,0.0,0.0,0.0,0.0,2.3619,2.3734,2.3511,2.2885,2.289,2.2601,2.1773,2.2478,2.2627,2.2027,2.2627,2.2999,2.322,2.3036,2.2925,2.2925,2.2925,2.3036,2.322,2.415,2.5207,2.6299,2.6315,2.6761,2.7308,2.5535,2.4125,2.3091,2.3091,2.3091,2.3091,2.3091,2.3091,2.3135,2.3343,2.4638,2.6058,2.5378,2.6191,2.7308,2.6419,2.5378,2.4296,2.3343,2.392,2.4542,2.3387,2.4766,2.6431,2.6224,2.7157,2.8044,2.7844,2.8858,2.9404,2.8056,2.8858,2.9792,2.9792,2.9792,2.9792,2.9792,2.9792,2.9792,2.9792,2.9792,2.9792,2.9792,2.9792,2.9792,2.9792,2.9792,2.9792,2.9792,2.9792,2.9792,2.9792,2.9792,2.9792,2.9792,2.9792,2.9792,2.9792,2.9792,2.9792,2.9792,2.9792,2.9792,1.7438,1.7375,1.7473,1.7679,0.0,0.0,0.0,0.0,1.7526,0.0,0.0,0.0,0.0,0.0,0.0,0.0,0.0,0.0,0.0,0.0,0.0,0.0,0.0,0.0,2.4054,2.3874,2.3339,2.2382,2.3278,2.3408,2.2381,2.3088,2.3257,2.2776,2.2739,2.2739,2.2739,2.2739,2.2739,2.2776,2.3257,2.377,2.4264,2.4779,2.5865,2.736,2.7298,2.7579,2.7964,2.6337,2.4967,2.3877,2.3299,2.3091,2.3091,2.3091,2.3091,2.3178,2.3757,2.5052,2.6472,2.6449,2.7186,2.7884,2.6842,2.5305,2.3833,2.3266,2.4349,2.5389,2.4253,2.563,2.7279,2.7279,2.7723,2.8255,2.8819,2.9404,2.9624,2.9067,2.9404,2.9792,2.9792,2.9792,2.9792,2.9792,2.9792,2.9792,2.9792,2.9792,2.9792,2.9792,2.9792,2.9792,2.9792,2.9792,2.9792,2.9792,2.9792,2.9792,2.9792,2.9792,2.9792,2.9792,2.9792,2.9792,2.9792,2.9792,2.9792,2.9792,2.9792,2.9792,0.0,0.0,0.0,0.0,0.0,1.8116,0.0,0.0,0.0,1.7739,0.0,0.0,0.0,0.0,0.0,0.0,0.0,0.0,0.0,0.0,0.0,0.0,0.0,0.0,0.0,2.3579,2.286,2.2241,2.3164,2.3396,2.2605,2.3255,2.367,2.3634,2.3128,2.2765,2.259,2.2765,2.2765,2.259,2.3588,2.4516,2.53,2.53,2.6321,2.8109,2.8109,2.8212,2.8347,2.725,2.6254,2.5284,2.3963,2.3299,2.3135,2.3343,2.343,2.3507,2.4211,2.5504,2.6883,2.7308,2.7752,2.7884,2.6842,2.5221,2.3724,2.3474,2.4893,2.6307,2.5378,2.6778,2.8386,2.8136,2.8255,2.8688,2.9585,2.9792,2.9792,2.9792,2.9792,2.9792,2.9792,2.9792,2.9792,2.9792,2.9792,2.9792,2.9792,2.9792,2.9792,2.9792,2.9792,2.9792,2.9792,2.9792,2.9792,2.9792,2.9792,2.9792,2.9792,2.9792,2.9792,2.9792,2.9792,2.9792,2.9792,2.9792,2.9792,2.9792,2.9792,2.9792,0.0,0.0,0.0,0.0,2.0037,0.0,0.0,0.0,1.7765,1.6864,0.0,0.0,0.0,0.0,0.0,0.0,0.0,0.0,0.0,0.0,0.0,0.0,0.0,0.0,0.0,2.2468,2.2629,2.3105,2.253,2.2113,2.1988,2.3387,2.4164,2.413,2.5326,2.5546,2.4671,2.5534,2.5534,2.4671,2.5687,2.6233,2.6349,2.6349,2.6984,2.8109,2.8109,2.8662,2.9534,2.8398,2.7844,2.751,2.541,2.4006,2.3222,2.4211,2.4628,2.4457,2.3594,2.5326,2.7602,2.5775,2.6521,2.7884,2.6842,2.6307,2.5891,2.4872,2.5504,2.6483,2.6348,2.7959,2.9365,2.8347,2.8858,2.9624,2.9753,2.9792,2.9792,2.9792,2.9792,2.9792,2.9792,2.9792,2.9792,2.9792,2.9792,2.9792,2.9792,2.9792,2.9792,2.9792,2.9792,2.9792,2.9792,2.9792,2.9792,2.9792,2.9792,2.9792,2.9792,2.9792,2.9792,2.9792,2.9792,2.9792,2.9792,2.9792,2.9792,2.9792,2.9792,2.9792,0.0,0.0,0.0,0.0,0.0,0.0,1.7953,0.0,1.7187,0.0,0.0,0.0,0.0,0.0,0.0,0.0,0.0,0.0,0.0,0.0,0.0,0.0,0.0,0.0,0.0,0.0,0.0,0.0,2.2175,2.228,2.2568,2.4155,2.5025,2.5016,2.5406,2.5441,2.5004,2.5406,2.5406,2.5004,2.6025,2.6499,2.6499,2.6826,2.7369,2.8122,2.8448,2.9038,2.9702,2.8557,2.8096,2.8004,2.7093,2.6036,2.5136,2.5599,2.5797,2.5724,2.5221,2.6408,2.8056,2.7787,2.7896,2.8004,2.7562,2.7005,2.6389,2.5922,2.6584,2.7441,2.7441,2.8108,2.8858,2.9028,2.8937,2.8976,2.9663,2.9792,2.9792,2.9792,2.9792,2.9792,2.9792,2.9792,2.9792,2.9792,2.9792,2.9792,2.9792,2.9792,2.9792,2.9792,2.9792,2.9792,2.9792,2.9792,2.9792,2.9792,2.9792,2.9792,2.9792,2.9792,2.9792,2.9792,2.9792,2.9792,2.9792,2.9792,2.9792,2.9792,2.9792,2.9792,2.2259,0.0,0.0,0.0,0.0,0.0,0.0,0.0,0.0,0.0,0.0,0.0,0.0,0.0,0.0,0.0,0.0,0.0,0.0,0.0,0.0,0.0,0.0,0.0,0.0,0.0,0.0,0.0,0.0,2.1477,2.2478,2.382,2.4719,2.5016,2.5105,2.5108,2.5004,2.5264,2.5264,2.5004,2.6025,2.6499,2.6512,2.7065,2.7582,2.8134,2.865,2.9252,2.9753,2.8897,2.8557,2.8557,2.8557,2.8079,2.7383,2.7046,2.6924,2.6883,2.6595,2.7197,2.8307,2.9443,2.9236,2.8518,2.8176,2.7574,2.6924,2.6924,2.7481,2.8176,2.8466,2.8557,2.8767,2.9585,2.9157,2.8806,2.9624,2.9792,2.9792,2.9792,2.9792,2.9792,2.9792,2.9792,2.9792,2.9792,2.9792,2.9792,2.9792,2.9792,2.9792,2.9792,2.9792,2.9792,2.9792,2.9792,2.9792,2.9792,2.9792,2.9792,2.9792,2.9792,2.9792,2.9792,2.9792,2.9792,2.9792,2.9792,2.9792,2.9792,2.9792,2.9792,0.0,0.0,0.0,2.0652,0.0,0.0,0.0,0.0,1.8619,0.0,0.0,0.0,0.0,0.0,0.0,0.0,0.0,0.0,0.0,0.0,0.0,0.0,0.0,0.0,0.0,0.0,0.0,0.0,0.0,0.0,2.0956,2.167,2.2476,2.3535,2.4892,2.5388,2.5004,2.599,2.5943,2.5004,2.6025,2.6499,2.6512,2.7065,2.7582,2.8134,2.865,2.9252,2.9792,2.9753,2.9753,2.9753,2.9753,2.9702,2.9585,2.8478,2.8056,2.7884,2.6842,2.7197,2.8307,2.9443,2.9792,2.9534,2.8426,2.8096,2.8056,2.8056,2.8084,2.8347,2.9456,2.9753,2.9753,2.9792,2.9753,2.9753,2.9792,2.9792,2.9792,2.9792,2.9792,2.9792,2.9792,2.9792,2.9792,2.9792,2.9792,2.9792,2.9792,2.9792,2.9792,2.9792,2.9792,2.9792,2.9792,2.9792,2.9792,2.9792,2.9792,2.9792,2.9792,2.9792,2.9792,2.9792,2.9792,2.9792,2.9792,2.9792,2.9792,2.9792,2.9792,2.9792,0.0,0.0,2.5737,2.2719,0.0,0.0,0.0,0.0,0.0,0.0,0.0,0.0,0.0,0.0,0.0,0.0,0.0,0.0,0.0,0.0,0.0,0.0,0.0,0.0,0.0,0.0,0.0,0.0,1.8945,0.0,0.0,2.2012,2.3034,2.3806,2.4991,2.5727,2.5978,2.6349,2.6314,2.599,2.6349,2.6688,2.7052,2.757,2.8134,2.865,2.9252,2.9616,2.9792,2.9792,2.9792,2.9792,2.9792,2.9792,2.9753,2.9365,2.9236,2.9157,2.8791,2.891,2.9275,2.9663,2.9792,2.9714,2.9326,2.9236,2.9236,2.9236,2.9236,2.9314,2.9702,2.9792,2.9792,2.9792,2.9792,2.9792,2.9792,2.9792,2.9792,2.9792,2.9792,2.9792,2.9792,2.9792,2.9792,2.9792,2.9792,2.9792,2.9792,2.9792,2.9792,2.9792,2.9792,2.9792,2.9792,2.9792,2.9792,2.9792,2.9792,2.9792,2.9792,2.9792,2.9792,2.9792,2.9792,2.9792,2.9792,2.9792,2.9792,2.9792,2.9792,2.9792,2.6839,2.7052,0.0,2.4299,2.3434,0.0,1.9962,0.0,0.0,0.0,0.0,0.0,0.0,0.0,0.0,0.0,0.0,0.0,0.0,0.0,0.0,0.0,0.0,0.0,0.0,0.0,1.7237,1.8355,1.8418,0.0,0.0,0.0,2.2837,2.3534,2.4683,2.5686,2.6487,2.6499,2.6499,2.6499,2.6499,2.6788,2.7341,2.7858,2.8411,2.8925,2.9541,2.9792,2.9792,2.9792,2.9792,2.9792,2.9792,2.9792,2.9792,2.9792,2.9792,2.9792,2.9792,2.9792,2.9792,2.9792,2.9792,2.9792,2.9792,2.9792,2.9792,2.9792,2.9792,2.9792,2.9792,2.9792,2.9792,2.9792,2.9792,2.9792,2.9792,2.9792,2.9792,2.9792,2.9792,2.9792,2.9792,2.9792,2.9792,2.9792,2.9792,2.9792,2.9792,2.9792,2.9792,2.9792,2.9792,2.9792,2.9792,2.9792,2.9792,2.9792,2.9792,2.9792,2.9792,2.9792,2.9792,2.9792,2.9792,2.9792,2.9792,2.9792,2.9792,2.9792,2.9792,2.9792]}]]